<?xml version="1.0" encoding="UTF-8" standalone="no" ?>
<gpx xmlns="http://www.topografix.com/GPX/1/1" xmlns:xsi="http://www.w3.org/2001/XMLSchema-instance" xsi:schemaLocation="http://www.topografix.com/GPX/1/1 http://www.topografix.com/GPX/1/1/gpx.xsd" version="1.1" creator="VisuGPX - https://www.visugpx.com">
  <metadata>
    <name>martaille PDC cormede Martres.gpx</name>
    <desc><![CDATA[
]]></desc>
  </metadata>
  <trk>
    <name><![CDATA[martaille PDC cormede Martres.gpx]]></name>
    <trkseg>
      <trkpt lat="45.8363" lon="3.26184">
        <ele>395.81158</ele>
        <time>2020-03-15T09:52:08Z</time>
      </trkpt>
      <trkpt lat="45.8363" lon="3.26183">
        <ele>395.81158</ele>
        <time>2020-03-15T09:52:10Z</time>
      </trkpt>
      <trkpt lat="45.83631" lon="3.2618">
        <ele>395.81158</ele>
        <time>2020-03-15T09:52:21Z</time>
      </trkpt>
      <trkpt lat="45.83631" lon="3.2618">
        <ele>395.81158</ele>
        <time>2020-03-15T09:52:21Z</time>
      </trkpt>
      <trkpt lat="45.83662" lon="3.26175">
        <ele>363.09317</ele>
        <time>2020-03-15T09:54:38Z</time>
      </trkpt>
      <trkpt lat="45.83673" lon="3.26177">
        <ele>361.6215</ele>
        <time>2020-03-15T09:54:41Z</time>
      </trkpt>
      <trkpt lat="45.83683" lon="3.26174">
        <ele>361.18582</ele>
        <time>2020-03-15T09:54:44Z</time>
      </trkpt>
      <trkpt lat="45.8369" lon="3.26184">
        <ele>360.24268</ele>
        <time>2020-03-15T09:54:50Z</time>
      </trkpt>
      <trkpt lat="45.83689" lon="3.26185">
        <ele>360.05228</ele>
        <time>2020-03-15T09:54:52Z</time>
      </trkpt>
      <trkpt lat="45.83689" lon="3.26185">
        <ele>360.05228</ele>
        <time>2020-03-15T09:54:52Z</time>
      </trkpt>
      <trkpt lat="45.83693" lon="3.26218">
        <ele>358.85992</ele>
        <time>2020-03-15T09:55:12Z</time>
      </trkpt>
      <trkpt lat="45.83696" lon="3.26234">
        <ele>359.01627</ele>
        <time>2020-03-15T09:55:15Z</time>
      </trkpt>
      <trkpt lat="45.83697" lon="3.26252">
        <ele>358.59427</ele>
        <time>2020-03-15T09:55:18Z</time>
      </trkpt>
      <trkpt lat="45.83698" lon="3.26266">
        <ele>358.67664</ele>
        <time>2020-03-15T09:55:20Z</time>
      </trkpt>
      <trkpt lat="45.837" lon="3.26278">
        <ele>358.48523</ele>
        <time>2020-03-15T09:55:22Z</time>
      </trkpt>
      <trkpt lat="45.83704" lon="3.26297">
        <ele>358.2985</ele>
        <time>2020-03-15T09:55:25Z</time>
      </trkpt>
      <trkpt lat="45.83706" lon="3.26309">
        <ele>358.46222</ele>
        <time>2020-03-15T09:55:27Z</time>
      </trkpt>
      <trkpt lat="45.83708" lon="3.26328">
        <ele>358.37238</ele>
        <time>2020-03-15T09:55:30Z</time>
      </trkpt>
      <trkpt lat="45.8371" lon="3.26341">
        <ele>358.62564</ele>
        <time>2020-03-15T09:55:32Z</time>
      </trkpt>
      <trkpt lat="45.83712" lon="3.26354">
        <ele>358.96884</ele>
        <time>2020-03-15T09:55:34Z</time>
      </trkpt>
      <trkpt lat="45.83715" lon="3.26373">
        <ele>358.88654</ele>
        <time>2020-03-15T09:55:37Z</time>
      </trkpt>
      <trkpt lat="45.83716" lon="3.26386">
        <ele>358.6572</ele>
        <time>2020-03-15T09:55:39Z</time>
      </trkpt>
      <trkpt lat="45.83718" lon="3.26405">
        <ele>358.0169</ele>
        <time>2020-03-15T09:55:42Z</time>
      </trkpt>
      <trkpt lat="45.83715" lon="3.26419">
        <ele>357.89584</ele>
        <time>2020-03-15T09:55:44Z</time>
      </trkpt>
      <trkpt lat="45.83711" lon="3.26434">
        <ele>358.21887</ele>
        <time>2020-03-15T09:55:46Z</time>
      </trkpt>
      <trkpt lat="45.83707" lon="3.26449">
        <ele>358.41458</ele>
        <time>2020-03-15T09:55:48Z</time>
      </trkpt>
      <trkpt lat="45.83703" lon="3.26463">
        <ele>358.485</ele>
        <time>2020-03-15T09:55:50Z</time>
      </trkpt>
      <trkpt lat="45.83699" lon="3.26476">
        <ele>358.50003</ele>
        <time>2020-03-15T09:55:52Z</time>
      </trkpt>
      <trkpt lat="45.83696" lon="3.2649">
        <ele>358.9973</ele>
        <time>2020-03-15T09:55:54Z</time>
      </trkpt>
      <trkpt lat="45.83694" lon="3.26503">
        <ele>359.48123</ele>
        <time>2020-03-15T09:55:56Z</time>
      </trkpt>
      <trkpt lat="45.83689" lon="3.26521">
        <ele>359.8027</ele>
        <time>2020-03-15T09:55:59Z</time>
      </trkpt>
      <trkpt lat="45.83685" lon="3.26533">
        <ele>360.66513</ele>
        <time>2020-03-15T09:56:01Z</time>
      </trkpt>
      <trkpt lat="45.8368" lon="3.26548">
        <ele>361.31216</ele>
        <time>2020-03-15T09:56:04Z</time>
      </trkpt>
      <trkpt lat="45.83675" lon="3.2656">
        <ele>362.407</ele>
        <time>2020-03-15T09:56:07Z</time>
      </trkpt>
      <trkpt lat="45.8367" lon="3.26571">
        <ele>362.74994</ele>
        <time>2020-03-15T09:56:11Z</time>
      </trkpt>
      <trkpt lat="45.8367" lon="3.26585">
        <ele>362.96332</ele>
        <time>2020-03-15T09:56:14Z</time>
      </trkpt>
      <trkpt lat="45.83674" lon="3.26598">
        <ele>362.77844</ele>
        <time>2020-03-15T09:56:16Z</time>
      </trkpt>
      <trkpt lat="45.83678" lon="3.26611">
        <ele>362.63867</ele>
        <time>2020-03-15T09:56:18Z</time>
      </trkpt>
      <trkpt lat="45.83681" lon="3.26625">
        <ele>362.41556</ele>
        <time>2020-03-15T09:56:20Z</time>
      </trkpt>
      <trkpt lat="45.83684" lon="3.26638">
        <ele>362.29623</ele>
        <time>2020-03-15T09:56:22Z</time>
      </trkpt>
      <trkpt lat="45.83688" lon="3.26651">
        <ele>362.53226</ele>
        <time>2020-03-15T09:56:24Z</time>
      </trkpt>
      <trkpt lat="45.83693" lon="3.26665">
        <ele>363.0988</ele>
        <time>2020-03-15T09:56:26Z</time>
      </trkpt>
      <trkpt lat="45.83696" lon="3.26679">
        <ele>363.54837</ele>
        <time>2020-03-15T09:56:28Z</time>
      </trkpt>
      <trkpt lat="45.837" lon="3.26694">
        <ele>364.38318</ele>
        <time>2020-03-15T09:56:30Z</time>
      </trkpt>
      <trkpt lat="45.83703" lon="3.26708">
        <ele>364.90256</ele>
        <time>2020-03-15T09:56:32Z</time>
      </trkpt>
      <trkpt lat="45.83705" lon="3.26722">
        <ele>365.0281</ele>
        <time>2020-03-15T09:56:34Z</time>
      </trkpt>
      <trkpt lat="45.83705" lon="3.26737">
        <ele>364.5675</ele>
        <time>2020-03-15T09:56:36Z</time>
      </trkpt>
      <trkpt lat="45.83707" lon="3.26753">
        <ele>364.7508</ele>
        <time>2020-03-15T09:56:38Z</time>
      </trkpt>
      <trkpt lat="45.83708" lon="3.2677">
        <ele>364.64667</ele>
        <time>2020-03-15T09:56:40Z</time>
      </trkpt>
      <trkpt lat="45.83709" lon="3.26787">
        <ele>364.90213</ele>
        <time>2020-03-15T09:56:42Z</time>
      </trkpt>
      <trkpt lat="45.83709" lon="3.26804">
        <ele>365.05457</ele>
        <time>2020-03-15T09:56:44Z</time>
      </trkpt>
      <trkpt lat="45.83707" lon="3.26822">
        <ele>365.44485</ele>
        <time>2020-03-15T09:56:46Z</time>
      </trkpt>
      <trkpt lat="45.83707" lon="3.2684">
        <ele>366.19357</ele>
        <time>2020-03-15T09:56:48Z</time>
      </trkpt>
      <trkpt lat="45.83704" lon="3.26857">
        <ele>365.98026</ele>
        <time>2020-03-15T09:56:50Z</time>
      </trkpt>
      <trkpt lat="45.837" lon="3.26873">
        <ele>365.47693</ele>
        <time>2020-03-15T09:56:52Z</time>
      </trkpt>
      <trkpt lat="45.83696" lon="3.2689">
        <ele>365.5534</ele>
        <time>2020-03-15T09:56:54Z</time>
      </trkpt>
      <trkpt lat="45.83693" lon="3.26908">
        <ele>365.41025</ele>
        <time>2020-03-15T09:56:56Z</time>
      </trkpt>
      <trkpt lat="45.8369" lon="3.26925">
        <ele>365.54388</ele>
        <time>2020-03-15T09:56:58Z</time>
      </trkpt>
      <trkpt lat="45.83687" lon="3.26942">
        <ele>365.92047</ele>
        <time>2020-03-15T09:57:00Z</time>
      </trkpt>
      <trkpt lat="45.83683" lon="3.26958">
        <ele>366.01828</ele>
        <time>2020-03-15T09:57:02Z</time>
      </trkpt>
      <trkpt lat="45.8368" lon="3.26972">
        <ele>366.6856</ele>
        <time>2020-03-15T09:57:04Z</time>
      </trkpt>
      <trkpt lat="45.83677" lon="3.26985">
        <ele>366.8193</ele>
        <time>2020-03-15T09:57:06Z</time>
      </trkpt>
      <trkpt lat="45.83673" lon="3.26999">
        <ele>367.21436</ele>
        <time>2020-03-15T09:57:09Z</time>
      </trkpt>
      <trkpt lat="45.83668" lon="3.27014">
        <ele>368.02655</ele>
        <time>2020-03-15T09:57:14Z</time>
      </trkpt>
      <trkpt lat="45.83669" lon="3.27028">
        <ele>368.4112</ele>
        <time>2020-03-15T09:57:17Z</time>
      </trkpt>
      <trkpt lat="45.83669" lon="3.27041">
        <ele>368.2214</ele>
        <time>2020-03-15T09:57:20Z</time>
      </trkpt>
      <trkpt lat="45.83667" lon="3.27055">
        <ele>367.87653</ele>
        <time>2020-03-15T09:57:23Z</time>
      </trkpt>
      <trkpt lat="45.83664" lon="3.2707">
        <ele>368.0629</ele>
        <time>2020-03-15T09:57:26Z</time>
      </trkpt>
      <trkpt lat="45.83663" lon="3.27084">
        <ele>367.45303</ele>
        <time>2020-03-15T09:57:29Z</time>
      </trkpt>
      <trkpt lat="45.83662" lon="3.271">
        <ele>366.9085</ele>
        <time>2020-03-15T09:57:32Z</time>
      </trkpt>
      <trkpt lat="45.8366" lon="3.27116">
        <ele>366.86017</ele>
        <time>2020-03-15T09:57:35Z</time>
      </trkpt>
      <trkpt lat="45.83658" lon="3.27134">
        <ele>366.94644</ele>
        <time>2020-03-15T09:57:38Z</time>
      </trkpt>
      <trkpt lat="45.83657" lon="3.27148">
        <ele>367.0202</ele>
        <time>2020-03-15T09:57:40Z</time>
      </trkpt>
      <trkpt lat="45.83657" lon="3.27162">
        <ele>366.92612</ele>
        <time>2020-03-15T09:57:42Z</time>
      </trkpt>
      <trkpt lat="45.83657" lon="3.27177">
        <ele>366.74167</ele>
        <time>2020-03-15T09:57:44Z</time>
      </trkpt>
      <trkpt lat="45.83657" lon="3.27192">
        <ele>366.58414</ele>
        <time>2020-03-15T09:57:46Z</time>
      </trkpt>
      <trkpt lat="45.83656" lon="3.27208">
        <ele>366.95355</ele>
        <time>2020-03-15T09:57:48Z</time>
      </trkpt>
      <trkpt lat="45.83654" lon="3.27222">
        <ele>366.77643</ele>
        <time>2020-03-15T09:57:50Z</time>
      </trkpt>
      <trkpt lat="45.83653" lon="3.27238">
        <ele>366.71094</ele>
        <time>2020-03-15T09:57:52Z</time>
      </trkpt>
      <trkpt lat="45.83649" lon="3.27254">
        <ele>366.65417</ele>
        <time>2020-03-15T09:57:54Z</time>
      </trkpt>
      <trkpt lat="45.83648" lon="3.27268">
        <ele>365.73352</ele>
        <time>2020-03-15T09:57:56Z</time>
      </trkpt>
      <trkpt lat="45.83647" lon="3.27283">
        <ele>365.06213</ele>
        <time>2020-03-15T09:57:58Z</time>
      </trkpt>
      <trkpt lat="45.83645" lon="3.27299">
        <ele>364.821</ele>
        <time>2020-03-15T09:58:00Z</time>
      </trkpt>
      <trkpt lat="45.83642" lon="3.27314">
        <ele>365.07706</ele>
        <time>2020-03-15T09:58:02Z</time>
      </trkpt>
      <trkpt lat="45.8364" lon="3.27329">
        <ele>365.33997</ele>
        <time>2020-03-15T09:58:04Z</time>
      </trkpt>
      <trkpt lat="45.83639" lon="3.27344">
        <ele>365.25952</ele>
        <time>2020-03-15T09:58:06Z</time>
      </trkpt>
      <trkpt lat="45.83637" lon="3.27361">
        <ele>365.4446</ele>
        <time>2020-03-15T09:58:08Z</time>
      </trkpt>
      <trkpt lat="45.83635" lon="3.27376">
        <ele>365.2014</ele>
        <time>2020-03-15T09:58:10Z</time>
      </trkpt>
      <trkpt lat="45.83634" lon="3.27391">
        <ele>364.73865</ele>
        <time>2020-03-15T09:58:12Z</time>
      </trkpt>
      <trkpt lat="45.83633" lon="3.27407">
        <ele>364.55124</ele>
        <time>2020-03-15T09:58:14Z</time>
      </trkpt>
      <trkpt lat="45.83631" lon="3.27422">
        <ele>364.55255</ele>
        <time>2020-03-15T09:58:16Z</time>
      </trkpt>
      <trkpt lat="45.8363" lon="3.27437">
        <ele>363.82648</ele>
        <time>2020-03-15T09:58:18Z</time>
      </trkpt>
      <trkpt lat="45.83628" lon="3.27453">
        <ele>363.1963</ele>
        <time>2020-03-15T09:58:20Z</time>
      </trkpt>
      <trkpt lat="45.83627" lon="3.27467">
        <ele>362.42886</ele>
        <time>2020-03-15T09:58:22Z</time>
      </trkpt>
      <trkpt lat="45.83627" lon="3.27483">
        <ele>362.70654</ele>
        <time>2020-03-15T09:58:24Z</time>
      </trkpt>
      <trkpt lat="45.83626" lon="3.27499">
        <ele>362.75134</ele>
        <time>2020-03-15T09:58:26Z</time>
      </trkpt>
      <trkpt lat="45.83624" lon="3.27516">
        <ele>362.44873</ele>
        <time>2020-03-15T09:58:28Z</time>
      </trkpt>
      <trkpt lat="45.83623" lon="3.27534">
        <ele>361.47766</ele>
        <time>2020-03-15T09:58:30Z</time>
      </trkpt>
      <trkpt lat="45.83623" lon="3.27554">
        <ele>360.65094</ele>
        <time>2020-03-15T09:58:32Z</time>
      </trkpt>
      <trkpt lat="45.83622" lon="3.27577">
        <ele>360.24463</ele>
        <time>2020-03-15T09:58:34Z</time>
      </trkpt>
      <trkpt lat="45.83622" lon="3.27602">
        <ele>359.95203</ele>
        <time>2020-03-15T09:58:36Z</time>
      </trkpt>
      <trkpt lat="45.83623" lon="3.27626">
        <ele>359.64664</ele>
        <time>2020-03-15T09:58:38Z</time>
      </trkpt>
      <trkpt lat="45.83623" lon="3.27646">
        <ele>360.2295</ele>
        <time>2020-03-15T09:58:40Z</time>
      </trkpt>
      <trkpt lat="45.83622" lon="3.27664">
        <ele>360.0388</ele>
        <time>2020-03-15T09:58:42Z</time>
      </trkpt>
      <trkpt lat="45.83623" lon="3.27683">
        <ele>359.46756</ele>
        <time>2020-03-15T09:58:44Z</time>
      </trkpt>
      <trkpt lat="45.83624" lon="3.27704">
        <ele>359.20224</ele>
        <time>2020-03-15T09:58:46Z</time>
      </trkpt>
      <trkpt lat="45.83626" lon="3.27723">
        <ele>358.88342</ele>
        <time>2020-03-15T09:58:48Z</time>
      </trkpt>
      <trkpt lat="45.8363" lon="3.27743">
        <ele>358.39172</ele>
        <time>2020-03-15T09:58:50Z</time>
      </trkpt>
      <trkpt lat="45.83635" lon="3.27764">
        <ele>357.5779</ele>
        <time>2020-03-15T09:58:52Z</time>
      </trkpt>
      <trkpt lat="45.83638" lon="3.27787">
        <ele>356.80353</ele>
        <time>2020-03-15T09:58:54Z</time>
      </trkpt>
      <trkpt lat="45.8364" lon="3.278">
        <ele>356.63333</ele>
        <time>2020-03-15T09:58:55Z</time>
      </trkpt>
      <trkpt lat="45.83644" lon="3.27825">
        <ele>355.5194</ele>
        <time>2020-03-15T09:58:57Z</time>
      </trkpt>
      <trkpt lat="45.83646" lon="3.2785">
        <ele>355.1132</ele>
        <time>2020-03-15T09:58:59Z</time>
      </trkpt>
      <trkpt lat="45.83649" lon="3.27873">
        <ele>355.30594</ele>
        <time>2020-03-15T09:59:01Z</time>
      </trkpt>
      <trkpt lat="45.83653" lon="3.27896">
        <ele>355.1526</ele>
        <time>2020-03-15T09:59:03Z</time>
      </trkpt>
      <trkpt lat="45.83657" lon="3.27918">
        <ele>355.03827</ele>
        <time>2020-03-15T09:59:05Z</time>
      </trkpt>
      <trkpt lat="45.83661" lon="3.27939">
        <ele>355.10092</ele>
        <time>2020-03-15T09:59:07Z</time>
      </trkpt>
      <trkpt lat="45.83665" lon="3.27961">
        <ele>355.364</ele>
        <time>2020-03-15T09:59:09Z</time>
      </trkpt>
      <trkpt lat="45.83667" lon="3.27981">
        <ele>355.38998</ele>
        <time>2020-03-15T09:59:11Z</time>
      </trkpt>
      <trkpt lat="45.8367" lon="3.28001">
        <ele>355.44467</ele>
        <time>2020-03-15T09:59:13Z</time>
      </trkpt>
      <trkpt lat="45.83672" lon="3.28022">
        <ele>355.21066</ele>
        <time>2020-03-15T09:59:15Z</time>
      </trkpt>
      <trkpt lat="45.83675" lon="3.28042">
        <ele>355.05692</ele>
        <time>2020-03-15T09:59:17Z</time>
      </trkpt>
      <trkpt lat="45.83678" lon="3.28063">
        <ele>355.09946</ele>
        <time>2020-03-15T09:59:19Z</time>
      </trkpt>
      <trkpt lat="45.83681" lon="3.28083">
        <ele>355.0657</ele>
        <time>2020-03-15T09:59:21Z</time>
      </trkpt>
      <trkpt lat="45.83683" lon="3.28103">
        <ele>354.67795</ele>
        <time>2020-03-15T09:59:23Z</time>
      </trkpt>
      <trkpt lat="45.83686" lon="3.28123">
        <ele>354.58173</ele>
        <time>2020-03-15T09:59:25Z</time>
      </trkpt>
      <trkpt lat="45.83689" lon="3.28142">
        <ele>354.48114</ele>
        <time>2020-03-15T09:59:27Z</time>
      </trkpt>
      <trkpt lat="45.83692" lon="3.28162">
        <ele>354.20255</ele>
        <time>2020-03-15T09:59:29Z</time>
      </trkpt>
      <trkpt lat="45.83695" lon="3.2818">
        <ele>353.9614</ele>
        <time>2020-03-15T09:59:31Z</time>
      </trkpt>
      <trkpt lat="45.83698" lon="3.282">
        <ele>354.3198</ele>
        <time>2020-03-15T09:59:33Z</time>
      </trkpt>
      <trkpt lat="45.837" lon="3.28219">
        <ele>354.56863</ele>
        <time>2020-03-15T09:59:35Z</time>
      </trkpt>
      <trkpt lat="45.83703" lon="3.28237">
        <ele>354.78265</ele>
        <time>2020-03-15T09:59:37Z</time>
      </trkpt>
      <trkpt lat="45.83706" lon="3.28254">
        <ele>355.0693</ele>
        <time>2020-03-15T09:59:39Z</time>
      </trkpt>
      <trkpt lat="45.83708" lon="3.28271">
        <ele>355.49527</ele>
        <time>2020-03-15T09:59:41Z</time>
      </trkpt>
      <trkpt lat="45.83711" lon="3.28288">
        <ele>355.4496</ele>
        <time>2020-03-15T09:59:43Z</time>
      </trkpt>
      <trkpt lat="45.83713" lon="3.28303">
        <ele>355.86523</ele>
        <time>2020-03-15T09:59:45Z</time>
      </trkpt>
      <trkpt lat="45.83715" lon="3.28316">
        <ele>355.94205</ele>
        <time>2020-03-15T09:59:47Z</time>
      </trkpt>
      <trkpt lat="45.83718" lon="3.28336">
        <ele>355.72183</ele>
        <time>2020-03-15T09:59:50Z</time>
      </trkpt>
      <trkpt lat="45.8372" lon="3.28349">
        <ele>355.68707</ele>
        <time>2020-03-15T09:59:52Z</time>
      </trkpt>
      <trkpt lat="45.83722" lon="3.28368">
        <ele>354.82657</ele>
        <time>2020-03-15T09:59:55Z</time>
      </trkpt>
      <trkpt lat="45.83724" lon="3.28383">
        <ele>353.95276</ele>
        <time>2020-03-15T09:59:58Z</time>
      </trkpt>
      <trkpt lat="45.83736" lon="3.28391">
        <ele>352.5554</ele>
        <time>2020-03-15T10:00:02Z</time>
      </trkpt>
      <trkpt lat="45.83748" lon="3.28397">
        <ele>352.3208</ele>
        <time>2020-03-15T10:00:05Z</time>
      </trkpt>
      <trkpt lat="45.83757" lon="3.284">
        <ele>352.16956</ele>
        <time>2020-03-15T10:00:07Z</time>
      </trkpt>
      <trkpt lat="45.83767" lon="3.28406">
        <ele>351.9486</ele>
        <time>2020-03-15T10:00:09Z</time>
      </trkpt>
      <trkpt lat="45.83777" lon="3.28415">
        <ele>351.6401</ele>
        <time>2020-03-15T10:00:11Z</time>
      </trkpt>
      <trkpt lat="45.83787" lon="3.28425">
        <ele>351.6671</ele>
        <time>2020-03-15T10:00:13Z</time>
      </trkpt>
      <trkpt lat="45.83794" lon="3.28437">
        <ele>351.7054</ele>
        <time>2020-03-15T10:00:15Z</time>
      </trkpt>
      <trkpt lat="45.83801" lon="3.2845">
        <ele>352.20328</ele>
        <time>2020-03-15T10:00:17Z</time>
      </trkpt>
      <trkpt lat="45.83806" lon="3.28464">
        <ele>352.2061</ele>
        <time>2020-03-15T10:00:19Z</time>
      </trkpt>
      <trkpt lat="45.83812" lon="3.28475">
        <ele>352.31757</ele>
        <time>2020-03-15T10:00:21Z</time>
      </trkpt>
      <trkpt lat="45.83819" lon="3.28485">
        <ele>351.93814</ele>
        <time>2020-03-15T10:00:23Z</time>
      </trkpt>
      <trkpt lat="45.83826" lon="3.28502">
        <ele>351.0505</ele>
        <time>2020-03-15T10:00:26Z</time>
      </trkpt>
      <trkpt lat="45.8383" lon="3.28515">
        <ele>350.64426</ele>
        <time>2020-03-15T10:00:28Z</time>
      </trkpt>
      <trkpt lat="45.83831" lon="3.28528">
        <ele>350.59222</ele>
        <time>2020-03-15T10:00:30Z</time>
      </trkpt>
      <trkpt lat="45.83832" lon="3.28541">
        <ele>350.14938</ele>
        <time>2020-03-15T10:00:32Z</time>
      </trkpt>
      <trkpt lat="45.83831" lon="3.28556">
        <ele>349.97955</ele>
        <time>2020-03-15T10:00:34Z</time>
      </trkpt>
      <trkpt lat="45.83831" lon="3.28571">
        <ele>349.82922</ele>
        <time>2020-03-15T10:00:36Z</time>
      </trkpt>
      <trkpt lat="45.83829" lon="3.28586">
        <ele>349.7943</ele>
        <time>2020-03-15T10:00:38Z</time>
      </trkpt>
      <trkpt lat="45.83828" lon="3.286">
        <ele>349.37454</ele>
        <time>2020-03-15T10:00:40Z</time>
      </trkpt>
      <trkpt lat="45.83829" lon="3.28614">
        <ele>349.5338</ele>
        <time>2020-03-15T10:00:42Z</time>
      </trkpt>
      <trkpt lat="45.8383" lon="3.28629">
        <ele>349.76483</ele>
        <time>2020-03-15T10:00:44Z</time>
      </trkpt>
      <trkpt lat="45.83829" lon="3.28644">
        <ele>349.92044</ele>
        <time>2020-03-15T10:00:46Z</time>
      </trkpt>
      <trkpt lat="45.83827" lon="3.28658">
        <ele>349.6664</ele>
        <time>2020-03-15T10:00:48Z</time>
      </trkpt>
      <trkpt lat="45.83825" lon="3.28674">
        <ele>349.98685</ele>
        <time>2020-03-15T10:00:50Z</time>
      </trkpt>
      <trkpt lat="45.83822" lon="3.28689">
        <ele>349.8564</ele>
        <time>2020-03-15T10:00:52Z</time>
      </trkpt>
      <trkpt lat="45.83817" lon="3.28704">
        <ele>349.14832</ele>
        <time>2020-03-15T10:00:54Z</time>
      </trkpt>
      <trkpt lat="45.83811" lon="3.2872">
        <ele>348.55804</ele>
        <time>2020-03-15T10:00:56Z</time>
      </trkpt>
      <trkpt lat="45.83807" lon="3.28739">
        <ele>348.60916</ele>
        <time>2020-03-15T10:00:58Z</time>
      </trkpt>
      <trkpt lat="45.83803" lon="3.28758">
        <ele>349.02225</ele>
        <time>2020-03-15T10:01:00Z</time>
      </trkpt>
      <trkpt lat="45.83801" lon="3.28777">
        <ele>349.44308</ele>
        <time>2020-03-15T10:01:02Z</time>
      </trkpt>
      <trkpt lat="45.83799" lon="3.28796">
        <ele>349.7479</ele>
        <time>2020-03-15T10:01:04Z</time>
      </trkpt>
      <trkpt lat="45.83796" lon="3.28815">
        <ele>349.93002</ele>
        <time>2020-03-15T10:01:06Z</time>
      </trkpt>
      <trkpt lat="45.83793" lon="3.28832">
        <ele>350.07538</ele>
        <time>2020-03-15T10:01:08Z</time>
      </trkpt>
      <trkpt lat="45.83789" lon="3.28849">
        <ele>350.59186</ele>
        <time>2020-03-15T10:01:10Z</time>
      </trkpt>
      <trkpt lat="45.83787" lon="3.28865">
        <ele>351.23407</ele>
        <time>2020-03-15T10:01:12Z</time>
      </trkpt>
      <trkpt lat="45.83787" lon="3.2888">
        <ele>351.47937</ele>
        <time>2020-03-15T10:01:14Z</time>
      </trkpt>
      <trkpt lat="45.83789" lon="3.28897">
        <ele>351.662</ele>
        <time>2020-03-15T10:01:16Z</time>
      </trkpt>
      <trkpt lat="45.83792" lon="3.28913">
        <ele>352.38058</ele>
        <time>2020-03-15T10:01:18Z</time>
      </trkpt>
      <trkpt lat="45.83798" lon="3.28931">
        <ele>352.29865</ele>
        <time>2020-03-15T10:01:20Z</time>
      </trkpt>
      <trkpt lat="45.83805" lon="3.28952">
        <ele>352.4772</ele>
        <time>2020-03-15T10:01:22Z</time>
      </trkpt>
      <trkpt lat="45.83812" lon="3.28973">
        <ele>353.0298</ele>
        <time>2020-03-15T10:01:24Z</time>
      </trkpt>
      <trkpt lat="45.83817" lon="3.28995">
        <ele>353.44412</ele>
        <time>2020-03-15T10:01:26Z</time>
      </trkpt>
      <trkpt lat="45.83822" lon="3.29015">
        <ele>353.94714</ele>
        <time>2020-03-15T10:01:28Z</time>
      </trkpt>
      <trkpt lat="45.83823" lon="3.29035">
        <ele>353.55234</ele>
        <time>2020-03-15T10:01:30Z</time>
      </trkpt>
      <trkpt lat="45.83824" lon="3.29055">
        <ele>352.66147</ele>
        <time>2020-03-15T10:01:32Z</time>
      </trkpt>
      <trkpt lat="45.83823" lon="3.29076">
        <ele>352.55228</ele>
        <time>2020-03-15T10:01:34Z</time>
      </trkpt>
      <trkpt lat="45.83822" lon="3.29096">
        <ele>352.50076</ele>
        <time>2020-03-15T10:01:36Z</time>
      </trkpt>
      <trkpt lat="45.83815" lon="3.2911">
        <ele>352.30762</ele>
        <time>2020-03-15T10:01:38Z</time>
      </trkpt>
      <trkpt lat="45.83807" lon="3.29115">
        <ele>352.39514</ele>
        <time>2020-03-15T10:01:40Z</time>
      </trkpt>
      <trkpt lat="45.83796" lon="3.29115">
        <ele>351.6841</ele>
        <time>2020-03-15T10:01:42Z</time>
      </trkpt>
      <trkpt lat="45.83785" lon="3.29113">
        <ele>350.76324</ele>
        <time>2020-03-15T10:01:44Z</time>
      </trkpt>
      <trkpt lat="45.83776" lon="3.29109">
        <ele>349.61945</ele>
        <time>2020-03-15T10:01:46Z</time>
      </trkpt>
      <trkpt lat="45.83766" lon="3.29101">
        <ele>348.35648</ele>
        <time>2020-03-15T10:01:48Z</time>
      </trkpt>
      <trkpt lat="45.83756" lon="3.29091">
        <ele>347.3955</ele>
        <time>2020-03-15T10:01:50Z</time>
      </trkpt>
      <trkpt lat="45.83747" lon="3.2908">
        <ele>346.4822</ele>
        <time>2020-03-15T10:01:52Z</time>
      </trkpt>
      <trkpt lat="45.83738" lon="3.29068">
        <ele>345.55692</ele>
        <time>2020-03-15T10:01:54Z</time>
      </trkpt>
      <trkpt lat="45.83727" lon="3.29057">
        <ele>344.6918</ele>
        <time>2020-03-15T10:01:56Z</time>
      </trkpt>
      <trkpt lat="45.83717" lon="3.2905">
        <ele>344.1794</ele>
        <time>2020-03-15T10:01:58Z</time>
      </trkpt>
      <trkpt lat="45.83707" lon="3.2904">
        <ele>343.72488</ele>
        <time>2020-03-15T10:02:00Z</time>
      </trkpt>
      <trkpt lat="45.83697" lon="3.29028">
        <ele>343.3949</ele>
        <time>2020-03-15T10:02:02Z</time>
      </trkpt>
      <trkpt lat="45.83688" lon="3.29017">
        <ele>342.55215</ele>
        <time>2020-03-15T10:02:04Z</time>
      </trkpt>
      <trkpt lat="45.8368" lon="3.29007">
        <ele>342.70535</ele>
        <time>2020-03-15T10:02:06Z</time>
      </trkpt>
      <trkpt lat="45.83672" lon="3.28999">
        <ele>341.91675</ele>
        <time>2020-03-15T10:02:08Z</time>
      </trkpt>
      <trkpt lat="45.83663" lon="3.28989">
        <ele>341.3193</ele>
        <time>2020-03-15T10:02:10Z</time>
      </trkpt>
      <trkpt lat="45.83656" lon="3.28978">
        <ele>341.2457</ele>
        <time>2020-03-15T10:02:12Z</time>
      </trkpt>
      <trkpt lat="45.83651" lon="3.28966">
        <ele>341.02823</ele>
        <time>2020-03-15T10:02:14Z</time>
      </trkpt>
      <trkpt lat="45.83646" lon="3.28955">
        <ele>340.27933</ele>
        <time>2020-03-15T10:02:16Z</time>
      </trkpt>
      <trkpt lat="45.83639" lon="3.28943">
        <ele>340.5501</ele>
        <time>2020-03-15T10:02:18Z</time>
      </trkpt>
      <trkpt lat="45.83632" lon="3.28931">
        <ele>340.71057</ele>
        <time>2020-03-15T10:02:20Z</time>
      </trkpt>
      <trkpt lat="45.83624" lon="3.28921">
        <ele>340.49435</ele>
        <time>2020-03-15T10:02:22Z</time>
      </trkpt>
      <trkpt lat="45.83615" lon="3.28913">
        <ele>340.30148</ele>
        <time>2020-03-15T10:02:24Z</time>
      </trkpt>
      <trkpt lat="45.83607" lon="3.28903">
        <ele>340.30283</ele>
        <time>2020-03-15T10:02:26Z</time>
      </trkpt>
      <trkpt lat="45.83599" lon="3.28895">
        <ele>340.25833</ele>
        <time>2020-03-15T10:02:28Z</time>
      </trkpt>
      <trkpt lat="45.83589" lon="3.28886">
        <ele>340.52063</ele>
        <time>2020-03-15T10:02:30Z</time>
      </trkpt>
      <trkpt lat="45.83578" lon="3.28878">
        <ele>340.03702</ele>
        <time>2020-03-15T10:02:32Z</time>
      </trkpt>
      <trkpt lat="45.83568" lon="3.28871">
        <ele>340.3526</ele>
        <time>2020-03-15T10:02:34Z</time>
      </trkpt>
      <trkpt lat="45.83558" lon="3.28864">
        <ele>339.91086</ele>
        <time>2020-03-15T10:02:36Z</time>
      </trkpt>
      <trkpt lat="45.83549" lon="3.28856">
        <ele>340.07724</ele>
        <time>2020-03-15T10:02:38Z</time>
      </trkpt>
      <trkpt lat="45.83538" lon="3.28849">
        <ele>340.51303</ele>
        <time>2020-03-15T10:02:40Z</time>
      </trkpt>
      <trkpt lat="45.83527" lon="3.28844">
        <ele>340.55832</ele>
        <time>2020-03-15T10:02:42Z</time>
      </trkpt>
      <trkpt lat="45.83516" lon="3.2884">
        <ele>340.96304</ele>
        <time>2020-03-15T10:02:44Z</time>
      </trkpt>
      <trkpt lat="45.83506" lon="3.28837">
        <ele>341.19345</ele>
        <time>2020-03-15T10:02:46Z</time>
      </trkpt>
      <trkpt lat="45.83496" lon="3.28834">
        <ele>341.4646</ele>
        <time>2020-03-15T10:02:48Z</time>
      </trkpt>
      <trkpt lat="45.83486" lon="3.28832">
        <ele>341.65094</ele>
        <time>2020-03-15T10:02:50Z</time>
      </trkpt>
      <trkpt lat="45.83477" lon="3.28831">
        <ele>341.95746</ele>
        <time>2020-03-15T10:02:52Z</time>
      </trkpt>
      <trkpt lat="45.83467" lon="3.28829">
        <ele>341.90652</ele>
        <time>2020-03-15T10:02:54Z</time>
      </trkpt>
      <trkpt lat="45.83457" lon="3.28828">
        <ele>341.88727</ele>
        <time>2020-03-15T10:02:56Z</time>
      </trkpt>
      <trkpt lat="45.83447" lon="3.28826">
        <ele>342.3159</ele>
        <time>2020-03-15T10:02:58Z</time>
      </trkpt>
      <trkpt lat="45.83436" lon="3.28825">
        <ele>342.64243</ele>
        <time>2020-03-15T10:03:00Z</time>
      </trkpt>
      <trkpt lat="45.83427" lon="3.28825">
        <ele>343.1907</ele>
        <time>2020-03-15T10:03:02Z</time>
      </trkpt>
      <trkpt lat="45.83418" lon="3.28825">
        <ele>344.09512</ele>
        <time>2020-03-15T10:03:04Z</time>
      </trkpt>
      <trkpt lat="45.83404" lon="3.28825">
        <ele>344.83224</ele>
        <time>2020-03-15T10:03:07Z</time>
      </trkpt>
      <trkpt lat="45.83395" lon="3.28825">
        <ele>345.11713</ele>
        <time>2020-03-15T10:03:09Z</time>
      </trkpt>
      <trkpt lat="45.83385" lon="3.28823">
        <ele>345.33774</ele>
        <time>2020-03-15T10:03:11Z</time>
      </trkpt>
      <trkpt lat="45.83375" lon="3.28822">
        <ele>345.58337</ele>
        <time>2020-03-15T10:03:13Z</time>
      </trkpt>
      <trkpt lat="45.83365" lon="3.28821">
        <ele>345.76492</ele>
        <time>2020-03-15T10:03:15Z</time>
      </trkpt>
      <trkpt lat="45.83356" lon="3.28822">
        <ele>345.8466</ele>
        <time>2020-03-15T10:03:17Z</time>
      </trkpt>
      <trkpt lat="45.83347" lon="3.28824">
        <ele>345.82596</ele>
        <time>2020-03-15T10:03:19Z</time>
      </trkpt>
      <trkpt lat="45.83337" lon="3.28825">
        <ele>346.10406</ele>
        <time>2020-03-15T10:03:21Z</time>
      </trkpt>
      <trkpt lat="45.83328" lon="3.28824">
        <ele>346.21848</ele>
        <time>2020-03-15T10:03:23Z</time>
      </trkpt>
      <trkpt lat="45.83317" lon="3.28821">
        <ele>346.11865</ele>
        <time>2020-03-15T10:03:25Z</time>
      </trkpt>
      <trkpt lat="45.83307" lon="3.2882">
        <ele>345.95352</ele>
        <time>2020-03-15T10:03:27Z</time>
      </trkpt>
      <trkpt lat="45.83296" lon="3.28818">
        <ele>346.13266</ele>
        <time>2020-03-15T10:03:29Z</time>
      </trkpt>
      <trkpt lat="45.83285" lon="3.28817">
        <ele>346.2022</ele>
        <time>2020-03-15T10:03:31Z</time>
      </trkpt>
      <trkpt lat="45.83274" lon="3.28816">
        <ele>346.53925</ele>
        <time>2020-03-15T10:03:33Z</time>
      </trkpt>
      <trkpt lat="45.83264" lon="3.28816">
        <ele>346.6588</ele>
        <time>2020-03-15T10:03:35Z</time>
      </trkpt>
      <trkpt lat="45.83253" lon="3.28815">
        <ele>346.80777</ele>
        <time>2020-03-15T10:03:37Z</time>
      </trkpt>
      <trkpt lat="45.83242" lon="3.28816">
        <ele>346.8916</ele>
        <time>2020-03-15T10:03:39Z</time>
      </trkpt>
      <trkpt lat="45.83232" lon="3.28815">
        <ele>346.6462</ele>
        <time>2020-03-15T10:03:41Z</time>
      </trkpt>
      <trkpt lat="45.83222" lon="3.28814">
        <ele>346.8166</ele>
        <time>2020-03-15T10:03:43Z</time>
      </trkpt>
      <trkpt lat="45.83211" lon="3.28813">
        <ele>346.7867</ele>
        <time>2020-03-15T10:03:45Z</time>
      </trkpt>
      <trkpt lat="45.832" lon="3.28812">
        <ele>346.84097</ele>
        <time>2020-03-15T10:03:47Z</time>
      </trkpt>
      <trkpt lat="45.83189" lon="3.28812">
        <ele>346.79276</ele>
        <time>2020-03-15T10:03:49Z</time>
      </trkpt>
      <trkpt lat="45.83178" lon="3.28811">
        <ele>347.045</ele>
        <time>2020-03-15T10:03:51Z</time>
      </trkpt>
      <trkpt lat="45.83167" lon="3.28809">
        <ele>347.36035</ele>
        <time>2020-03-15T10:03:53Z</time>
      </trkpt>
      <trkpt lat="45.83156" lon="3.28806">
        <ele>347.59384</ele>
        <time>2020-03-15T10:03:55Z</time>
      </trkpt>
      <trkpt lat="45.83147" lon="3.28803">
        <ele>347.8191</ele>
        <time>2020-03-15T10:03:57Z</time>
      </trkpt>
      <trkpt lat="45.83137" lon="3.28802">
        <ele>347.10016</ele>
        <time>2020-03-15T10:03:59Z</time>
      </trkpt>
      <trkpt lat="45.83126" lon="3.28801">
        <ele>346.09415</ele>
        <time>2020-03-15T10:04:01Z</time>
      </trkpt>
      <trkpt lat="45.83114" lon="3.28798">
        <ele>345.56802</ele>
        <time>2020-03-15T10:04:03Z</time>
      </trkpt>
      <trkpt lat="45.83102" lon="3.28794">
        <ele>345.37268</ele>
        <time>2020-03-15T10:04:05Z</time>
      </trkpt>
      <trkpt lat="45.83092" lon="3.28788">
        <ele>345.03662</ele>
        <time>2020-03-15T10:04:07Z</time>
      </trkpt>
      <trkpt lat="45.83083" lon="3.28778">
        <ele>344.9654</ele>
        <time>2020-03-15T10:04:09Z</time>
      </trkpt>
      <trkpt lat="45.83073" lon="3.28769">
        <ele>345.26984</ele>
        <time>2020-03-15T10:04:11Z</time>
      </trkpt>
      <trkpt lat="45.83064" lon="3.28763">
        <ele>344.9873</ele>
        <time>2020-03-15T10:04:13Z</time>
      </trkpt>
      <trkpt lat="45.83052" lon="3.2876">
        <ele>344.9024</ele>
        <time>2020-03-15T10:04:15Z</time>
      </trkpt>
      <trkpt lat="45.83041" lon="3.28759">
        <ele>345.03723</ele>
        <time>2020-03-15T10:04:17Z</time>
      </trkpt>
      <trkpt lat="45.83031" lon="3.28757">
        <ele>345.1179</ele>
        <time>2020-03-15T10:04:19Z</time>
      </trkpt>
      <trkpt lat="45.83021" lon="3.28757">
        <ele>344.7985</ele>
        <time>2020-03-15T10:04:21Z</time>
      </trkpt>
      <trkpt lat="45.8301" lon="3.28758">
        <ele>344.81155</ele>
        <time>2020-03-15T10:04:23Z</time>
      </trkpt>
      <trkpt lat="45.82999" lon="3.28757">
        <ele>345.06912</ele>
        <time>2020-03-15T10:04:25Z</time>
      </trkpt>
      <trkpt lat="45.82988" lon="3.28756">
        <ele>345.5027</ele>
        <time>2020-03-15T10:04:27Z</time>
      </trkpt>
      <trkpt lat="45.82978" lon="3.28755">
        <ele>346.16202</ele>
        <time>2020-03-15T10:04:29Z</time>
      </trkpt>
      <trkpt lat="45.82969" lon="3.28753">
        <ele>346.32822</ele>
        <time>2020-03-15T10:04:31Z</time>
      </trkpt>
      <trkpt lat="45.82961" lon="3.28747">
        <ele>346.57507</ele>
        <time>2020-03-15T10:04:33Z</time>
      </trkpt>
      <trkpt lat="45.82951" lon="3.2874">
        <ele>346.25473</ele>
        <time>2020-03-15T10:04:35Z</time>
      </trkpt>
      <trkpt lat="45.8294" lon="3.28734">
        <ele>346.26233</ele>
        <time>2020-03-15T10:04:37Z</time>
      </trkpt>
      <trkpt lat="45.82928" lon="3.28729">
        <ele>346.4651</ele>
        <time>2020-03-15T10:04:39Z</time>
      </trkpt>
      <trkpt lat="45.82916" lon="3.28723">
        <ele>346.98425</ele>
        <time>2020-03-15T10:04:41Z</time>
      </trkpt>
      <trkpt lat="45.82906" lon="3.28713">
        <ele>346.99026</ele>
        <time>2020-03-15T10:04:43Z</time>
      </trkpt>
      <trkpt lat="45.82898" lon="3.28702">
        <ele>347.33133</ele>
        <time>2020-03-15T10:04:45Z</time>
      </trkpt>
      <trkpt lat="45.829" lon="3.2869">
        <ele>346.07956</ele>
        <time>2020-03-15T10:04:53Z</time>
      </trkpt>
      <trkpt lat="45.82908" lon="3.28677">
        <ele>346.41507</ele>
        <time>2020-03-15T10:04:56Z</time>
      </trkpt>
      <trkpt lat="45.82912" lon="3.28662">
        <ele>346.4058</ele>
        <time>2020-03-15T10:04:59Z</time>
      </trkpt>
      <trkpt lat="45.82914" lon="3.28645">
        <ele>346.85358</ele>
        <time>2020-03-15T10:05:02Z</time>
      </trkpt>
      <trkpt lat="45.82915" lon="3.28629">
        <ele>346.9725</ele>
        <time>2020-03-15T10:05:05Z</time>
      </trkpt>
      <trkpt lat="45.82916" lon="3.28612">
        <ele>346.9745</ele>
        <time>2020-03-15T10:05:08Z</time>
      </trkpt>
      <trkpt lat="45.82918" lon="3.28595">
        <ele>346.9652</ele>
        <time>2020-03-15T10:05:11Z</time>
      </trkpt>
      <trkpt lat="45.82919" lon="3.28582">
        <ele>347.55203</ele>
        <time>2020-03-15T10:05:13Z</time>
      </trkpt>
      <trkpt lat="45.8292" lon="3.28567">
        <ele>347.1605</ele>
        <time>2020-03-15T10:05:15Z</time>
      </trkpt>
      <trkpt lat="45.82919" lon="3.28553">
        <ele>347.28354</ele>
        <time>2020-03-15T10:05:17Z</time>
      </trkpt>
      <trkpt lat="45.82921" lon="3.2854">
        <ele>347.42078</ele>
        <time>2020-03-15T10:05:19Z</time>
      </trkpt>
      <trkpt lat="45.82921" lon="3.28526">
        <ele>347.7829</ele>
        <time>2020-03-15T10:05:21Z</time>
      </trkpt>
      <trkpt lat="45.82923" lon="3.28512">
        <ele>347.98987</ele>
        <time>2020-03-15T10:05:23Z</time>
      </trkpt>
      <trkpt lat="45.82925" lon="3.28497">
        <ele>348.3458</ele>
        <time>2020-03-15T10:05:25Z</time>
      </trkpt>
      <trkpt lat="45.82926" lon="3.28482">
        <ele>348.44476</ele>
        <time>2020-03-15T10:05:27Z</time>
      </trkpt>
      <trkpt lat="45.82927" lon="3.28468">
        <ele>348.612</ele>
        <time>2020-03-15T10:05:29Z</time>
      </trkpt>
      <trkpt lat="45.82927" lon="3.28454">
        <ele>349.21362</ele>
        <time>2020-03-15T10:05:31Z</time>
      </trkpt>
      <trkpt lat="45.82928" lon="3.2844">
        <ele>349.34128</ele>
        <time>2020-03-15T10:05:33Z</time>
      </trkpt>
      <trkpt lat="45.82929" lon="3.28427">
        <ele>349.354</ele>
        <time>2020-03-15T10:05:35Z</time>
      </trkpt>
      <trkpt lat="45.82927" lon="3.28414">
        <ele>349.29865</ele>
        <time>2020-03-15T10:05:37Z</time>
      </trkpt>
      <trkpt lat="45.8292" lon="3.28406">
        <ele>349.1308</ele>
        <time>2020-03-15T10:05:39Z</time>
      </trkpt>
      <trkpt lat="45.8291" lon="3.28405">
        <ele>349.28516</ele>
        <time>2020-03-15T10:05:41Z</time>
      </trkpt>
      <trkpt lat="45.829" lon="3.28407">
        <ele>349.3463</ele>
        <time>2020-03-15T10:05:43Z</time>
      </trkpt>
      <trkpt lat="45.8289" lon="3.28407">
        <ele>349.41013</ele>
        <time>2020-03-15T10:05:45Z</time>
      </trkpt>
      <trkpt lat="45.8288" lon="3.28405">
        <ele>349.99713</ele>
        <time>2020-03-15T10:05:47Z</time>
      </trkpt>
      <trkpt lat="45.8287" lon="3.28403">
        <ele>350.37683</ele>
        <time>2020-03-15T10:05:49Z</time>
      </trkpt>
      <trkpt lat="45.82861" lon="3.284">
        <ele>350.71872</ele>
        <time>2020-03-15T10:05:51Z</time>
      </trkpt>
      <trkpt lat="45.82851" lon="3.28396">
        <ele>350.23608</ele>
        <time>2020-03-15T10:05:53Z</time>
      </trkpt>
      <trkpt lat="45.82842" lon="3.28394">
        <ele>349.89767</ele>
        <time>2020-03-15T10:05:55Z</time>
      </trkpt>
      <trkpt lat="45.82832" lon="3.28392">
        <ele>349.6554</ele>
        <time>2020-03-15T10:05:57Z</time>
      </trkpt>
      <trkpt lat="45.82822" lon="3.2839">
        <ele>349.08615</ele>
        <time>2020-03-15T10:05:59Z</time>
      </trkpt>
      <trkpt lat="45.82812" lon="3.28389">
        <ele>348.10712</ele>
        <time>2020-03-15T10:06:01Z</time>
      </trkpt>
      <trkpt lat="45.82802" lon="3.28389">
        <ele>347.5142</ele>
        <time>2020-03-15T10:06:03Z</time>
      </trkpt>
      <trkpt lat="45.82792" lon="3.28389">
        <ele>346.94946</ele>
        <time>2020-03-15T10:06:05Z</time>
      </trkpt>
      <trkpt lat="45.82782" lon="3.28388">
        <ele>346.68246</ele>
        <time>2020-03-15T10:06:07Z</time>
      </trkpt>
      <trkpt lat="45.82772" lon="3.28386">
        <ele>346.06967</ele>
        <time>2020-03-15T10:06:09Z</time>
      </trkpt>
      <trkpt lat="45.82761" lon="3.28385">
        <ele>345.968</ele>
        <time>2020-03-15T10:06:11Z</time>
      </trkpt>
      <trkpt lat="45.82752" lon="3.28384">
        <ele>346.11713</ele>
        <time>2020-03-15T10:06:13Z</time>
      </trkpt>
      <trkpt lat="45.82743" lon="3.28383">
        <ele>346.18393</ele>
        <time>2020-03-15T10:06:15Z</time>
      </trkpt>
      <trkpt lat="45.82732" lon="3.2838">
        <ele>346.4006</ele>
        <time>2020-03-15T10:06:17Z</time>
      </trkpt>
      <trkpt lat="45.82721" lon="3.28377">
        <ele>346.54147</ele>
        <time>2020-03-15T10:06:19Z</time>
      </trkpt>
      <trkpt lat="45.8271" lon="3.28374">
        <ele>347.16656</ele>
        <time>2020-03-15T10:06:21Z</time>
      </trkpt>
      <trkpt lat="45.82702" lon="3.28368">
        <ele>347.39056</ele>
        <time>2020-03-15T10:06:23Z</time>
      </trkpt>
      <trkpt lat="45.827" lon="3.28354">
        <ele>347.96075</ele>
        <time>2020-03-15T10:06:25Z</time>
      </trkpt>
      <trkpt lat="45.82701" lon="3.2834">
        <ele>348.19064</ele>
        <time>2020-03-15T10:06:27Z</time>
      </trkpt>
      <trkpt lat="45.82702" lon="3.28327">
        <ele>348.357</ele>
        <time>2020-03-15T10:06:29Z</time>
      </trkpt>
      <trkpt lat="45.82702" lon="3.28309">
        <ele>348.23038</ele>
        <time>2020-03-15T10:06:32Z</time>
      </trkpt>
      <trkpt lat="45.82702" lon="3.28291">
        <ele>348.20276</ele>
        <time>2020-03-15T10:06:35Z</time>
      </trkpt>
      <trkpt lat="45.82704" lon="3.28272">
        <ele>348.03958</ele>
        <time>2020-03-15T10:06:38Z</time>
      </trkpt>
      <trkpt lat="45.82704" lon="3.28255">
        <ele>348.0031</ele>
        <time>2020-03-15T10:06:41Z</time>
      </trkpt>
      <trkpt lat="45.82705" lon="3.28241">
        <ele>347.2254</ele>
        <time>2020-03-15T10:06:43Z</time>
      </trkpt>
      <trkpt lat="45.82706" lon="3.28225">
        <ele>346.8531</ele>
        <time>2020-03-15T10:06:45Z</time>
      </trkpt>
      <trkpt lat="45.82707" lon="3.28209">
        <ele>346.7052</ele>
        <time>2020-03-15T10:06:47Z</time>
      </trkpt>
      <trkpt lat="45.82709" lon="3.28194">
        <ele>346.27698</ele>
        <time>2020-03-15T10:06:49Z</time>
      </trkpt>
      <trkpt lat="45.8271" lon="3.28181">
        <ele>345.68372</ele>
        <time>2020-03-15T10:06:51Z</time>
      </trkpt>
      <trkpt lat="45.8271" lon="3.28168">
        <ele>345.66476</ele>
        <time>2020-03-15T10:06:53Z</time>
      </trkpt>
      <trkpt lat="45.82711" lon="3.28153">
        <ele>345.76492</ele>
        <time>2020-03-15T10:06:55Z</time>
      </trkpt>
      <trkpt lat="45.82711" lon="3.2814">
        <ele>345.48294</ele>
        <time>2020-03-15T10:06:57Z</time>
      </trkpt>
      <trkpt lat="45.82711" lon="3.28121">
        <ele>345.38666</ele>
        <time>2020-03-15T10:07:00Z</time>
      </trkpt>
      <trkpt lat="45.82711" lon="3.28108">
        <ele>345.40253</ele>
        <time>2020-03-15T10:07:02Z</time>
      </trkpt>
      <trkpt lat="45.82706" lon="3.28096">
        <ele>345.47647</ele>
        <time>2020-03-15T10:07:04Z</time>
      </trkpt>
      <trkpt lat="45.827" lon="3.28084">
        <ele>345.71463</ele>
        <time>2020-03-15T10:07:06Z</time>
      </trkpt>
      <trkpt lat="45.82693" lon="3.28073">
        <ele>345.76645</ele>
        <time>2020-03-15T10:07:08Z</time>
      </trkpt>
      <trkpt lat="45.82684" lon="3.28064">
        <ele>345.8729</ele>
        <time>2020-03-15T10:07:10Z</time>
      </trkpt>
      <trkpt lat="45.82676" lon="3.28056">
        <ele>346.159</ele>
        <time>2020-03-15T10:07:12Z</time>
      </trkpt>
      <trkpt lat="45.82667" lon="3.28045">
        <ele>346.32114</ele>
        <time>2020-03-15T10:07:15Z</time>
      </trkpt>
      <trkpt lat="45.82658" lon="3.28035">
        <ele>346.3026</ele>
        <time>2020-03-15T10:07:18Z</time>
      </trkpt>
      <trkpt lat="45.82649" lon="3.28025">
        <ele>346.437</ele>
        <time>2020-03-15T10:07:21Z</time>
      </trkpt>
      <trkpt lat="45.82639" lon="3.28013">
        <ele>346.57874</ele>
        <time>2020-03-15T10:07:24Z</time>
      </trkpt>
      <trkpt lat="45.82632" lon="3.28004">
        <ele>346.71545</ele>
        <time>2020-03-15T10:07:26Z</time>
      </trkpt>
      <trkpt lat="45.82622" lon="3.27992">
        <ele>346.9168</ele>
        <time>2020-03-15T10:07:29Z</time>
      </trkpt>
      <trkpt lat="45.82611" lon="3.2798">
        <ele>347.25473</ele>
        <time>2020-03-15T10:07:32Z</time>
      </trkpt>
      <trkpt lat="45.82601" lon="3.27971">
        <ele>347.1356</ele>
        <time>2020-03-15T10:07:35Z</time>
      </trkpt>
      <trkpt lat="45.8259" lon="3.2796">
        <ele>348.14044</ele>
        <time>2020-03-15T10:07:38Z</time>
      </trkpt>
      <trkpt lat="45.82579" lon="3.27948">
        <ele>349.0961</ele>
        <time>2020-03-15T10:07:41Z</time>
      </trkpt>
      <trkpt lat="45.82572" lon="3.27939">
        <ele>349.54413</ele>
        <time>2020-03-15T10:07:43Z</time>
      </trkpt>
      <trkpt lat="45.82565" lon="3.27931">
        <ele>349.81158</ele>
        <time>2020-03-15T10:07:45Z</time>
      </trkpt>
      <trkpt lat="45.82558" lon="3.27923">
        <ele>350.37308</ele>
        <time>2020-03-15T10:07:47Z</time>
      </trkpt>
      <trkpt lat="45.8255" lon="3.27915">
        <ele>350.78558</ele>
        <time>2020-03-15T10:07:49Z</time>
      </trkpt>
      <trkpt lat="45.82542" lon="3.27906">
        <ele>350.78122</ele>
        <time>2020-03-15T10:07:51Z</time>
      </trkpt>
      <trkpt lat="45.82535" lon="3.27897">
        <ele>350.8951</ele>
        <time>2020-03-15T10:07:53Z</time>
      </trkpt>
      <trkpt lat="45.82527" lon="3.27889">
        <ele>350.8114</ele>
        <time>2020-03-15T10:07:55Z</time>
      </trkpt>
      <trkpt lat="45.8252" lon="3.2788">
        <ele>350.89108</ele>
        <time>2020-03-15T10:07:57Z</time>
      </trkpt>
      <trkpt lat="45.82509" lon="3.27868">
        <ele>350.5041</ele>
        <time>2020-03-15T10:08:00Z</time>
      </trkpt>
      <trkpt lat="45.82502" lon="3.27859">
        <ele>350.29214</ele>
        <time>2020-03-15T10:08:02Z</time>
      </trkpt>
      <trkpt lat="45.82494" lon="3.2785">
        <ele>350.21188</ele>
        <time>2020-03-15T10:08:04Z</time>
      </trkpt>
      <trkpt lat="45.82486" lon="3.27841">
        <ele>350.48422</ele>
        <time>2020-03-15T10:08:06Z</time>
      </trkpt>
      <trkpt lat="45.82478" lon="3.27832">
        <ele>351.06055</ele>
        <time>2020-03-15T10:08:08Z</time>
      </trkpt>
      <trkpt lat="45.8247" lon="3.27823">
        <ele>351.48172</ele>
        <time>2020-03-15T10:08:10Z</time>
      </trkpt>
      <trkpt lat="45.82462" lon="3.27814">
        <ele>351.6602</ele>
        <time>2020-03-15T10:08:12Z</time>
      </trkpt>
      <trkpt lat="45.82455" lon="3.27805">
        <ele>351.9903</ele>
        <time>2020-03-15T10:08:14Z</time>
      </trkpt>
      <trkpt lat="45.82447" lon="3.27795">
        <ele>351.8709</ele>
        <time>2020-03-15T10:08:16Z</time>
      </trkpt>
      <trkpt lat="45.8244" lon="3.27785">
        <ele>351.80804</ele>
        <time>2020-03-15T10:08:18Z</time>
      </trkpt>
      <trkpt lat="45.82433" lon="3.27775">
        <ele>351.7946</ele>
        <time>2020-03-15T10:08:20Z</time>
      </trkpt>
      <trkpt lat="45.82425" lon="3.27766">
        <ele>351.9813</ele>
        <time>2020-03-15T10:08:22Z</time>
      </trkpt>
      <trkpt lat="45.82418" lon="3.27757">
        <ele>352.11475</ele>
        <time>2020-03-15T10:08:24Z</time>
      </trkpt>
      <trkpt lat="45.8241" lon="3.27747">
        <ele>352.21658</ele>
        <time>2020-03-15T10:08:26Z</time>
      </trkpt>
      <trkpt lat="45.82404" lon="3.27738">
        <ele>352.00867</ele>
        <time>2020-03-15T10:08:28Z</time>
      </trkpt>
      <trkpt lat="45.82397" lon="3.27728">
        <ele>351.9944</ele>
        <time>2020-03-15T10:08:30Z</time>
      </trkpt>
      <trkpt lat="45.8239" lon="3.27717">
        <ele>352.26932</ele>
        <time>2020-03-15T10:08:32Z</time>
      </trkpt>
      <trkpt lat="45.82382" lon="3.27706">
        <ele>352.17685</ele>
        <time>2020-03-15T10:08:34Z</time>
      </trkpt>
      <trkpt lat="45.82374" lon="3.27696">
        <ele>351.88885</ele>
        <time>2020-03-15T10:08:36Z</time>
      </trkpt>
      <trkpt lat="45.82367" lon="3.27685">
        <ele>351.82098</ele>
        <time>2020-03-15T10:08:38Z</time>
      </trkpt>
      <trkpt lat="45.82359" lon="3.27675">
        <ele>352.1005</ele>
        <time>2020-03-15T10:08:40Z</time>
      </trkpt>
      <trkpt lat="45.82352" lon="3.27667">
        <ele>352.54343</ele>
        <time>2020-03-15T10:08:42Z</time>
      </trkpt>
      <trkpt lat="45.82345" lon="3.27658">
        <ele>352.6595</ele>
        <time>2020-03-15T10:08:44Z</time>
      </trkpt>
      <trkpt lat="45.82338" lon="3.27649">
        <ele>352.52234</ele>
        <time>2020-03-15T10:08:46Z</time>
      </trkpt>
      <trkpt lat="45.82331" lon="3.2764">
        <ele>352.30518</ele>
        <time>2020-03-15T10:08:48Z</time>
      </trkpt>
      <trkpt lat="45.82324" lon="3.27631">
        <ele>352.56595</ele>
        <time>2020-03-15T10:08:50Z</time>
      </trkpt>
      <trkpt lat="45.82317" lon="3.27622">
        <ele>352.78046</ele>
        <time>2020-03-15T10:08:52Z</time>
      </trkpt>
      <trkpt lat="45.8231" lon="3.27612">
        <ele>353.09152</ele>
        <time>2020-03-15T10:08:54Z</time>
      </trkpt>
      <trkpt lat="45.82303" lon="3.27603">
        <ele>353.05576</ele>
        <time>2020-03-15T10:08:56Z</time>
      </trkpt>
      <trkpt lat="45.82296" lon="3.27593">
        <ele>352.57028</ele>
        <time>2020-03-15T10:08:58Z</time>
      </trkpt>
      <trkpt lat="45.82289" lon="3.27584">
        <ele>352.24658</ele>
        <time>2020-03-15T10:09:00Z</time>
      </trkpt>
      <trkpt lat="45.82282" lon="3.27574">
        <ele>352.1374</ele>
        <time>2020-03-15T10:09:02Z</time>
      </trkpt>
      <trkpt lat="45.82276" lon="3.27563">
        <ele>352.13358</ele>
        <time>2020-03-15T10:09:04Z</time>
      </trkpt>
      <trkpt lat="45.82269" lon="3.27553">
        <ele>352.1584</ele>
        <time>2020-03-15T10:09:06Z</time>
      </trkpt>
      <trkpt lat="45.82262" lon="3.27544">
        <ele>351.7353</ele>
        <time>2020-03-15T10:09:08Z</time>
      </trkpt>
      <trkpt lat="45.82254" lon="3.27533">
        <ele>351.66376</ele>
        <time>2020-03-15T10:09:10Z</time>
      </trkpt>
      <trkpt lat="45.82247" lon="3.27523">
        <ele>351.6252</ele>
        <time>2020-03-15T10:09:12Z</time>
      </trkpt>
      <trkpt lat="45.82241" lon="3.27513">
        <ele>351.53897</ele>
        <time>2020-03-15T10:09:14Z</time>
      </trkpt>
      <trkpt lat="45.82233" lon="3.27499">
        <ele>351.15466</ele>
        <time>2020-03-15T10:09:17Z</time>
      </trkpt>
      <trkpt lat="45.82225" lon="3.27488">
        <ele>351.25858</ele>
        <time>2020-03-15T10:09:20Z</time>
      </trkpt>
      <trkpt lat="45.82217" lon="3.27475">
        <ele>351.1479</ele>
        <time>2020-03-15T10:09:24Z</time>
      </trkpt>
      <trkpt lat="45.82211" lon="3.27462">
        <ele>351.51184</ele>
        <time>2020-03-15T10:09:27Z</time>
      </trkpt>
      <trkpt lat="45.82204" lon="3.27451">
        <ele>352.38828</ele>
        <time>2020-03-15T10:09:30Z</time>
      </trkpt>
      <trkpt lat="45.82198" lon="3.27439">
        <ele>352.89386</ele>
        <time>2020-03-15T10:09:34Z</time>
      </trkpt>
      <trkpt lat="45.82192" lon="3.27425">
        <ele>352.1212</ele>
        <time>2020-03-15T10:09:38Z</time>
      </trkpt>
      <trkpt lat="45.82186" lon="3.27413">
        <ele>351.43942</ele>
        <time>2020-03-15T10:09:41Z</time>
      </trkpt>
      <trkpt lat="45.82179" lon="3.27399">
        <ele>350.631</ele>
        <time>2020-03-15T10:09:44Z</time>
      </trkpt>
      <trkpt lat="45.82173" lon="3.27389">
        <ele>350.33463</ele>
        <time>2020-03-15T10:09:46Z</time>
      </trkpt>
      <trkpt lat="45.82168" lon="3.27378">
        <ele>350.2269</ele>
        <time>2020-03-15T10:09:48Z</time>
      </trkpt>
      <trkpt lat="45.82162" lon="3.27368">
        <ele>350.07086</ele>
        <time>2020-03-15T10:09:50Z</time>
      </trkpt>
      <trkpt lat="45.82155" lon="3.27359">
        <ele>349.70398</ele>
        <time>2020-03-15T10:09:52Z</time>
      </trkpt>
      <trkpt lat="45.82146" lon="3.27346">
        <ele>350.77185</ele>
        <time>2020-03-15T10:09:55Z</time>
      </trkpt>
      <trkpt lat="45.82136" lon="3.27333">
        <ele>350.83017</ele>
        <time>2020-03-15T10:09:58Z</time>
      </trkpt>
      <trkpt lat="45.82129" lon="3.27323">
        <ele>351.13693</ele>
        <time>2020-03-15T10:10:00Z</time>
      </trkpt>
      <trkpt lat="45.82122" lon="3.27313">
        <ele>351.76535</ele>
        <time>2020-03-15T10:10:02Z</time>
      </trkpt>
      <trkpt lat="45.82115" lon="3.27304">
        <ele>352.0629</ele>
        <time>2020-03-15T10:10:04Z</time>
      </trkpt>
      <trkpt lat="45.82106" lon="3.27291">
        <ele>352.64548</ele>
        <time>2020-03-15T10:10:07Z</time>
      </trkpt>
      <trkpt lat="45.82097" lon="3.2728">
        <ele>352.84967</ele>
        <time>2020-03-15T10:10:10Z</time>
      </trkpt>
      <trkpt lat="45.82087" lon="3.27268">
        <ele>353.23926</ele>
        <time>2020-03-15T10:10:13Z</time>
      </trkpt>
      <trkpt lat="45.82077" lon="3.27255">
        <ele>353.81967</ele>
        <time>2020-03-15T10:10:16Z</time>
      </trkpt>
      <trkpt lat="45.82068" lon="3.27242">
        <ele>354.2802</ele>
        <time>2020-03-15T10:10:19Z</time>
      </trkpt>
      <trkpt lat="45.82061" lon="3.27232">
        <ele>354.9332</ele>
        <time>2020-03-15T10:10:21Z</time>
      </trkpt>
      <trkpt lat="45.82055" lon="3.27223">
        <ele>355.46854</ele>
        <time>2020-03-15T10:10:23Z</time>
      </trkpt>
      <trkpt lat="45.82046" lon="3.27209">
        <ele>356.14594</ele>
        <time>2020-03-15T10:10:26Z</time>
      </trkpt>
      <trkpt lat="45.82039" lon="3.272">
        <ele>356.62027</ele>
        <time>2020-03-15T10:10:28Z</time>
      </trkpt>
      <trkpt lat="45.82032" lon="3.27191">
        <ele>356.86014</ele>
        <time>2020-03-15T10:10:30Z</time>
      </trkpt>
      <trkpt lat="45.82023" lon="3.27181">
        <ele>356.89987</ele>
        <time>2020-03-15T10:10:33Z</time>
      </trkpt>
      <trkpt lat="45.82013" lon="3.27171">
        <ele>356.90506</ele>
        <time>2020-03-15T10:10:36Z</time>
      </trkpt>
      <trkpt lat="45.82002" lon="3.27163">
        <ele>355.98767</ele>
        <time>2020-03-15T10:10:39Z</time>
      </trkpt>
      <trkpt lat="45.81994" lon="3.27156">
        <ele>355.98868</ele>
        <time>2020-03-15T10:10:41Z</time>
      </trkpt>
      <trkpt lat="45.81986" lon="3.27148">
        <ele>356.1026</ele>
        <time>2020-03-15T10:10:43Z</time>
      </trkpt>
      <trkpt lat="45.81978" lon="3.27141">
        <ele>356.37875</ele>
        <time>2020-03-15T10:10:45Z</time>
      </trkpt>
      <trkpt lat="45.81968" lon="3.27134">
        <ele>357.06403</ele>
        <time>2020-03-15T10:10:48Z</time>
      </trkpt>
      <trkpt lat="45.81959" lon="3.27127">
        <ele>357.37473</ele>
        <time>2020-03-15T10:10:53Z</time>
      </trkpt>
      <trkpt lat="45.81949" lon="3.27118">
        <ele>357.84576</ele>
        <time>2020-03-15T10:10:58Z</time>
      </trkpt>
      <trkpt lat="45.81941" lon="3.2711">
        <ele>357.81656</ele>
        <time>2020-03-15T10:11:02Z</time>
      </trkpt>
      <trkpt lat="45.8193" lon="3.27107">
        <ele>358.95554</ele>
        <time>2020-03-15T10:11:07Z</time>
      </trkpt>
      <trkpt lat="45.81921" lon="3.27108">
        <ele>358.85144</ele>
        <time>2020-03-15T10:11:11Z</time>
      </trkpt>
      <trkpt lat="45.81911" lon="3.27113">
        <ele>358.95306</ele>
        <time>2020-03-15T10:11:14Z</time>
      </trkpt>
      <trkpt lat="45.81899" lon="3.27115">
        <ele>361.55853</ele>
        <time>2020-03-15T10:11:18Z</time>
      </trkpt>
      <trkpt lat="45.81886" lon="3.27114">
        <ele>361.74493</ele>
        <time>2020-03-15T10:11:21Z</time>
      </trkpt>
      <trkpt lat="45.81877" lon="3.27114">
        <ele>362.07272</ele>
        <time>2020-03-15T10:11:23Z</time>
      </trkpt>
      <trkpt lat="45.81868" lon="3.27114">
        <ele>362.17642</ele>
        <time>2020-03-15T10:11:25Z</time>
      </trkpt>
      <trkpt lat="45.81858" lon="3.27115">
        <ele>362.47412</ele>
        <time>2020-03-15T10:11:27Z</time>
      </trkpt>
      <trkpt lat="45.81849" lon="3.27116">
        <ele>362.82864</ele>
        <time>2020-03-15T10:11:29Z</time>
      </trkpt>
      <trkpt lat="45.8184" lon="3.27118">
        <ele>362.75735</ele>
        <time>2020-03-15T10:11:31Z</time>
      </trkpt>
      <trkpt lat="45.81831" lon="3.27122">
        <ele>362.76263</ele>
        <time>2020-03-15T10:11:33Z</time>
      </trkpt>
      <trkpt lat="45.81822" lon="3.27125">
        <ele>362.5564</ele>
        <time>2020-03-15T10:11:35Z</time>
      </trkpt>
      <trkpt lat="45.8181" lon="3.27131">
        <ele>362.50006</ele>
        <time>2020-03-15T10:11:38Z</time>
      </trkpt>
      <trkpt lat="45.81801" lon="3.27134">
        <ele>362.8226</ele>
        <time>2020-03-15T10:11:40Z</time>
      </trkpt>
      <trkpt lat="45.81788" lon="3.27139">
        <ele>363.2267</ele>
        <time>2020-03-15T10:11:43Z</time>
      </trkpt>
      <trkpt lat="45.81775" lon="3.27143">
        <ele>363.64212</ele>
        <time>2020-03-15T10:11:46Z</time>
      </trkpt>
      <trkpt lat="45.81764" lon="3.27152">
        <ele>362.9937</ele>
        <time>2020-03-15T10:11:49Z</time>
      </trkpt>
      <trkpt lat="45.81755" lon="3.27162">
        <ele>362.47507</ele>
        <time>2020-03-15T10:11:52Z</time>
      </trkpt>
      <trkpt lat="45.81746" lon="3.27171">
        <ele>362.90314</ele>
        <time>2020-03-15T10:11:55Z</time>
      </trkpt>
      <trkpt lat="45.81734" lon="3.27181">
        <ele>363.3506</ele>
        <time>2020-03-15T10:11:58Z</time>
      </trkpt>
      <trkpt lat="45.81727" lon="3.27189">
        <ele>363.26248</ele>
        <time>2020-03-15T10:12:00Z</time>
      </trkpt>
      <trkpt lat="45.8172" lon="3.27197">
        <ele>363.48938</ele>
        <time>2020-03-15T10:12:02Z</time>
      </trkpt>
      <trkpt lat="45.81709" lon="3.27206">
        <ele>364.36206</ele>
        <time>2020-03-15T10:12:05Z</time>
      </trkpt>
      <trkpt lat="45.81697" lon="3.27212">
        <ele>364.80197</ele>
        <time>2020-03-15T10:12:08Z</time>
      </trkpt>
      <trkpt lat="45.81686" lon="3.27216">
        <ele>364.0319</ele>
        <time>2020-03-15T10:12:11Z</time>
      </trkpt>
      <trkpt lat="45.81674" lon="3.27219">
        <ele>363.2162</ele>
        <time>2020-03-15T10:12:14Z</time>
      </trkpt>
      <trkpt lat="45.81662" lon="3.27224">
        <ele>363.02063</ele>
        <time>2020-03-15T10:12:17Z</time>
      </trkpt>
      <trkpt lat="45.81651" lon="3.27229">
        <ele>363.0348</ele>
        <time>2020-03-15T10:12:20Z</time>
      </trkpt>
      <trkpt lat="45.81639" lon="3.27233">
        <ele>362.7063</ele>
        <time>2020-03-15T10:12:23Z</time>
      </trkpt>
      <trkpt lat="45.81627" lon="3.27237">
        <ele>362.56543</ele>
        <time>2020-03-15T10:12:26Z</time>
      </trkpt>
      <trkpt lat="45.81615" lon="3.27241">
        <ele>362.33167</ele>
        <time>2020-03-15T10:12:29Z</time>
      </trkpt>
      <trkpt lat="45.81606" lon="3.27244">
        <ele>362.33072</ele>
        <time>2020-03-15T10:12:31Z</time>
      </trkpt>
      <trkpt lat="45.81593" lon="3.27248">
        <ele>362.20847</ele>
        <time>2020-03-15T10:12:34Z</time>
      </trkpt>
      <trkpt lat="45.81581" lon="3.2725">
        <ele>362.18018</ele>
        <time>2020-03-15T10:12:37Z</time>
      </trkpt>
      <trkpt lat="45.8157" lon="3.27255">
        <ele>362.613</ele>
        <time>2020-03-15T10:12:40Z</time>
      </trkpt>
      <trkpt lat="45.81559" lon="3.2726">
        <ele>362.9637</ele>
        <time>2020-03-15T10:12:43Z</time>
      </trkpt>
      <trkpt lat="45.81551" lon="3.27267">
        <ele>363.08426</ele>
        <time>2020-03-15T10:12:45Z</time>
      </trkpt>
      <trkpt lat="45.81542" lon="3.27277">
        <ele>363.52805</ele>
        <time>2020-03-15T10:12:48Z</time>
      </trkpt>
      <trkpt lat="45.81535" lon="3.27289">
        <ele>363.82657</ele>
        <time>2020-03-15T10:12:51Z</time>
      </trkpt>
      <trkpt lat="45.81525" lon="3.27299">
        <ele>363.6628</ele>
        <time>2020-03-15T10:12:54Z</time>
      </trkpt>
      <trkpt lat="45.81517" lon="3.27304">
        <ele>363.4306</ele>
        <time>2020-03-15T10:12:56Z</time>
      </trkpt>
      <trkpt lat="45.81507" lon="3.27307">
        <ele>362.90674</ele>
        <time>2020-03-15T10:12:58Z</time>
      </trkpt>
      <trkpt lat="45.81495" lon="3.27307">
        <ele>362.6925</ele>
        <time>2020-03-15T10:13:01Z</time>
      </trkpt>
      <trkpt lat="45.81481" lon="3.27305">
        <ele>363.2138</ele>
        <time>2020-03-15T10:13:04Z</time>
      </trkpt>
      <trkpt lat="45.81472" lon="3.27302">
        <ele>363.3816</ele>
        <time>2020-03-15T10:13:06Z</time>
      </trkpt>
      <trkpt lat="45.81463" lon="3.27299">
        <ele>363.92206</ele>
        <time>2020-03-15T10:13:08Z</time>
      </trkpt>
      <trkpt lat="45.81454" lon="3.27296">
        <ele>364.56583</ele>
        <time>2020-03-15T10:13:10Z</time>
      </trkpt>
      <trkpt lat="45.81445" lon="3.27294">
        <ele>364.945</ele>
        <time>2020-03-15T10:13:12Z</time>
      </trkpt>
      <trkpt lat="45.81435" lon="3.27292">
        <ele>364.9945</ele>
        <time>2020-03-15T10:13:14Z</time>
      </trkpt>
      <trkpt lat="45.81426" lon="3.2729">
        <ele>364.95566</ele>
        <time>2020-03-15T10:13:16Z</time>
      </trkpt>
      <trkpt lat="45.81417" lon="3.27289">
        <ele>365.18817</ele>
        <time>2020-03-15T10:13:18Z</time>
      </trkpt>
      <trkpt lat="45.81408" lon="3.27287">
        <ele>365.09583</ele>
        <time>2020-03-15T10:13:20Z</time>
      </trkpt>
      <trkpt lat="45.81398" lon="3.27284">
        <ele>364.88153</ele>
        <time>2020-03-15T10:13:22Z</time>
      </trkpt>
      <trkpt lat="45.81387" lon="3.27281">
        <ele>364.54004</ele>
        <time>2020-03-15T10:13:24Z</time>
      </trkpt>
      <trkpt lat="45.81378" lon="3.27278">
        <ele>363.34784</ele>
        <time>2020-03-15T10:13:26Z</time>
      </trkpt>
      <trkpt lat="45.81368" lon="3.27274">
        <ele>362.34177</ele>
        <time>2020-03-15T10:13:28Z</time>
      </trkpt>
      <trkpt lat="45.81356" lon="3.27271">
        <ele>361.69415</ele>
        <time>2020-03-15T10:13:30Z</time>
      </trkpt>
      <trkpt lat="45.81345" lon="3.27268">
        <ele>361.0931</ele>
        <time>2020-03-15T10:13:32Z</time>
      </trkpt>
      <trkpt lat="45.81334" lon="3.27263">
        <ele>360.91403</ele>
        <time>2020-03-15T10:13:34Z</time>
      </trkpt>
      <trkpt lat="45.81323" lon="3.27259">
        <ele>361.03717</ele>
        <time>2020-03-15T10:13:36Z</time>
      </trkpt>
      <trkpt lat="45.81313" lon="3.27254">
        <ele>361.3137</ele>
        <time>2020-03-15T10:13:38Z</time>
      </trkpt>
      <trkpt lat="45.81303" lon="3.27248">
        <ele>361.31732</ele>
        <time>2020-03-15T10:13:40Z</time>
      </trkpt>
      <trkpt lat="45.81295" lon="3.27239">
        <ele>361.35715</ele>
        <time>2020-03-15T10:13:42Z</time>
      </trkpt>
      <trkpt lat="45.81287" lon="3.27229">
        <ele>361.13474</ele>
        <time>2020-03-15T10:13:44Z</time>
      </trkpt>
      <trkpt lat="45.8128" lon="3.27218">
        <ele>361.0302</ele>
        <time>2020-03-15T10:13:46Z</time>
      </trkpt>
      <trkpt lat="45.81274" lon="3.27207">
        <ele>360.77478</ele>
        <time>2020-03-15T10:13:48Z</time>
      </trkpt>
      <trkpt lat="45.81268" lon="3.27196">
        <ele>360.464</ele>
        <time>2020-03-15T10:13:50Z</time>
      </trkpt>
      <trkpt lat="45.81261" lon="3.27184">
        <ele>359.81155</ele>
        <time>2020-03-15T10:13:52Z</time>
      </trkpt>
      <trkpt lat="45.81252" lon="3.27171">
        <ele>359.645</ele>
        <time>2020-03-15T10:13:54Z</time>
      </trkpt>
      <trkpt lat="45.81242" lon="3.27155">
        <ele>359.47687</ele>
        <time>2020-03-15T10:13:56Z</time>
      </trkpt>
      <trkpt lat="45.8123" lon="3.2714">
        <ele>359.3495</ele>
        <time>2020-03-15T10:13:58Z</time>
      </trkpt>
      <trkpt lat="45.81218" lon="3.27123">
        <ele>358.4973</ele>
        <time>2020-03-15T10:14:00Z</time>
      </trkpt>
      <trkpt lat="45.81208" lon="3.27106">
        <ele>357.9754</ele>
        <time>2020-03-15T10:14:02Z</time>
      </trkpt>
      <trkpt lat="45.812" lon="3.27089">
        <ele>357.6053</ele>
        <time>2020-03-15T10:14:04Z</time>
      </trkpt>
      <trkpt lat="45.81191" lon="3.27074">
        <ele>357.393</ele>
        <time>2020-03-15T10:14:06Z</time>
      </trkpt>
      <trkpt lat="45.81183" lon="3.2706">
        <ele>357.1376</ele>
        <time>2020-03-15T10:14:08Z</time>
      </trkpt>
      <trkpt lat="45.81174" lon="3.27049">
        <ele>357.1373</ele>
        <time>2020-03-15T10:14:10Z</time>
      </trkpt>
      <trkpt lat="45.81163" lon="3.27049">
        <ele>356.52814</ele>
        <time>2020-03-15T10:14:12Z</time>
      </trkpt>
      <trkpt lat="45.81154" lon="3.27053">
        <ele>356.06216</ele>
        <time>2020-03-15T10:14:14Z</time>
      </trkpt>
      <trkpt lat="45.8114" lon="3.27055">
        <ele>354.4787</ele>
        <time>2020-03-15T10:14:17Z</time>
      </trkpt>
      <trkpt lat="45.81126" lon="3.27055">
        <ele>353.5982</ele>
        <time>2020-03-15T10:14:20Z</time>
      </trkpt>
      <trkpt lat="45.81114" lon="3.27054">
        <ele>353.1016</ele>
        <time>2020-03-15T10:14:23Z</time>
      </trkpt>
      <trkpt lat="45.81105" lon="3.27057">
        <ele>352.81204</ele>
        <time>2020-03-15T10:14:26Z</time>
      </trkpt>
      <trkpt lat="45.81105" lon="3.27071">
        <ele>352.73758</ele>
        <time>2020-03-15T10:14:29Z</time>
      </trkpt>
      <trkpt lat="45.81106" lon="3.27085">
        <ele>352.8875</ele>
        <time>2020-03-15T10:14:32Z</time>
      </trkpt>
      <trkpt lat="45.81105" lon="3.27102">
        <ele>353.18372</ele>
        <time>2020-03-15T10:14:35Z</time>
      </trkpt>
      <trkpt lat="45.81106" lon="3.27118">
        <ele>353.14648</ele>
        <time>2020-03-15T10:14:38Z</time>
      </trkpt>
      <trkpt lat="45.81106" lon="3.27136">
        <ele>353.20767</ele>
        <time>2020-03-15T10:14:41Z</time>
      </trkpt>
      <trkpt lat="45.81106" lon="3.27152">
        <ele>353.36502</ele>
        <time>2020-03-15T10:14:44Z</time>
      </trkpt>
      <trkpt lat="45.81107" lon="3.27169">
        <ele>353.83994</ele>
        <time>2020-03-15T10:14:47Z</time>
      </trkpt>
      <trkpt lat="45.81107" lon="3.27186">
        <ele>353.83994</ele>
        <time>2020-03-15T10:14:50Z</time>
      </trkpt>
      <trkpt lat="45.81106" lon="3.27199">
        <ele>355.01227</ele>
        <time>2020-03-15T10:14:52Z</time>
      </trkpt>
      <trkpt lat="45.81106" lon="3.27217">
        <ele>355.88174</ele>
        <time>2020-03-15T10:14:55Z</time>
      </trkpt>
      <trkpt lat="45.81105" lon="3.27234">
        <ele>356.44928</ele>
        <time>2020-03-15T10:14:58Z</time>
      </trkpt>
      <trkpt lat="45.81099" lon="3.27247">
        <ele>357.1132</ele>
        <time>2020-03-15T10:15:01Z</time>
      </trkpt>
      <trkpt lat="45.81091" lon="3.27252">
        <ele>357.13657</ele>
        <time>2020-03-15T10:15:03Z</time>
      </trkpt>
      <trkpt lat="45.81081" lon="3.27256">
        <ele>357.6519</ele>
        <time>2020-03-15T10:15:05Z</time>
      </trkpt>
      <trkpt lat="45.81068" lon="3.2726">
        <ele>358.23352</ele>
        <time>2020-03-15T10:15:08Z</time>
      </trkpt>
      <trkpt lat="45.8106" lon="3.27264">
        <ele>358.66516</ele>
        <time>2020-03-15T10:15:10Z</time>
      </trkpt>
      <trkpt lat="45.81051" lon="3.27267">
        <ele>358.8085</ele>
        <time>2020-03-15T10:15:12Z</time>
      </trkpt>
      <trkpt lat="45.81038" lon="3.27271">
        <ele>359.18927</ele>
        <time>2020-03-15T10:15:15Z</time>
      </trkpt>
      <trkpt lat="45.8103" lon="3.27275">
        <ele>359.71143</ele>
        <time>2020-03-15T10:15:17Z</time>
      </trkpt>
      <trkpt lat="45.81017" lon="3.2728">
        <ele>359.7982</ele>
        <time>2020-03-15T10:15:20Z</time>
      </trkpt>
      <trkpt lat="45.81004" lon="3.27282">
        <ele>359.53076</ele>
        <time>2020-03-15T10:15:23Z</time>
      </trkpt>
      <trkpt lat="45.80992" lon="3.27285">
        <ele>358.9897</ele>
        <time>2020-03-15T10:15:26Z</time>
      </trkpt>
      <trkpt lat="45.80982" lon="3.27291">
        <ele>358.7665</ele>
        <time>2020-03-15T10:15:29Z</time>
      </trkpt>
      <trkpt lat="45.8097" lon="3.27296">
        <ele>358.62546</ele>
        <time>2020-03-15T10:15:32Z</time>
      </trkpt>
      <trkpt lat="45.80959" lon="3.27302">
        <ele>358.27444</ele>
        <time>2020-03-15T10:15:35Z</time>
      </trkpt>
      <trkpt lat="45.80947" lon="3.27308">
        <ele>358.38446</ele>
        <time>2020-03-15T10:15:38Z</time>
      </trkpt>
      <trkpt lat="45.80935" lon="3.27314">
        <ele>358.4006</ele>
        <time>2020-03-15T10:15:41Z</time>
      </trkpt>
      <trkpt lat="45.80924" lon="3.27321">
        <ele>357.9566</ele>
        <time>2020-03-15T10:15:44Z</time>
      </trkpt>
      <trkpt lat="45.80913" lon="3.27329">
        <ele>358.08902</ele>
        <time>2020-03-15T10:15:47Z</time>
      </trkpt>
      <trkpt lat="45.80903" lon="3.27336">
        <ele>358.08902</ele>
        <time>2020-03-15T10:15:50Z</time>
      </trkpt>
      <trkpt lat="45.80892" lon="3.27344">
        <ele>358.83527</ele>
        <time>2020-03-15T10:15:53Z</time>
      </trkpt>
      <trkpt lat="45.80881" lon="3.27352">
        <ele>359.0414</ele>
        <time>2020-03-15T10:15:56Z</time>
      </trkpt>
      <trkpt lat="45.8087" lon="3.27359">
        <ele>358.7091</ele>
        <time>2020-03-15T10:15:59Z</time>
      </trkpt>
      <trkpt lat="45.80859" lon="3.27365">
        <ele>358.17606</ele>
        <time>2020-03-15T10:16:02Z</time>
      </trkpt>
      <trkpt lat="45.80848" lon="3.27372">
        <ele>357.37894</ele>
        <time>2020-03-15T10:16:05Z</time>
      </trkpt>
      <trkpt lat="45.80838" lon="3.27377">
        <ele>356.9277</ele>
        <time>2020-03-15T10:16:08Z</time>
      </trkpt>
      <trkpt lat="45.80827" lon="3.27383">
        <ele>357.39365</ele>
        <time>2020-03-15T10:16:11Z</time>
      </trkpt>
      <trkpt lat="45.80814" lon="3.27389">
        <ele>358.29483</ele>
        <time>2020-03-15T10:16:14Z</time>
      </trkpt>
      <trkpt lat="45.80802" lon="3.27395">
        <ele>358.6064</ele>
        <time>2020-03-15T10:16:17Z</time>
      </trkpt>
      <trkpt lat="45.8079" lon="3.27401">
        <ele>358.52695</ele>
        <time>2020-03-15T10:16:20Z</time>
      </trkpt>
      <trkpt lat="45.80778" lon="3.27409">
        <ele>358.62885</ele>
        <time>2020-03-15T10:16:23Z</time>
      </trkpt>
      <trkpt lat="45.80766" lon="3.27416">
        <ele>358.45712</ele>
        <time>2020-03-15T10:16:26Z</time>
      </trkpt>
      <trkpt lat="45.80754" lon="3.27425">
        <ele>358.69803</ele>
        <time>2020-03-15T10:16:29Z</time>
      </trkpt>
      <trkpt lat="45.80742" lon="3.27434">
        <ele>359.02847</ele>
        <time>2020-03-15T10:16:32Z</time>
      </trkpt>
      <trkpt lat="45.80734" lon="3.2744">
        <ele>359.03003</ele>
        <time>2020-03-15T10:16:34Z</time>
      </trkpt>
      <trkpt lat="45.80725" lon="3.27446">
        <ele>359.3936</ele>
        <time>2020-03-15T10:16:36Z</time>
      </trkpt>
      <trkpt lat="45.80717" lon="3.27451">
        <ele>359.7873</ele>
        <time>2020-03-15T10:16:38Z</time>
      </trkpt>
      <trkpt lat="45.80708" lon="3.27456">
        <ele>359.95566</ele>
        <time>2020-03-15T10:16:40Z</time>
      </trkpt>
      <trkpt lat="45.80697" lon="3.27463">
        <ele>359.44986</ele>
        <time>2020-03-15T10:16:43Z</time>
      </trkpt>
      <trkpt lat="45.80685" lon="3.27468">
        <ele>359.61182</ele>
        <time>2020-03-15T10:16:46Z</time>
      </trkpt>
      <trkpt lat="45.80672" lon="3.2747">
        <ele>359.5824</ele>
        <time>2020-03-15T10:16:49Z</time>
      </trkpt>
      <trkpt lat="45.80659" lon="3.27473">
        <ele>359.08136</ele>
        <time>2020-03-15T10:16:53Z</time>
      </trkpt>
      <trkpt lat="45.80652" lon="3.27461">
        <ele>358.7839</ele>
        <time>2020-03-15T10:16:57Z</time>
      </trkpt>
      <trkpt lat="45.80653" lon="3.27443">
        <ele>359.04297</ele>
        <time>2020-03-15T10:17:00Z</time>
      </trkpt>
      <trkpt lat="45.80652" lon="3.27425">
        <ele>359.1162</ele>
        <time>2020-03-15T10:17:03Z</time>
      </trkpt>
      <trkpt lat="45.8065" lon="3.27408">
        <ele>358.67737</ele>
        <time>2020-03-15T10:17:06Z</time>
      </trkpt>
      <trkpt lat="45.80646" lon="3.27393">
        <ele>358.14932</ele>
        <time>2020-03-15T10:17:09Z</time>
      </trkpt>
      <trkpt lat="45.80642" lon="3.27379">
        <ele>357.7433</ele>
        <time>2020-03-15T10:17:12Z</time>
      </trkpt>
      <trkpt lat="45.80636" lon="3.27367">
        <ele>356.49854</ele>
        <time>2020-03-15T10:17:15Z</time>
      </trkpt>
      <trkpt lat="45.8063" lon="3.27352">
        <ele>355.87604</ele>
        <time>2020-03-15T10:17:18Z</time>
      </trkpt>
      <trkpt lat="45.80625" lon="3.27338">
        <ele>355.96146</ele>
        <time>2020-03-15T10:17:21Z</time>
      </trkpt>
      <trkpt lat="45.8062" lon="3.27327">
        <ele>356.45578</ele>
        <time>2020-03-15T10:17:24Z</time>
      </trkpt>
      <trkpt lat="45.80619" lon="3.27324">
        <ele>356.26498</ele>
        <time>2020-03-15T10:17:29Z</time>
      </trkpt>
      <trkpt lat="45.80619" lon="3.27324">
        <ele>356.26498</ele>
        <time>2020-03-15T10:17:29Z</time>
      </trkpt>
      <trkpt lat="45.80597" lon="3.27283">
        <ele>354.46674</ele>
        <time>2020-03-15T10:18:23Z</time>
      </trkpt>
      <trkpt lat="45.80588" lon="3.2727">
        <ele>354.50064</ele>
        <time>2020-03-15T10:18:26Z</time>
      </trkpt>
      <trkpt lat="45.8058" lon="3.27259">
        <ele>354.56552</ele>
        <time>2020-03-15T10:18:29Z</time>
      </trkpt>
      <trkpt lat="45.80572" lon="3.27247">
        <ele>354.71564</ele>
        <time>2020-03-15T10:18:32Z</time>
      </trkpt>
      <trkpt lat="45.80563" lon="3.27236">
        <ele>354.7533</ele>
        <time>2020-03-15T10:18:35Z</time>
      </trkpt>
      <trkpt lat="45.80554" lon="3.27226">
        <ele>355.24036</ele>
        <time>2020-03-15T10:18:38Z</time>
      </trkpt>
      <trkpt lat="45.80545" lon="3.27217">
        <ele>355.72137</ele>
        <time>2020-03-15T10:18:41Z</time>
      </trkpt>
      <trkpt lat="45.80536" lon="3.27208">
        <ele>355.85638</ele>
        <time>2020-03-15T10:18:44Z</time>
      </trkpt>
      <trkpt lat="45.80526" lon="3.27197">
        <ele>355.7822</ele>
        <time>2020-03-15T10:18:48Z</time>
      </trkpt>
      <trkpt lat="45.80518" lon="3.27188">
        <ele>355.9898</ele>
        <time>2020-03-15T10:18:52Z</time>
      </trkpt>
      <trkpt lat="45.80506" lon="3.2719">
        <ele>355.31918</ele>
        <time>2020-03-15T10:18:56Z</time>
      </trkpt>
      <trkpt lat="45.80496" lon="3.2719">
        <ele>355.2701</ele>
        <time>2020-03-15T10:18:58Z</time>
      </trkpt>
      <trkpt lat="45.80485" lon="3.27188">
        <ele>355.22513</ele>
        <time>2020-03-15T10:19:00Z</time>
      </trkpt>
      <trkpt lat="45.80472" lon="3.27188">
        <ele>355.12128</ele>
        <time>2020-03-15T10:19:02Z</time>
      </trkpt>
      <trkpt lat="45.8046" lon="3.27187">
        <ele>355.45874</ele>
        <time>2020-03-15T10:19:04Z</time>
      </trkpt>
      <trkpt lat="45.80448" lon="3.27188">
        <ele>355.75253</ele>
        <time>2020-03-15T10:19:06Z</time>
      </trkpt>
      <trkpt lat="45.80438" lon="3.27188">
        <ele>355.92307</ele>
        <time>2020-03-15T10:19:08Z</time>
      </trkpt>
      <trkpt lat="45.80428" lon="3.2719">
        <ele>355.83365</ele>
        <time>2020-03-15T10:19:10Z</time>
      </trkpt>
      <trkpt lat="45.80416" lon="3.27192">
        <ele>355.77054</ele>
        <time>2020-03-15T10:19:13Z</time>
      </trkpt>
      <trkpt lat="45.80407" lon="3.27194">
        <ele>355.66504</ele>
        <time>2020-03-15T10:19:15Z</time>
      </trkpt>
      <trkpt lat="45.80397" lon="3.27196">
        <ele>355.55215</ele>
        <time>2020-03-15T10:19:17Z</time>
      </trkpt>
      <trkpt lat="45.80388" lon="3.272">
        <ele>355.59375</ele>
        <time>2020-03-15T10:19:19Z</time>
      </trkpt>
      <trkpt lat="45.80379" lon="3.27203">
        <ele>355.77313</ele>
        <time>2020-03-15T10:19:21Z</time>
      </trkpt>
      <trkpt lat="45.8037" lon="3.27207">
        <ele>355.83295</ele>
        <time>2020-03-15T10:19:23Z</time>
      </trkpt>
      <trkpt lat="45.80358" lon="3.27215">
        <ele>356.49768</ele>
        <time>2020-03-15T10:19:26Z</time>
      </trkpt>
      <trkpt lat="45.80345" lon="3.27222">
        <ele>356.9235</ele>
        <time>2020-03-15T10:19:29Z</time>
      </trkpt>
      <trkpt lat="45.80336" lon="3.27226">
        <ele>357.31393</ele>
        <time>2020-03-15T10:19:31Z</time>
      </trkpt>
      <trkpt lat="45.80328" lon="3.27232">
        <ele>357.73538</ele>
        <time>2020-03-15T10:19:33Z</time>
      </trkpt>
      <trkpt lat="45.8032" lon="3.27237">
        <ele>357.5298</ele>
        <time>2020-03-15T10:19:35Z</time>
      </trkpt>
      <trkpt lat="45.80311" lon="3.27242">
        <ele>357.5099</ele>
        <time>2020-03-15T10:19:37Z</time>
      </trkpt>
      <trkpt lat="45.80299" lon="3.27249">
        <ele>357.69867</ele>
        <time>2020-03-15T10:19:40Z</time>
      </trkpt>
      <trkpt lat="45.80286" lon="3.27255">
        <ele>357.35242</ele>
        <time>2020-03-15T10:19:43Z</time>
      </trkpt>
      <trkpt lat="45.80273" lon="3.2726">
        <ele>357.2028</ele>
        <time>2020-03-15T10:19:46Z</time>
      </trkpt>
      <trkpt lat="45.80261" lon="3.27264">
        <ele>357.55835</ele>
        <time>2020-03-15T10:19:49Z</time>
      </trkpt>
      <trkpt lat="45.80249" lon="3.27268">
        <ele>358.08603</ele>
        <time>2020-03-15T10:19:52Z</time>
      </trkpt>
      <trkpt lat="45.80236" lon="3.27276">
        <ele>358.51517</ele>
        <time>2020-03-15T10:19:55Z</time>
      </trkpt>
      <trkpt lat="45.80228" lon="3.27282">
        <ele>358.3766</ele>
        <time>2020-03-15T10:19:57Z</time>
      </trkpt>
      <trkpt lat="45.8022" lon="3.27289">
        <ele>358.40366</ele>
        <time>2020-03-15T10:19:59Z</time>
      </trkpt>
      <trkpt lat="45.80212" lon="3.27296">
        <ele>358.57147</ele>
        <time>2020-03-15T10:20:01Z</time>
      </trkpt>
      <trkpt lat="45.80201" lon="3.27306">
        <ele>358.72934</ele>
        <time>2020-03-15T10:20:04Z</time>
      </trkpt>
      <trkpt lat="45.80193" lon="3.27313">
        <ele>358.67697</ele>
        <time>2020-03-15T10:20:06Z</time>
      </trkpt>
      <trkpt lat="45.80185" lon="3.27319">
        <ele>358.3952</ele>
        <time>2020-03-15T10:20:08Z</time>
      </trkpt>
      <trkpt lat="45.80175" lon="3.2733">
        <ele>357.79184</ele>
        <time>2020-03-15T10:20:11Z</time>
      </trkpt>
      <trkpt lat="45.80166" lon="3.27342">
        <ele>357.03616</ele>
        <time>2020-03-15T10:20:14Z</time>
      </trkpt>
      <trkpt lat="45.80158" lon="3.27355">
        <ele>356.40176</ele>
        <time>2020-03-15T10:20:17Z</time>
      </trkpt>
      <trkpt lat="45.8015" lon="3.27367">
        <ele>356.39035</ele>
        <time>2020-03-15T10:20:20Z</time>
      </trkpt>
      <trkpt lat="45.80138" lon="3.27373">
        <ele>356.67532</ele>
        <time>2020-03-15T10:20:23Z</time>
      </trkpt>
      <trkpt lat="45.80125" lon="3.27378">
        <ele>356.7243</ele>
        <time>2020-03-15T10:20:26Z</time>
      </trkpt>
      <trkpt lat="45.80117" lon="3.27382">
        <ele>357.12726</ele>
        <time>2020-03-15T10:20:28Z</time>
      </trkpt>
      <trkpt lat="45.80105" lon="3.27387">
        <ele>356.94406</ele>
        <time>2020-03-15T10:20:31Z</time>
      </trkpt>
      <trkpt lat="45.80092" lon="3.27391">
        <ele>356.29962</ele>
        <time>2020-03-15T10:20:34Z</time>
      </trkpt>
      <trkpt lat="45.8008" lon="3.27397">
        <ele>355.3312</ele>
        <time>2020-03-15T10:20:37Z</time>
      </trkpt>
      <trkpt lat="45.80067" lon="3.274">
        <ele>354.966</ele>
        <time>2020-03-15T10:20:40Z</time>
      </trkpt>
      <trkpt lat="45.80059" lon="3.27406">
        <ele>355.03207</ele>
        <time>2020-03-15T10:20:43Z</time>
      </trkpt>
      <trkpt lat="45.80061" lon="3.27419">
        <ele>355.67917</ele>
        <time>2020-03-15T10:20:47Z</time>
      </trkpt>
      <trkpt lat="45.80061" lon="3.27434">
        <ele>355.27975</ele>
        <time>2020-03-15T10:20:51Z</time>
      </trkpt>
      <trkpt lat="45.80061" lon="3.2745">
        <ele>355.86023</ele>
        <time>2020-03-15T10:20:54Z</time>
      </trkpt>
      <trkpt lat="45.80051" lon="3.2746">
        <ele>355.703</ele>
        <time>2020-03-15T10:20:57Z</time>
      </trkpt>
      <trkpt lat="45.80042" lon="3.27461">
        <ele>355.4279</ele>
        <time>2020-03-15T10:20:59Z</time>
      </trkpt>
      <trkpt lat="45.80032" lon="3.2746">
        <ele>355.37897</ele>
        <time>2020-03-15T10:21:01Z</time>
      </trkpt>
      <trkpt lat="45.80023" lon="3.27459">
        <ele>355.13528</ele>
        <time>2020-03-15T10:21:03Z</time>
      </trkpt>
      <trkpt lat="45.8001" lon="3.27462">
        <ele>354.49664</ele>
        <time>2020-03-15T10:21:06Z</time>
      </trkpt>
      <trkpt lat="45.79997" lon="3.27462">
        <ele>354.0343</ele>
        <time>2020-03-15T10:21:09Z</time>
      </trkpt>
      <trkpt lat="45.79986" lon="3.27461">
        <ele>353.7709</ele>
        <time>2020-03-15T10:21:12Z</time>
      </trkpt>
      <trkpt lat="45.79978" lon="3.27467">
        <ele>353.68027</ele>
        <time>2020-03-15T10:21:18Z</time>
      </trkpt>
      <trkpt lat="45.79973" lon="3.27478">
        <ele>352.9752</ele>
        <time>2020-03-15T10:21:21Z</time>
      </trkpt>
      <trkpt lat="45.79968" lon="3.2749">
        <ele>352.91653</ele>
        <time>2020-03-15T10:21:24Z</time>
      </trkpt>
      <trkpt lat="45.79963" lon="3.27509">
        <ele>353.01068</ele>
        <time>2020-03-15T10:21:27Z</time>
      </trkpt>
      <trkpt lat="45.79958" lon="3.27521">
        <ele>353.0285</ele>
        <time>2020-03-15T10:21:29Z</time>
      </trkpt>
      <trkpt lat="45.79954" lon="3.27538">
        <ele>352.45917</ele>
        <time>2020-03-15T10:21:32Z</time>
      </trkpt>
      <trkpt lat="45.79949" lon="3.27553">
        <ele>351.9565</ele>
        <time>2020-03-15T10:21:35Z</time>
      </trkpt>
      <trkpt lat="45.79944" lon="3.27569">
        <ele>351.9067</ele>
        <time>2020-03-15T10:21:38Z</time>
      </trkpt>
      <trkpt lat="45.79939" lon="3.27586">
        <ele>351.739</ele>
        <time>2020-03-15T10:21:41Z</time>
      </trkpt>
      <trkpt lat="45.79934" lon="3.27603">
        <ele>351.1696</ele>
        <time>2020-03-15T10:21:44Z</time>
      </trkpt>
      <trkpt lat="45.79928" lon="3.27619">
        <ele>350.8518</ele>
        <time>2020-03-15T10:21:47Z</time>
      </trkpt>
      <trkpt lat="45.79922" lon="3.27634">
        <ele>350.72028</ele>
        <time>2020-03-15T10:21:50Z</time>
      </trkpt>
      <trkpt lat="45.79917" lon="3.27649">
        <ele>350.6468</ele>
        <time>2020-03-15T10:21:53Z</time>
      </trkpt>
      <trkpt lat="45.79912" lon="3.27664">
        <ele>350.17435</ele>
        <time>2020-03-15T10:21:56Z</time>
      </trkpt>
      <trkpt lat="45.79907" lon="3.27679">
        <ele>349.85068</ele>
        <time>2020-03-15T10:21:59Z</time>
      </trkpt>
      <trkpt lat="45.79903" lon="3.27693">
        <ele>349.56946</ele>
        <time>2020-03-15T10:22:02Z</time>
      </trkpt>
      <trkpt lat="45.79899" lon="3.27708">
        <ele>349.74136</ele>
        <time>2020-03-15T10:22:05Z</time>
      </trkpt>
      <trkpt lat="45.79894" lon="3.27724">
        <ele>350.12073</ele>
        <time>2020-03-15T10:22:08Z</time>
      </trkpt>
      <trkpt lat="45.79889" lon="3.2774">
        <ele>350.41522</ele>
        <time>2020-03-15T10:22:11Z</time>
      </trkpt>
      <trkpt lat="45.79884" lon="3.27757">
        <ele>351.1168</ele>
        <time>2020-03-15T10:22:14Z</time>
      </trkpt>
      <trkpt lat="45.79879" lon="3.27773">
        <ele>351.22968</ele>
        <time>2020-03-15T10:22:17Z</time>
      </trkpt>
      <trkpt lat="45.79874" lon="3.27789">
        <ele>351.2167</ele>
        <time>2020-03-15T10:22:20Z</time>
      </trkpt>
      <trkpt lat="45.79868" lon="3.27803">
        <ele>350.90256</ele>
        <time>2020-03-15T10:22:23Z</time>
      </trkpt>
      <trkpt lat="45.79863" lon="3.27818">
        <ele>350.61032</ele>
        <time>2020-03-15T10:22:26Z</time>
      </trkpt>
      <trkpt lat="45.79858" lon="3.27834">
        <ele>350.79294</ele>
        <time>2020-03-15T10:22:29Z</time>
      </trkpt>
      <trkpt lat="45.79853" lon="3.2785">
        <ele>351.25754</ele>
        <time>2020-03-15T10:22:32Z</time>
      </trkpt>
      <trkpt lat="45.79847" lon="3.27866">
        <ele>351.5317</ele>
        <time>2020-03-15T10:22:35Z</time>
      </trkpt>
      <trkpt lat="45.79841" lon="3.27881">
        <ele>351.5866</ele>
        <time>2020-03-15T10:22:38Z</time>
      </trkpt>
      <trkpt lat="45.79835" lon="3.27899">
        <ele>351.22617</ele>
        <time>2020-03-15T10:22:41Z</time>
      </trkpt>
      <trkpt lat="45.79831" lon="3.27912">
        <ele>351.4122</ele>
        <time>2020-03-15T10:22:43Z</time>
      </trkpt>
      <trkpt lat="45.79828" lon="3.27924">
        <ele>351.81622</ele>
        <time>2020-03-15T10:22:45Z</time>
      </trkpt>
      <trkpt lat="45.79823" lon="3.27941">
        <ele>352.55518</ele>
        <time>2020-03-15T10:22:48Z</time>
      </trkpt>
      <trkpt lat="45.79818" lon="3.27958">
        <ele>352.76654</ele>
        <time>2020-03-15T10:22:51Z</time>
      </trkpt>
      <trkpt lat="45.79812" lon="3.27973">
        <ele>353.0182</ele>
        <time>2020-03-15T10:22:54Z</time>
      </trkpt>
      <trkpt lat="45.79807" lon="3.27991">
        <ele>353.33798</ele>
        <time>2020-03-15T10:22:57Z</time>
      </trkpt>
      <trkpt lat="45.79802" lon="3.28007">
        <ele>353.01715</ele>
        <time>2020-03-15T10:23:00Z</time>
      </trkpt>
      <trkpt lat="45.79796" lon="3.28024">
        <ele>352.86316</ele>
        <time>2020-03-15T10:23:03Z</time>
      </trkpt>
      <trkpt lat="45.79792" lon="3.28036">
        <ele>352.45364</ele>
        <time>2020-03-15T10:23:05Z</time>
      </trkpt>
      <trkpt lat="45.79787" lon="3.28047">
        <ele>352.2853</ele>
        <time>2020-03-15T10:23:07Z</time>
      </trkpt>
      <trkpt lat="45.79783" lon="3.28058">
        <ele>352.46664</ele>
        <time>2020-03-15T10:23:09Z</time>
      </trkpt>
      <trkpt lat="45.79778" lon="3.28075">
        <ele>352.25888</ele>
        <time>2020-03-15T10:23:12Z</time>
      </trkpt>
      <trkpt lat="45.79772" lon="3.28093">
        <ele>350.94293</ele>
        <time>2020-03-15T10:23:15Z</time>
      </trkpt>
      <trkpt lat="45.79767" lon="3.28111">
        <ele>352.76355</ele>
        <time>2020-03-15T10:23:18Z</time>
      </trkpt>
      <trkpt lat="45.79762" lon="3.28127">
        <ele>353.46402</ele>
        <time>2020-03-15T10:23:21Z</time>
      </trkpt>
      <trkpt lat="45.79757" lon="3.28142">
        <ele>353.94974</ele>
        <time>2020-03-15T10:23:24Z</time>
      </trkpt>
      <trkpt lat="45.79752" lon="3.28157">
        <ele>353.77246</ele>
        <time>2020-03-15T10:23:27Z</time>
      </trkpt>
      <trkpt lat="45.79748" lon="3.28171">
        <ele>353.69022</ele>
        <time>2020-03-15T10:23:30Z</time>
      </trkpt>
      <trkpt lat="45.79742" lon="3.28186">
        <ele>353.66476</ele>
        <time>2020-03-15T10:23:33Z</time>
      </trkpt>
      <trkpt lat="45.79737" lon="3.28202">
        <ele>352.91302</ele>
        <time>2020-03-15T10:23:36Z</time>
      </trkpt>
      <trkpt lat="45.79731" lon="3.28214">
        <ele>352.33786</ele>
        <time>2020-03-15T10:23:39Z</time>
      </trkpt>
      <trkpt lat="45.79729" lon="3.28227">
        <ele>352.41568</ele>
        <time>2020-03-15T10:23:42Z</time>
      </trkpt>
      <trkpt lat="45.79734" lon="3.2824">
        <ele>352.30014</ele>
        <time>2020-03-15T10:23:48Z</time>
      </trkpt>
      <trkpt lat="45.7974" lon="3.28251">
        <ele>352.18793</ele>
        <time>2020-03-15T10:23:52Z</time>
      </trkpt>
      <trkpt lat="45.7975" lon="3.28255">
        <ele>352.0977</ele>
        <time>2020-03-15T10:23:56Z</time>
      </trkpt>
      <trkpt lat="45.7976" lon="3.28256">
        <ele>351.881</ele>
        <time>2020-03-15T10:23:59Z</time>
      </trkpt>
      <trkpt lat="45.7977" lon="3.2826">
        <ele>351.68082</ele>
        <time>2020-03-15T10:24:02Z</time>
      </trkpt>
      <trkpt lat="45.79781" lon="3.28262">
        <ele>350.76926</ele>
        <time>2020-03-15T10:24:06Z</time>
      </trkpt>
      <trkpt lat="45.79792" lon="3.28265">
        <ele>351.31808</ele>
        <time>2020-03-15T10:24:10Z</time>
      </trkpt>
      <trkpt lat="45.79803" lon="3.28267">
        <ele>349.19876</ele>
        <time>2020-03-15T10:24:13Z</time>
      </trkpt>
      <trkpt lat="45.79812" lon="3.2827">
        <ele>348.50513</ele>
        <time>2020-03-15T10:24:15Z</time>
      </trkpt>
      <trkpt lat="45.79822" lon="3.28275">
        <ele>347.17645</ele>
        <time>2020-03-15T10:24:18Z</time>
      </trkpt>
      <trkpt lat="45.79829" lon="3.28286">
        <ele>347.0508</ele>
        <time>2020-03-15T10:24:22Z</time>
      </trkpt>
      <trkpt lat="45.79824" lon="3.283">
        <ele>344.6482</ele>
        <time>2020-03-15T10:24:26Z</time>
      </trkpt>
      <trkpt lat="45.79815" lon="3.28304">
        <ele>345.60602</ele>
        <time>2020-03-15T10:24:31Z</time>
      </trkpt>
      <trkpt lat="45.79807" lon="3.28314">
        <ele>346.21945</ele>
        <time>2020-03-15T10:24:35Z</time>
      </trkpt>
      <trkpt lat="45.798" lon="3.28323">
        <ele>345.969</ele>
        <time>2020-03-15T10:24:38Z</time>
      </trkpt>
      <trkpt lat="45.79793" lon="3.28334">
        <ele>344.2593</ele>
        <time>2020-03-15T10:24:42Z</time>
      </trkpt>
      <trkpt lat="45.79788" lon="3.28341">
        <ele>344.42007</ele>
        <time>2020-03-15T10:24:50Z</time>
      </trkpt>
      <trkpt lat="45.79788" lon="3.28341">
        <ele>344.42007</ele>
        <time>2020-03-15T10:24:50Z</time>
      </trkpt>
      <trkpt lat="45.79778" lon="3.28345">
        <ele>344.48523</ele>
        <time>2020-03-15T10:25:09Z</time>
      </trkpt>
      <trkpt lat="45.79771" lon="3.28353">
        <ele>345.11667</ele>
        <time>2020-03-15T10:25:13Z</time>
      </trkpt>
      <trkpt lat="45.79762" lon="3.28356">
        <ele>345.3686</ele>
        <time>2020-03-15T10:25:18Z</time>
      </trkpt>
      <trkpt lat="45.79755" lon="3.28365">
        <ele>346.08395</ele>
        <time>2020-03-15T10:25:22Z</time>
      </trkpt>
      <trkpt lat="45.79746" lon="3.28371">
        <ele>345.22412</ele>
        <time>2020-03-15T10:25:27Z</time>
      </trkpt>
      <trkpt lat="45.79741" lon="3.28383">
        <ele>350.45392</ele>
        <time>2020-03-15T10:25:34Z</time>
      </trkpt>
      <trkpt lat="45.7974" lon="3.28383">
        <ele>350.35284</ele>
        <time>2020-03-15T10:25:35Z</time>
      </trkpt>
      <trkpt lat="45.7974" lon="3.28383">
        <ele>350.35284</ele>
        <time>2020-03-15T10:25:35Z</time>
      </trkpt>
      <trkpt lat="45.79682" lon="3.28402">
        <ele>350.28357</ele>
        <time>2020-03-15T10:26:19Z</time>
      </trkpt>
      <trkpt lat="45.79674" lon="3.28413">
        <ele>346.83167</ele>
        <time>2020-03-15T10:26:26Z</time>
      </trkpt>
      <trkpt lat="45.79664" lon="3.28421">
        <ele>346.71368</ele>
        <time>2020-03-15T10:26:31Z</time>
      </trkpt>
      <trkpt lat="45.79655" lon="3.28428">
        <ele>346.13678</ele>
        <time>2020-03-15T10:26:35Z</time>
      </trkpt>
      <trkpt lat="45.79647" lon="3.28434">
        <ele>345.34006</ele>
        <time>2020-03-15T10:26:38Z</time>
      </trkpt>
      <trkpt lat="45.79637" lon="3.28436">
        <ele>344.6566</ele>
        <time>2020-03-15T10:26:42Z</time>
      </trkpt>
      <trkpt lat="45.79628" lon="3.2844">
        <ele>343.79642</ele>
        <time>2020-03-15T10:26:45Z</time>
      </trkpt>
      <trkpt lat="45.79619" lon="3.28438">
        <ele>340.92715</ele>
        <time>2020-03-15T10:26:51Z</time>
      </trkpt>
      <trkpt lat="45.79609" lon="3.2843">
        <ele>342.21243</ele>
        <time>2020-03-15T10:26:55Z</time>
      </trkpt>
      <trkpt lat="45.79599" lon="3.28435">
        <ele>343.9332</ele>
        <time>2020-03-15T10:27:00Z</time>
      </trkpt>
      <trkpt lat="45.79592" lon="3.28445">
        <ele>345.38318</ele>
        <time>2020-03-15T10:27:05Z</time>
      </trkpt>
      <trkpt lat="45.79596" lon="3.28458">
        <ele>345.44632</ele>
        <time>2020-03-15T10:27:11Z</time>
      </trkpt>
      <trkpt lat="45.79585" lon="3.28465">
        <ele>344.39087</ele>
        <time>2020-03-15T10:27:16Z</time>
      </trkpt>
      <trkpt lat="45.79575" lon="3.28463">
        <ele>349.08698</ele>
        <time>2020-03-15T10:27:20Z</time>
      </trkpt>
      <trkpt lat="45.79566" lon="3.28465">
        <ele>350.58264</ele>
        <time>2020-03-15T10:27:23Z</time>
      </trkpt>
      <trkpt lat="45.79555" lon="3.28467">
        <ele>351.33575</ele>
        <time>2020-03-15T10:27:27Z</time>
      </trkpt>
      <trkpt lat="45.79546" lon="3.28466">
        <ele>351.7106</ele>
        <time>2020-03-15T10:27:29Z</time>
      </trkpt>
      <trkpt lat="45.79535" lon="3.28464">
        <ele>351.28802</ele>
        <time>2020-03-15T10:27:34Z</time>
      </trkpt>
      <trkpt lat="45.79524" lon="3.28461">
        <ele>351.1625</ele>
        <time>2020-03-15T10:27:38Z</time>
      </trkpt>
      <trkpt lat="45.79514" lon="3.28458">
        <ele>349.24277</ele>
        <time>2020-03-15T10:27:40Z</time>
      </trkpt>
      <trkpt lat="45.79504" lon="3.28456">
        <ele>349.01328</ele>
        <time>2020-03-15T10:27:44Z</time>
      </trkpt>
      <trkpt lat="45.79493" lon="3.28455">
        <ele>350.87555</ele>
        <time>2020-03-15T10:27:46Z</time>
      </trkpt>
      <trkpt lat="45.79482" lon="3.28455">
        <ele>351.05847</ele>
        <time>2020-03-15T10:27:50Z</time>
      </trkpt>
      <trkpt lat="45.7947" lon="3.28454">
        <ele>351.01172</ele>
        <time>2020-03-15T10:27:53Z</time>
      </trkpt>
      <trkpt lat="45.79458" lon="3.28454">
        <ele>351.20505</ele>
        <time>2020-03-15T10:27:56Z</time>
      </trkpt>
      <trkpt lat="45.79442" lon="3.28454">
        <ele>351.02173</ele>
        <time>2020-03-15T10:28:00Z</time>
      </trkpt>
      <trkpt lat="45.79433" lon="3.2845">
        <ele>350.64453</ele>
        <time>2020-03-15T10:28:02Z</time>
      </trkpt>
      <trkpt lat="45.79417" lon="3.28448">
        <ele>349.984</ele>
        <time>2020-03-15T10:28:06Z</time>
      </trkpt>
      <trkpt lat="45.79407" lon="3.28451">
        <ele>350.3086</ele>
        <time>2020-03-15T10:28:09Z</time>
      </trkpt>
      <trkpt lat="45.79397" lon="3.28452">
        <ele>350.61694</ele>
        <time>2020-03-15T10:28:12Z</time>
      </trkpt>
      <trkpt lat="45.79387" lon="3.2845">
        <ele>349.68494</ele>
        <time>2020-03-15T10:28:17Z</time>
      </trkpt>
      <trkpt lat="45.79376" lon="3.28445">
        <ele>349.85928</ele>
        <time>2020-03-15T10:28:21Z</time>
      </trkpt>
      <trkpt lat="45.79366" lon="3.28439">
        <ele>348.98868</ele>
        <time>2020-03-15T10:28:25Z</time>
      </trkpt>
      <trkpt lat="45.79355" lon="3.28435">
        <ele>348.9316</ele>
        <time>2020-03-15T10:28:29Z</time>
      </trkpt>
      <trkpt lat="45.79343" lon="3.2843">
        <ele>348.80127</ele>
        <time>2020-03-15T10:28:31Z</time>
      </trkpt>
      <trkpt lat="45.79334" lon="3.28424">
        <ele>351.37732</ele>
        <time>2020-03-15T10:28:33Z</time>
      </trkpt>
      <trkpt lat="45.79327" lon="3.28414">
        <ele>350.28043</ele>
        <time>2020-03-15T10:28:36Z</time>
      </trkpt>
      <trkpt lat="45.79318" lon="3.28407">
        <ele>350.3457</ele>
        <time>2020-03-15T10:28:41Z</time>
      </trkpt>
      <trkpt lat="45.79307" lon="3.28396">
        <ele>349.15936</ele>
        <time>2020-03-15T10:28:45Z</time>
      </trkpt>
      <trkpt lat="45.79299" lon="3.28385">
        <ele>349.84164</ele>
        <time>2020-03-15T10:28:48Z</time>
      </trkpt>
      <trkpt lat="45.79293" lon="3.28373">
        <ele>349.60092</ele>
        <time>2020-03-15T10:28:52Z</time>
      </trkpt>
      <trkpt lat="45.79293" lon="3.28358">
        <ele>349.58395</ele>
        <time>2020-03-15T10:28:58Z</time>
      </trkpt>
      <trkpt lat="45.79289" lon="3.28346">
        <ele>349.30453</ele>
        <time>2020-03-15T10:29:00Z</time>
      </trkpt>
      <trkpt lat="45.79286" lon="3.28333">
        <ele>348.1403</ele>
        <time>2020-03-15T10:29:03Z</time>
      </trkpt>
      <trkpt lat="45.79275" lon="3.28316">
        <ele>347.8223</ele>
        <time>2020-03-15T10:29:08Z</time>
      </trkpt>
      <trkpt lat="45.79266" lon="3.28307">
        <ele>349.95306</ele>
        <time>2020-03-15T10:29:10Z</time>
      </trkpt>
      <trkpt lat="45.7926" lon="3.28296">
        <ele>351.5544</ele>
        <time>2020-03-15T10:29:13Z</time>
      </trkpt>
      <trkpt lat="45.79256" lon="3.28283">
        <ele>351.35626</ele>
        <time>2020-03-15T10:29:16Z</time>
      </trkpt>
      <trkpt lat="45.79257" lon="3.28267">
        <ele>351.4488</ele>
        <time>2020-03-15T10:29:20Z</time>
      </trkpt>
      <trkpt lat="45.79257" lon="3.28251">
        <ele>351.74167</ele>
        <time>2020-03-15T10:29:24Z</time>
      </trkpt>
      <trkpt lat="45.79258" lon="3.28238">
        <ele>351.95828</ele>
        <time>2020-03-15T10:29:27Z</time>
      </trkpt>
      <trkpt lat="45.79256" lon="3.28223">
        <ele>352.31744</ele>
        <time>2020-03-15T10:29:31Z</time>
      </trkpt>
      <trkpt lat="45.79258" lon="3.2821">
        <ele>351.79077</ele>
        <time>2020-03-15T10:29:36Z</time>
      </trkpt>
      <trkpt lat="45.79266" lon="3.28202">
        <ele>350.9963</ele>
        <time>2020-03-15T10:29:44Z</time>
      </trkpt>
      <trkpt lat="45.7927" lon="3.2819">
        <ele>351.02643</ele>
        <time>2020-03-15T10:29:48Z</time>
      </trkpt>
      <trkpt lat="45.79271" lon="3.28174">
        <ele>351.3891</ele>
        <time>2020-03-15T10:29:52Z</time>
      </trkpt>
      <trkpt lat="45.79272" lon="3.28157">
        <ele>351.12704</ele>
        <time>2020-03-15T10:29:56Z</time>
      </trkpt>
      <trkpt lat="45.79271" lon="3.28141">
        <ele>351.3571</ele>
        <time>2020-03-15T10:30:00Z</time>
      </trkpt>
      <trkpt lat="45.79274" lon="3.28127">
        <ele>351.7704</ele>
        <time>2020-03-15T10:30:05Z</time>
      </trkpt>
      <trkpt lat="45.79277" lon="3.28114">
        <ele>348.49347</ele>
        <time>2020-03-15T10:30:08Z</time>
      </trkpt>
      <trkpt lat="45.79279" lon="3.28098">
        <ele>347.71042</ele>
        <time>2020-03-15T10:30:13Z</time>
      </trkpt>
      <trkpt lat="45.7928" lon="3.28083">
        <ele>348.01318</ele>
        <time>2020-03-15T10:30:16Z</time>
      </trkpt>
      <trkpt lat="45.7928" lon="3.28066">
        <ele>347.48502</ele>
        <time>2020-03-15T10:30:20Z</time>
      </trkpt>
      <trkpt lat="45.79282" lon="3.28051">
        <ele>347.5974</ele>
        <time>2020-03-15T10:30:23Z</time>
      </trkpt>
      <trkpt lat="45.79285" lon="3.28036">
        <ele>347.6783</ele>
        <time>2020-03-15T10:30:26Z</time>
      </trkpt>
      <trkpt lat="45.79287" lon="3.28019">
        <ele>347.21277</ele>
        <time>2020-03-15T10:30:29Z</time>
      </trkpt>
      <trkpt lat="45.79291" lon="3.28007">
        <ele>346.5417</ele>
        <time>2020-03-15T10:30:32Z</time>
      </trkpt>
      <trkpt lat="45.79293" lon="3.27991">
        <ele>345.53665</ele>
        <time>2020-03-15T10:30:36Z</time>
      </trkpt>
      <trkpt lat="45.793" lon="3.27977">
        <ele>345.36584</ele>
        <time>2020-03-15T10:30:40Z</time>
      </trkpt>
      <trkpt lat="45.79306" lon="3.27965">
        <ele>342.9532</ele>
        <time>2020-03-15T10:30:43Z</time>
      </trkpt>
      <trkpt lat="45.79318" lon="3.27955">
        <ele>344.74252</ele>
        <time>2020-03-15T10:30:45Z</time>
      </trkpt>
      <trkpt lat="45.79328" lon="3.27947">
        <ele>346.38983</ele>
        <time>2020-03-15T10:30:49Z</time>
      </trkpt>
      <trkpt lat="45.79338" lon="3.27941">
        <ele>346.60547</ele>
        <time>2020-03-15T10:30:53Z</time>
      </trkpt>
      <trkpt lat="45.79345" lon="3.2793">
        <ele>348.068</ele>
        <time>2020-03-15T10:30:56Z</time>
      </trkpt>
      <trkpt lat="45.79353" lon="3.27922">
        <ele>350.7064</ele>
        <time>2020-03-15T10:31:02Z</time>
      </trkpt>
      <trkpt lat="45.79361" lon="3.27911">
        <ele>350.75772</ele>
        <time>2020-03-15T10:31:07Z</time>
      </trkpt>
      <trkpt lat="45.79372" lon="3.27906">
        <ele>349.47488</ele>
        <time>2020-03-15T10:31:11Z</time>
      </trkpt>
      <trkpt lat="45.79382" lon="3.27902">
        <ele>349.07394</ele>
        <time>2020-03-15T10:31:14Z</time>
      </trkpt>
      <trkpt lat="45.79392" lon="3.27897">
        <ele>348.15103</ele>
        <time>2020-03-15T10:31:17Z</time>
      </trkpt>
      <trkpt lat="45.79403" lon="3.27896">
        <ele>347.1829</ele>
        <time>2020-03-15T10:31:21Z</time>
      </trkpt>
      <trkpt lat="45.79414" lon="3.27889">
        <ele>346.0927</ele>
        <time>2020-03-15T10:31:26Z</time>
      </trkpt>
      <trkpt lat="45.79424" lon="3.27878">
        <ele>345.33264</ele>
        <time>2020-03-15T10:31:30Z</time>
      </trkpt>
      <trkpt lat="45.7943" lon="3.27862">
        <ele>345.1764</ele>
        <time>2020-03-15T10:31:34Z</time>
      </trkpt>
      <trkpt lat="45.79433" lon="3.2785">
        <ele>346.54578</ele>
        <time>2020-03-15T10:31:37Z</time>
      </trkpt>
      <trkpt lat="45.79438" lon="3.27835">
        <ele>347.68057</ele>
        <time>2020-03-15T10:31:40Z</time>
      </trkpt>
      <trkpt lat="45.79443" lon="3.27822">
        <ele>348.02255</ele>
        <time>2020-03-15T10:31:43Z</time>
      </trkpt>
      <trkpt lat="45.79448" lon="3.27807">
        <ele>347.06528</ele>
        <time>2020-03-15T10:31:46Z</time>
      </trkpt>
      <trkpt lat="45.79454" lon="3.27796">
        <ele>346.02805</ele>
        <time>2020-03-15T10:31:49Z</time>
      </trkpt>
      <trkpt lat="45.7946" lon="3.27786">
        <ele>346.16348</ele>
        <time>2020-03-15T10:31:52Z</time>
      </trkpt>
      <trkpt lat="45.79464" lon="3.27773">
        <ele>347.4217</ele>
        <time>2020-03-15T10:31:56Z</time>
      </trkpt>
      <trkpt lat="45.79468" lon="3.27761">
        <ele>349.3488</ele>
        <time>2020-03-15T10:32:01Z</time>
      </trkpt>
      <trkpt lat="45.79475" lon="3.27751">
        <ele>349.43744</ele>
        <time>2020-03-15T10:32:05Z</time>
      </trkpt>
      <trkpt lat="45.79482" lon="3.27742">
        <ele>348.15457</ele>
        <time>2020-03-15T10:32:08Z</time>
      </trkpt>
      <trkpt lat="45.7949" lon="3.27727">
        <ele>346.85272</ele>
        <time>2020-03-15T10:32:11Z</time>
      </trkpt>
      <trkpt lat="45.79497" lon="3.27713">
        <ele>346.14972</ele>
        <time>2020-03-15T10:32:14Z</time>
      </trkpt>
      <trkpt lat="45.79507" lon="3.27701">
        <ele>346.48038</ele>
        <time>2020-03-15T10:32:17Z</time>
      </trkpt>
      <trkpt lat="45.79515" lon="3.27691">
        <ele>350.76456</ele>
        <time>2020-03-15T10:32:21Z</time>
      </trkpt>
      <trkpt lat="45.7952" lon="3.2768">
        <ele>351.02646</ele>
        <time>2020-03-15T10:32:23Z</time>
      </trkpt>
      <trkpt lat="45.79526" lon="3.27665">
        <ele>351.50473</ele>
        <time>2020-03-15T10:32:26Z</time>
      </trkpt>
      <trkpt lat="45.79533" lon="3.27652">
        <ele>351.7685</ele>
        <time>2020-03-15T10:32:29Z</time>
      </trkpt>
      <trkpt lat="45.7954" lon="3.27638">
        <ele>351.322</ele>
        <time>2020-03-15T10:32:32Z</time>
      </trkpt>
      <trkpt lat="45.79548" lon="3.27623">
        <ele>350.6102</ele>
        <time>2020-03-15T10:32:35Z</time>
      </trkpt>
      <trkpt lat="45.79553" lon="3.27609">
        <ele>350.0231</ele>
        <time>2020-03-15T10:32:38Z</time>
      </trkpt>
      <trkpt lat="45.79557" lon="3.27595">
        <ele>349.37753</ele>
        <time>2020-03-15T10:32:41Z</time>
      </trkpt>
      <trkpt lat="45.79565" lon="3.2758">
        <ele>350.06732</ele>
        <time>2020-03-15T10:32:44Z</time>
      </trkpt>
      <trkpt lat="45.7957" lon="3.27568">
        <ele>350.3218</ele>
        <time>2020-03-15T10:32:46Z</time>
      </trkpt>
      <trkpt lat="45.79575" lon="3.27556">
        <ele>350.61456</ele>
        <time>2020-03-15T10:32:48Z</time>
      </trkpt>
      <trkpt lat="45.79581" lon="3.27545">
        <ele>350.8431</ele>
        <time>2020-03-15T10:32:50Z</time>
      </trkpt>
      <trkpt lat="45.79588" lon="3.27531">
        <ele>351.1667</ele>
        <time>2020-03-15T10:32:53Z</time>
      </trkpt>
      <trkpt lat="45.79596" lon="3.27517">
        <ele>350.62234</ele>
        <time>2020-03-15T10:32:56Z</time>
      </trkpt>
      <trkpt lat="45.79602" lon="3.27502">
        <ele>349.59952</ele>
        <time>2020-03-15T10:32:59Z</time>
      </trkpt>
      <trkpt lat="45.79608" lon="3.27488">
        <ele>348.87253</ele>
        <time>2020-03-15T10:33:02Z</time>
      </trkpt>
      <trkpt lat="45.79611" lon="3.27476">
        <ele>349.75522</ele>
        <time>2020-03-15T10:33:04Z</time>
      </trkpt>
      <trkpt lat="45.79617" lon="3.27459">
        <ele>349.53378</ele>
        <time>2020-03-15T10:33:07Z</time>
      </trkpt>
      <trkpt lat="45.79621" lon="3.27442">
        <ele>349.44632</ele>
        <time>2020-03-15T10:33:10Z</time>
      </trkpt>
      <trkpt lat="45.79624" lon="3.27426">
        <ele>348.4614</ele>
        <time>2020-03-15T10:33:13Z</time>
      </trkpt>
      <trkpt lat="45.79628" lon="3.27413">
        <ele>347.22137</ele>
        <time>2020-03-15T10:33:16Z</time>
      </trkpt>
      <trkpt lat="45.7963" lon="3.27398">
        <ele>346.51465</ele>
        <time>2020-03-15T10:33:20Z</time>
      </trkpt>
      <trkpt lat="45.79636" lon="3.27384">
        <ele>345.07715</ele>
        <time>2020-03-15T10:33:23Z</time>
      </trkpt>
      <trkpt lat="45.79643" lon="3.2737">
        <ele>343.49045</ele>
        <time>2020-03-15T10:33:26Z</time>
      </trkpt>
      <trkpt lat="45.79648" lon="3.27352">
        <ele>342.5665</ele>
        <time>2020-03-15T10:33:29Z</time>
      </trkpt>
      <trkpt lat="45.79652" lon="3.27338">
        <ele>342.6701</ele>
        <time>2020-03-15T10:33:31Z</time>
      </trkpt>
      <trkpt lat="45.79659" lon="3.27322">
        <ele>340.89694</ele>
        <time>2020-03-15T10:33:34Z</time>
      </trkpt>
      <trkpt lat="45.79662" lon="3.27309">
        <ele>339.1094</ele>
        <time>2020-03-15T10:33:36Z</time>
      </trkpt>
      <trkpt lat="45.79665" lon="3.27296">
        <ele>337.60046</ele>
        <time>2020-03-15T10:33:38Z</time>
      </trkpt>
      <trkpt lat="45.79669" lon="3.27284">
        <ele>336.81995</ele>
        <time>2020-03-15T10:33:40Z</time>
      </trkpt>
      <trkpt lat="45.7967" lon="3.27268">
        <ele>335.72028</ele>
        <time>2020-03-15T10:33:43Z</time>
      </trkpt>
      <trkpt lat="45.79677" lon="3.27251">
        <ele>335.4083</ele>
        <time>2020-03-15T10:33:46Z</time>
      </trkpt>
      <trkpt lat="45.79683" lon="3.27239">
        <ele>336.83148</ele>
        <time>2020-03-15T10:33:48Z</time>
      </trkpt>
      <trkpt lat="45.79689" lon="3.27226">
        <ele>335.4078</ele>
        <time>2020-03-15T10:33:51Z</time>
      </trkpt>
      <trkpt lat="45.79691" lon="3.27213">
        <ele>340.42404</ele>
        <time>2020-03-15T10:33:53Z</time>
      </trkpt>
      <trkpt lat="45.79688" lon="3.27199">
        <ele>344.0613</ele>
        <time>2020-03-15T10:33:56Z</time>
      </trkpt>
      <trkpt lat="45.79687" lon="3.27184">
        <ele>342.96088</ele>
        <time>2020-03-15T10:33:58Z</time>
      </trkpt>
      <trkpt lat="45.79686" lon="3.27171">
        <ele>343.01065</ele>
        <time>2020-03-15T10:34:00Z</time>
      </trkpt>
      <trkpt lat="45.7969" lon="3.27154">
        <ele>342.26242</ele>
        <time>2020-03-15T10:34:03Z</time>
      </trkpt>
      <trkpt lat="45.79693" lon="3.27141">
        <ele>341.4677</ele>
        <time>2020-03-15T10:34:06Z</time>
      </trkpt>
      <trkpt lat="45.79705" lon="3.27137">
        <ele>340.17847</ele>
        <time>2020-03-15T10:34:07Z</time>
      </trkpt>
      <trkpt lat="45.79713" lon="3.27129">
        <ele>341.97598</ele>
        <time>2020-03-15T10:34:10Z</time>
      </trkpt>
      <trkpt lat="45.79722" lon="3.27117">
        <ele>341.4977</ele>
        <time>2020-03-15T10:34:13Z</time>
      </trkpt>
      <trkpt lat="45.7973" lon="3.27106">
        <ele>342.14618</ele>
        <time>2020-03-15T10:34:15Z</time>
      </trkpt>
      <trkpt lat="45.79735" lon="3.27095">
        <ele>342.463</ele>
        <time>2020-03-15T10:34:17Z</time>
      </trkpt>
      <trkpt lat="45.79738" lon="3.27082">
        <ele>343.64548</ele>
        <time>2020-03-15T10:34:19Z</time>
      </trkpt>
      <trkpt lat="45.7974" lon="3.27069">
        <ele>345.06302</ele>
        <time>2020-03-15T10:34:21Z</time>
      </trkpt>
      <trkpt lat="45.79743" lon="3.27051">
        <ele>346.38434</ele>
        <time>2020-03-15T10:34:24Z</time>
      </trkpt>
      <trkpt lat="45.79746" lon="3.27038">
        <ele>347.45212</ele>
        <time>2020-03-15T10:34:26Z</time>
      </trkpt>
      <trkpt lat="45.79749" lon="3.27026">
        <ele>348.1393</ele>
        <time>2020-03-15T10:34:28Z</time>
      </trkpt>
      <trkpt lat="45.79754" lon="3.27009">
        <ele>349.12637</ele>
        <time>2020-03-15T10:34:31Z</time>
      </trkpt>
      <trkpt lat="45.79757" lon="3.26993">
        <ele>350.16052</ele>
        <time>2020-03-15T10:34:34Z</time>
      </trkpt>
      <trkpt lat="45.7976" lon="3.26974">
        <ele>350.19287</ele>
        <time>2020-03-15T10:34:37Z</time>
      </trkpt>
      <trkpt lat="45.79761" lon="3.26958">
        <ele>350.23245</ele>
        <time>2020-03-15T10:34:40Z</time>
      </trkpt>
      <trkpt lat="45.7976" lon="3.26942">
        <ele>349.93866</ele>
        <time>2020-03-15T10:34:43Z</time>
      </trkpt>
      <trkpt lat="45.79764" lon="3.26925">
        <ele>349.51337</ele>
        <time>2020-03-15T10:34:46Z</time>
      </trkpt>
      <trkpt lat="45.79772" lon="3.26915">
        <ele>349.86456</ele>
        <time>2020-03-15T10:34:49Z</time>
      </trkpt>
      <trkpt lat="45.79777" lon="3.26905">
        <ele>350.2778</ele>
        <time>2020-03-15T10:34:52Z</time>
      </trkpt>
      <trkpt lat="45.79781" lon="3.2689">
        <ele>350.04733</ele>
        <time>2020-03-15T10:34:55Z</time>
      </trkpt>
      <trkpt lat="45.79784" lon="3.26877">
        <ele>350.35995</ele>
        <time>2020-03-15T10:34:57Z</time>
      </trkpt>
      <trkpt lat="45.79786" lon="3.2686">
        <ele>350.35324</ele>
        <time>2020-03-15T10:35:00Z</time>
      </trkpt>
      <trkpt lat="45.79788" lon="3.26845">
        <ele>350.88727</ele>
        <time>2020-03-15T10:35:04Z</time>
      </trkpt>
      <trkpt lat="45.79786" lon="3.26831">
        <ele>350.36145</ele>
        <time>2020-03-15T10:35:08Z</time>
      </trkpt>
      <trkpt lat="45.79779" lon="3.26818">
        <ele>350.34412</ele>
        <time>2020-03-15T10:35:11Z</time>
      </trkpt>
      <trkpt lat="45.79777" lon="3.26802">
        <ele>350.16327</ele>
        <time>2020-03-15T10:35:14Z</time>
      </trkpt>
      <trkpt lat="45.79777" lon="3.26785">
        <ele>349.3243</ele>
        <time>2020-03-15T10:35:17Z</time>
      </trkpt>
      <trkpt lat="45.79776" lon="3.26766">
        <ele>348.55695</ele>
        <time>2020-03-15T10:35:20Z</time>
      </trkpt>
      <trkpt lat="45.79775" lon="3.26748">
        <ele>350.41403</ele>
        <time>2020-03-15T10:35:23Z</time>
      </trkpt>
      <trkpt lat="45.79774" lon="3.26731">
        <ele>350.63635</ele>
        <time>2020-03-15T10:35:26Z</time>
      </trkpt>
      <trkpt lat="45.79773" lon="3.26716">
        <ele>350.71628</ele>
        <time>2020-03-15T10:35:29Z</time>
      </trkpt>
      <trkpt lat="45.79773" lon="3.26702">
        <ele>350.7934</ele>
        <time>2020-03-15T10:35:31Z</time>
      </trkpt>
      <trkpt lat="45.79771" lon="3.26688">
        <ele>350.82477</ele>
        <time>2020-03-15T10:35:33Z</time>
      </trkpt>
      <trkpt lat="45.79771" lon="3.26674">
        <ele>350.63297</ele>
        <time>2020-03-15T10:35:35Z</time>
      </trkpt>
      <trkpt lat="45.7977" lon="3.26661">
        <ele>350.46243</ele>
        <time>2020-03-15T10:35:37Z</time>
      </trkpt>
      <trkpt lat="45.79768" lon="3.26643">
        <ele>349.87717</ele>
        <time>2020-03-15T10:35:40Z</time>
      </trkpt>
      <trkpt lat="45.79768" lon="3.26625">
        <ele>349.60117</ele>
        <time>2020-03-15T10:35:43Z</time>
      </trkpt>
      <trkpt lat="45.79766" lon="3.26609">
        <ele>349.59344</ele>
        <time>2020-03-15T10:35:46Z</time>
      </trkpt>
      <trkpt lat="45.79767" lon="3.26595">
        <ele>350.34744</ele>
        <time>2020-03-15T10:35:50Z</time>
      </trkpt>
      <trkpt lat="45.79764" lon="3.26582">
        <ele>350.7756</ele>
        <time>2020-03-15T10:35:55Z</time>
      </trkpt>
      <trkpt lat="45.79764" lon="3.26582">
        <ele>350.7756</ele>
        <time>2020-03-15T10:35:57Z</time>
      </trkpt>
      <trkpt lat="45.79764" lon="3.26582">
        <ele>350.7756</ele>
        <time>2020-03-15T10:35:57Z</time>
      </trkpt>
      <trkpt lat="45.7976" lon="3.26562">
        <ele>351.1433</ele>
        <time>2020-03-15T10:36:04Z</time>
      </trkpt>
      <trkpt lat="45.79759" lon="3.26547">
        <ele>351.56546</ele>
        <time>2020-03-15T10:36:08Z</time>
      </trkpt>
      <trkpt lat="45.79759" lon="3.26534">
        <ele>351.97443</ele>
        <time>2020-03-15T10:36:11Z</time>
      </trkpt>
      <trkpt lat="45.79758" lon="3.2652">
        <ele>351.64243</ele>
        <time>2020-03-15T10:36:14Z</time>
      </trkpt>
      <trkpt lat="45.79756" lon="3.26504">
        <ele>351.8745</ele>
        <time>2020-03-15T10:36:17Z</time>
      </trkpt>
      <trkpt lat="45.79754" lon="3.26488">
        <ele>351.83304</ele>
        <time>2020-03-15T10:36:20Z</time>
      </trkpt>
      <trkpt lat="45.79753" lon="3.26475">
        <ele>351.81003</ele>
        <time>2020-03-15T10:36:23Z</time>
      </trkpt>
      <trkpt lat="45.79752" lon="3.26462">
        <ele>351.23422</ele>
        <time>2020-03-15T10:36:26Z</time>
      </trkpt>
      <trkpt lat="45.7975" lon="3.26448">
        <ele>350.92896</ele>
        <time>2020-03-15T10:36:29Z</time>
      </trkpt>
      <trkpt lat="45.79748" lon="3.26433">
        <ele>349.67172</ele>
        <time>2020-03-15T10:36:32Z</time>
      </trkpt>
      <trkpt lat="45.79746" lon="3.26417">
        <ele>349.14093</ele>
        <time>2020-03-15T10:36:35Z</time>
      </trkpt>
      <trkpt lat="45.79745" lon="3.26403">
        <ele>347.94162</ele>
        <time>2020-03-15T10:36:38Z</time>
      </trkpt>
      <trkpt lat="45.79746" lon="3.26389">
        <ele>347.89096</ele>
        <time>2020-03-15T10:36:41Z</time>
      </trkpt>
      <trkpt lat="45.79749" lon="3.26375">
        <ele>347.42618</ele>
        <time>2020-03-15T10:36:44Z</time>
      </trkpt>
      <trkpt lat="45.7975" lon="3.26361">
        <ele>347.46707</ele>
        <time>2020-03-15T10:36:47Z</time>
      </trkpt>
      <trkpt lat="45.79754" lon="3.26345">
        <ele>348.922</ele>
        <time>2020-03-15T10:36:48Z</time>
      </trkpt>
      <trkpt lat="45.79755" lon="3.26331">
        <ele>349.11298</ele>
        <time>2020-03-15T10:36:51Z</time>
      </trkpt>
      <trkpt lat="45.79755" lon="3.26316">
        <ele>348.9998</ele>
        <time>2020-03-15T10:36:54Z</time>
      </trkpt>
      <trkpt lat="45.79754" lon="3.263">
        <ele>348.5058</ele>
        <time>2020-03-15T10:36:57Z</time>
      </trkpt>
      <trkpt lat="45.79752" lon="3.26284">
        <ele>348.95786</ele>
        <time>2020-03-15T10:37:00Z</time>
      </trkpt>
      <trkpt lat="45.79748" lon="3.26268">
        <ele>349.2513</ele>
        <time>2020-03-15T10:37:03Z</time>
      </trkpt>
      <trkpt lat="45.79745" lon="3.26251">
        <ele>349.3085</ele>
        <time>2020-03-15T10:37:06Z</time>
      </trkpt>
      <trkpt lat="45.79742" lon="3.26235">
        <ele>349.57037</ele>
        <time>2020-03-15T10:37:09Z</time>
      </trkpt>
      <trkpt lat="45.79739" lon="3.26217">
        <ele>349.90985</ele>
        <time>2020-03-15T10:37:12Z</time>
      </trkpt>
      <trkpt lat="45.79736" lon="3.262">
        <ele>350.18436</ele>
        <time>2020-03-15T10:37:15Z</time>
      </trkpt>
      <trkpt lat="45.79734" lon="3.26181">
        <ele>349.75473</ele>
        <time>2020-03-15T10:37:18Z</time>
      </trkpt>
      <trkpt lat="45.79733" lon="3.26168">
        <ele>349.52704</ele>
        <time>2020-03-15T10:37:20Z</time>
      </trkpt>
      <trkpt lat="45.79731" lon="3.26155">
        <ele>349.47574</ele>
        <time>2020-03-15T10:37:22Z</time>
      </trkpt>
      <trkpt lat="45.79728" lon="3.26142">
        <ele>349.5036</ele>
        <time>2020-03-15T10:37:24Z</time>
      </trkpt>
      <trkpt lat="45.79727" lon="3.26125">
        <ele>349.59796</ele>
        <time>2020-03-15T10:37:27Z</time>
      </trkpt>
      <trkpt lat="45.79726" lon="3.26107">
        <ele>349.54956</ele>
        <time>2020-03-15T10:37:30Z</time>
      </trkpt>
      <trkpt lat="45.79727" lon="3.26088">
        <ele>349.16995</ele>
        <time>2020-03-15T10:37:33Z</time>
      </trkpt>
      <trkpt lat="45.79727" lon="3.26069">
        <ele>349.5034</ele>
        <time>2020-03-15T10:37:36Z</time>
      </trkpt>
      <trkpt lat="45.79725" lon="3.26049">
        <ele>349.0777</ele>
        <time>2020-03-15T10:37:39Z</time>
      </trkpt>
      <trkpt lat="45.79724" lon="3.26036">
        <ele>348.8597</ele>
        <time>2020-03-15T10:37:41Z</time>
      </trkpt>
      <trkpt lat="45.79723" lon="3.26021">
        <ele>348.8148</ele>
        <time>2020-03-15T10:37:43Z</time>
      </trkpt>
      <trkpt lat="45.79721" lon="3.26007">
        <ele>349.34732</ele>
        <time>2020-03-15T10:37:45Z</time>
      </trkpt>
      <trkpt lat="45.79719" lon="3.25992">
        <ele>349.5729</ele>
        <time>2020-03-15T10:37:47Z</time>
      </trkpt>
      <trkpt lat="45.79718" lon="3.25977">
        <ele>350.00876</ele>
        <time>2020-03-15T10:37:49Z</time>
      </trkpt>
      <trkpt lat="45.79716" lon="3.25961">
        <ele>350.1875</ele>
        <time>2020-03-15T10:37:51Z</time>
      </trkpt>
      <trkpt lat="45.79715" lon="3.25944">
        <ele>350.7208</ele>
        <time>2020-03-15T10:37:53Z</time>
      </trkpt>
      <trkpt lat="45.79714" lon="3.25928">
        <ele>351.49283</ele>
        <time>2020-03-15T10:37:55Z</time>
      </trkpt>
      <trkpt lat="45.79712" lon="3.25912">
        <ele>351.8528</ele>
        <time>2020-03-15T10:37:57Z</time>
      </trkpt>
      <trkpt lat="45.79711" lon="3.25897">
        <ele>352.26956</ele>
        <time>2020-03-15T10:37:59Z</time>
      </trkpt>
      <trkpt lat="45.79711" lon="3.25883">
        <ele>352.39752</ele>
        <time>2020-03-15T10:38:01Z</time>
      </trkpt>
      <trkpt lat="45.79713" lon="3.25865">
        <ele>352.93896</ele>
        <time>2020-03-15T10:38:04Z</time>
      </trkpt>
      <trkpt lat="45.79714" lon="3.25848">
        <ele>353.4143</ele>
        <time>2020-03-15T10:38:07Z</time>
      </trkpt>
      <trkpt lat="45.79717" lon="3.25831">
        <ele>352.76556</ele>
        <time>2020-03-15T10:38:09Z</time>
      </trkpt>
      <trkpt lat="45.79721" lon="3.25814">
        <ele>352.6881</ele>
        <time>2020-03-15T10:38:11Z</time>
      </trkpt>
      <trkpt lat="45.79722" lon="3.25798">
        <ele>353.26175</ele>
        <time>2020-03-15T10:38:13Z</time>
      </trkpt>
      <trkpt lat="45.79721" lon="3.25785">
        <ele>354.2075</ele>
        <time>2020-03-15T10:38:15Z</time>
      </trkpt>
      <trkpt lat="45.7972" lon="3.25772">
        <ele>354.83575</ele>
        <time>2020-03-15T10:38:18Z</time>
      </trkpt>
      <trkpt lat="45.7972" lon="3.25759">
        <ele>355.83813</ele>
        <time>2020-03-15T10:38:21Z</time>
      </trkpt>
      <trkpt lat="45.79724" lon="3.25747">
        <ele>356.5452</ele>
        <time>2020-03-15T10:38:25Z</time>
      </trkpt>
      <trkpt lat="45.79727" lon="3.25732">
        <ele>357.18478</ele>
        <time>2020-03-15T10:38:29Z</time>
      </trkpt>
      <trkpt lat="45.79728" lon="3.25719">
        <ele>357.4839</ele>
        <time>2020-03-15T10:38:32Z</time>
      </trkpt>
      <trkpt lat="45.79726" lon="3.25706">
        <ele>358.23483</ele>
        <time>2020-03-15T10:38:35Z</time>
      </trkpt>
      <trkpt lat="45.79725" lon="3.25692">
        <ele>358.8337</ele>
        <time>2020-03-15T10:38:38Z</time>
      </trkpt>
      <trkpt lat="45.79725" lon="3.25676">
        <ele>359.8448</ele>
        <time>2020-03-15T10:38:41Z</time>
      </trkpt>
      <trkpt lat="45.79725" lon="3.25662">
        <ele>360.63553</ele>
        <time>2020-03-15T10:38:44Z</time>
      </trkpt>
      <trkpt lat="45.79724" lon="3.25647">
        <ele>361.4214</ele>
        <time>2020-03-15T10:38:47Z</time>
      </trkpt>
      <trkpt lat="45.79724" lon="3.25631">
        <ele>362.0966</ele>
        <time>2020-03-15T10:38:50Z</time>
      </trkpt>
      <trkpt lat="45.79723" lon="3.25616">
        <ele>363.04755</ele>
        <time>2020-03-15T10:38:53Z</time>
      </trkpt>
      <trkpt lat="45.79725" lon="3.25602">
        <ele>363.8919</ele>
        <time>2020-03-15T10:38:56Z</time>
      </trkpt>
      <trkpt lat="45.79727" lon="3.25588">
        <ele>364.47708</ele>
        <time>2020-03-15T10:38:59Z</time>
      </trkpt>
      <trkpt lat="45.7973" lon="3.25575">
        <ele>364.71167</ele>
        <time>2020-03-15T10:39:02Z</time>
      </trkpt>
      <trkpt lat="45.79734" lon="3.2556">
        <ele>364.4584</ele>
        <time>2020-03-15T10:39:06Z</time>
      </trkpt>
      <trkpt lat="45.79735" lon="3.25543">
        <ele>364.12524</ele>
        <time>2020-03-15T10:39:10Z</time>
      </trkpt>
      <trkpt lat="45.79738" lon="3.25528">
        <ele>364.7787</ele>
        <time>2020-03-15T10:39:13Z</time>
      </trkpt>
      <trkpt lat="45.79741" lon="3.25515">
        <ele>364.81363</ele>
        <time>2020-03-15T10:39:16Z</time>
      </trkpt>
      <trkpt lat="45.79744" lon="3.25502">
        <ele>364.76685</ele>
        <time>2020-03-15T10:39:19Z</time>
      </trkpt>
      <trkpt lat="45.79747" lon="3.25486">
        <ele>363.72427</ele>
        <time>2020-03-15T10:39:23Z</time>
      </trkpt>
      <trkpt lat="45.7975" lon="3.25471">
        <ele>361.39993</ele>
        <time>2020-03-15T10:39:26Z</time>
      </trkpt>
      <trkpt lat="45.79753" lon="3.25454">
        <ele>360.87933</ele>
        <time>2020-03-15T10:39:29Z</time>
      </trkpt>
      <trkpt lat="45.79756" lon="3.2544">
        <ele>360.6198</ele>
        <time>2020-03-15T10:39:32Z</time>
      </trkpt>
      <trkpt lat="45.79762" lon="3.25427">
        <ele>360.03967</ele>
        <time>2020-03-15T10:39:36Z</time>
      </trkpt>
      <trkpt lat="45.79769" lon="3.25415">
        <ele>359.7911</ele>
        <time>2020-03-15T10:39:40Z</time>
      </trkpt>
      <trkpt lat="45.79772" lon="3.254">
        <ele>361.64502</ele>
        <time>2020-03-15T10:39:43Z</time>
      </trkpt>
      <trkpt lat="45.79774" lon="3.25386">
        <ele>364.51993</ele>
        <time>2020-03-15T10:39:45Z</time>
      </trkpt>
      <trkpt lat="45.79778" lon="3.25371">
        <ele>367.42847</ele>
        <time>2020-03-15T10:39:49Z</time>
      </trkpt>
      <trkpt lat="45.79779" lon="3.25354">
        <ele>369.2889</ele>
        <time>2020-03-15T10:39:53Z</time>
      </trkpt>
      <trkpt lat="45.79774" lon="3.25339">
        <ele>369.72372</ele>
        <time>2020-03-15T10:39:57Z</time>
      </trkpt>
      <trkpt lat="45.79766" lon="3.25331">
        <ele>369.7389</ele>
        <time>2020-03-15T10:40:01Z</time>
      </trkpt>
      <trkpt lat="45.7976" lon="3.25321">
        <ele>369.38416</ele>
        <time>2020-03-15T10:40:04Z</time>
      </trkpt>
      <trkpt lat="45.79756" lon="3.25305">
        <ele>370.75284</ele>
        <time>2020-03-15T10:40:07Z</time>
      </trkpt>
      <trkpt lat="45.79752" lon="3.25293">
        <ele>372.15295</ele>
        <time>2020-03-15T10:40:09Z</time>
      </trkpt>
      <trkpt lat="45.79746" lon="3.25277">
        <ele>372.54156</ele>
        <time>2020-03-15T10:40:12Z</time>
      </trkpt>
      <trkpt lat="45.79742" lon="3.25261">
        <ele>372.33438</ele>
        <time>2020-03-15T10:40:15Z</time>
      </trkpt>
      <trkpt lat="45.79739" lon="3.25244">
        <ele>371.4794</ele>
        <time>2020-03-15T10:40:18Z</time>
      </trkpt>
      <trkpt lat="45.79735" lon="3.25229">
        <ele>371.14893</ele>
        <time>2020-03-15T10:40:21Z</time>
      </trkpt>
      <trkpt lat="45.7973" lon="3.25215">
        <ele>371.3637</ele>
        <time>2020-03-15T10:40:23Z</time>
      </trkpt>
      <trkpt lat="45.79725" lon="3.25196">
        <ele>371.41376</ele>
        <time>2020-03-15T10:40:25Z</time>
      </trkpt>
      <trkpt lat="45.79718" lon="3.25171">
        <ele>369.91992</ele>
        <time>2020-03-15T10:40:27Z</time>
      </trkpt>
      <trkpt lat="45.79714" lon="3.25158">
        <ele>369.32083</ele>
        <time>2020-03-15T10:40:28Z</time>
      </trkpt>
      <trkpt lat="45.79709" lon="3.25144">
        <ele>368.77615</ele>
        <time>2020-03-15T10:40:29Z</time>
      </trkpt>
      <trkpt lat="45.79704" lon="3.2513">
        <ele>368.0528</ele>
        <time>2020-03-15T10:40:30Z</time>
      </trkpt>
      <trkpt lat="45.79699" lon="3.25115">
        <ele>367.38055</ele>
        <time>2020-03-15T10:40:31Z</time>
      </trkpt>
      <trkpt lat="45.79694" lon="3.25099">
        <ele>366.5909</ele>
        <time>2020-03-15T10:40:32Z</time>
      </trkpt>
      <trkpt lat="45.79688" lon="3.25084">
        <ele>366.0069</ele>
        <time>2020-03-15T10:40:33Z</time>
      </trkpt>
      <trkpt lat="45.79683" lon="3.25071">
        <ele>365.64984</ele>
        <time>2020-03-15T10:40:34Z</time>
      </trkpt>
      <trkpt lat="45.79677" lon="3.25054">
        <ele>365.3536</ele>
        <time>2020-03-15T10:40:36Z</time>
      </trkpt>
      <trkpt lat="45.79668" lon="3.2505">
        <ele>363.6314</ele>
        <time>2020-03-15T10:40:39Z</time>
      </trkpt>
      <trkpt lat="45.79657" lon="3.25055">
        <ele>363.0681</ele>
        <time>2020-03-15T10:40:41Z</time>
      </trkpt>
      <trkpt lat="45.79647" lon="3.25056">
        <ele>361.89255</ele>
        <time>2020-03-15T10:40:43Z</time>
      </trkpt>
      <trkpt lat="45.79636" lon="3.25047">
        <ele>360.4956</ele>
        <time>2020-03-15T10:40:46Z</time>
      </trkpt>
      <trkpt lat="45.79626" lon="3.25034">
        <ele>360.12213</ele>
        <time>2020-03-15T10:40:49Z</time>
      </trkpt>
      <trkpt lat="45.79617" lon="3.25026">
        <ele>359.29422</ele>
        <time>2020-03-15T10:40:51Z</time>
      </trkpt>
      <trkpt lat="45.79607" lon="3.25018">
        <ele>358.26233</ele>
        <time>2020-03-15T10:40:53Z</time>
      </trkpt>
      <trkpt lat="45.79599" lon="3.25008">
        <ele>357.12994</ele>
        <time>2020-03-15T10:40:55Z</time>
      </trkpt>
      <trkpt lat="45.79592" lon="3.24999">
        <ele>356.16885</ele>
        <time>2020-03-15T10:40:57Z</time>
      </trkpt>
      <trkpt lat="45.79585" lon="3.24989">
        <ele>355.4919</ele>
        <time>2020-03-15T10:40:59Z</time>
      </trkpt>
      <trkpt lat="45.79578" lon="3.24979">
        <ele>355.1078</ele>
        <time>2020-03-15T10:41:01Z</time>
      </trkpt>
      <trkpt lat="45.79571" lon="3.2497">
        <ele>354.87402</ele>
        <time>2020-03-15T10:41:03Z</time>
      </trkpt>
      <trkpt lat="45.79564" lon="3.24961">
        <ele>355.5332</ele>
        <time>2020-03-15T10:41:05Z</time>
      </trkpt>
      <trkpt lat="45.79556" lon="3.24952">
        <ele>355.85474</ele>
        <time>2020-03-15T10:41:07Z</time>
      </trkpt>
      <trkpt lat="45.79547" lon="3.24944">
        <ele>355.08142</ele>
        <time>2020-03-15T10:41:09Z</time>
      </trkpt>
      <trkpt lat="45.79539" lon="3.24932">
        <ele>354.49188</ele>
        <time>2020-03-15T10:41:11Z</time>
      </trkpt>
      <trkpt lat="45.79531" lon="3.24919">
        <ele>354.1429</ele>
        <time>2020-03-15T10:41:13Z</time>
      </trkpt>
      <trkpt lat="45.79524" lon="3.24908">
        <ele>353.705</ele>
        <time>2020-03-15T10:41:15Z</time>
      </trkpt>
      <trkpt lat="45.79518" lon="3.24896">
        <ele>353.4003</ele>
        <time>2020-03-15T10:41:17Z</time>
      </trkpt>
      <trkpt lat="45.79509" lon="3.24886">
        <ele>353.17172</ele>
        <time>2020-03-15T10:41:19Z</time>
      </trkpt>
      <trkpt lat="45.79501" lon="3.24878">
        <ele>353.04013</ele>
        <time>2020-03-15T10:41:21Z</time>
      </trkpt>
      <trkpt lat="45.79492" lon="3.24867">
        <ele>353.34122</ele>
        <time>2020-03-15T10:41:24Z</time>
      </trkpt>
      <trkpt lat="45.79483" lon="3.24855">
        <ele>352.9885</ele>
        <time>2020-03-15T10:41:27Z</time>
      </trkpt>
      <trkpt lat="45.79473" lon="3.24844">
        <ele>353.25327</ele>
        <time>2020-03-15T10:41:30Z</time>
      </trkpt>
      <trkpt lat="45.79462" lon="3.24837">
        <ele>353.55615</ele>
        <time>2020-03-15T10:41:33Z</time>
      </trkpt>
      <trkpt lat="45.79452" lon="3.24832">
        <ele>353.93814</ele>
        <time>2020-03-15T10:41:36Z</time>
      </trkpt>
      <trkpt lat="45.79442" lon="3.24825">
        <ele>353.94125</ele>
        <time>2020-03-15T10:41:39Z</time>
      </trkpt>
      <trkpt lat="45.79434" lon="3.24813">
        <ele>353.34644</ele>
        <time>2020-03-15T10:41:42Z</time>
      </trkpt>
      <trkpt lat="45.79428" lon="3.248">
        <ele>353.2355</ele>
        <time>2020-03-15T10:41:45Z</time>
      </trkpt>
      <trkpt lat="45.79423" lon="3.24786">
        <ele>353.52673</ele>
        <time>2020-03-15T10:41:48Z</time>
      </trkpt>
      <trkpt lat="45.79417" lon="3.24775">
        <ele>352.62863</ele>
        <time>2020-03-15T10:41:51Z</time>
      </trkpt>
      <trkpt lat="45.7941" lon="3.24763">
        <ele>352.38626</ele>
        <time>2020-03-15T10:41:54Z</time>
      </trkpt>
      <trkpt lat="45.79405" lon="3.2475">
        <ele>351.50882</ele>
        <time>2020-03-15T10:41:57Z</time>
      </trkpt>
      <trkpt lat="45.79399" lon="3.24736">
        <ele>351.47372</ele>
        <time>2020-03-15T10:42:00Z</time>
      </trkpt>
      <trkpt lat="45.79393" lon="3.24724">
        <ele>351.18936</ele>
        <time>2020-03-15T10:42:03Z</time>
      </trkpt>
      <trkpt lat="45.79387" lon="3.2471">
        <ele>350.8304</ele>
        <time>2020-03-15T10:42:06Z</time>
      </trkpt>
      <trkpt lat="45.79379" lon="3.24697">
        <ele>348.0967</ele>
        <time>2020-03-15T10:42:09Z</time>
      </trkpt>
      <trkpt lat="45.79371" lon="3.24682">
        <ele>349.00998</ele>
        <time>2020-03-15T10:42:12Z</time>
      </trkpt>
      <trkpt lat="45.79364" lon="3.24672">
        <ele>349.91327</ele>
        <time>2020-03-15T10:42:14Z</time>
      </trkpt>
      <trkpt lat="45.79356" lon="3.2466">
        <ele>350.39734</ele>
        <time>2020-03-15T10:42:17Z</time>
      </trkpt>
      <trkpt lat="45.79348" lon="3.24648">
        <ele>350.75363</ele>
        <time>2020-03-15T10:42:20Z</time>
      </trkpt>
      <trkpt lat="45.79339" lon="3.24636">
        <ele>351.03476</ele>
        <time>2020-03-15T10:42:23Z</time>
      </trkpt>
      <trkpt lat="45.79332" lon="3.24626">
        <ele>351.07913</ele>
        <time>2020-03-15T10:42:26Z</time>
      </trkpt>
      <trkpt lat="45.79324" lon="3.24612">
        <ele>351.45755</ele>
        <time>2020-03-15T10:42:29Z</time>
      </trkpt>
      <trkpt lat="45.79317" lon="3.246">
        <ele>350.94904</ele>
        <time>2020-03-15T10:42:32Z</time>
      </trkpt>
      <trkpt lat="45.7931" lon="3.24588">
        <ele>350.55112</ele>
        <time>2020-03-15T10:42:35Z</time>
      </trkpt>
      <trkpt lat="45.79302" lon="3.24573">
        <ele>351.6132</ele>
        <time>2020-03-15T10:42:38Z</time>
      </trkpt>
      <trkpt lat="45.79297" lon="3.24562">
        <ele>353.11865</ele>
        <time>2020-03-15T10:42:41Z</time>
      </trkpt>
      <trkpt lat="45.7929" lon="3.24552">
        <ele>354.02612</ele>
        <time>2020-03-15T10:42:44Z</time>
      </trkpt>
      <trkpt lat="45.79284" lon="3.24543">
        <ele>354.37506</ele>
        <time>2020-03-15T10:42:47Z</time>
      </trkpt>
      <trkpt lat="45.79274" lon="3.24533">
        <ele>355.07538</ele>
        <time>2020-03-15T10:42:50Z</time>
      </trkpt>
      <trkpt lat="45.79263" lon="3.24525">
        <ele>356.2919</ele>
        <time>2020-03-15T10:42:53Z</time>
      </trkpt>
      <trkpt lat="45.79253" lon="3.24518">
        <ele>356.99893</ele>
        <time>2020-03-15T10:42:56Z</time>
      </trkpt>
      <trkpt lat="45.79245" lon="3.2451">
        <ele>357.76443</ele>
        <time>2020-03-15T10:42:59Z</time>
      </trkpt>
      <trkpt lat="45.79237" lon="3.24499">
        <ele>357.95984</ele>
        <time>2020-03-15T10:43:02Z</time>
      </trkpt>
      <trkpt lat="45.7923" lon="3.2449">
        <ele>358.20087</ele>
        <time>2020-03-15T10:43:05Z</time>
      </trkpt>
      <trkpt lat="45.79223" lon="3.24478">
        <ele>358.24655</ele>
        <time>2020-03-15T10:43:09Z</time>
      </trkpt>
      <trkpt lat="45.79216" lon="3.24466">
        <ele>358.01846</ele>
        <time>2020-03-15T10:43:12Z</time>
      </trkpt>
      <trkpt lat="45.79208" lon="3.24454">
        <ele>357.66104</ele>
        <time>2020-03-15T10:43:15Z</time>
      </trkpt>
      <trkpt lat="45.79202" lon="3.24443">
        <ele>357.66104</ele>
        <time>2020-03-15T10:43:18Z</time>
      </trkpt>
      <trkpt lat="45.79196" lon="3.24435">
        <ele>356.3323</ele>
        <time>2020-03-15T10:43:21Z</time>
      </trkpt>
      <trkpt lat="45.79196" lon="3.24435">
        <ele>356.3323</ele>
        <time>2020-03-15T10:43:21Z</time>
      </trkpt>
      <trkpt lat="45.79181" lon="3.24404">
        <ele>351.96353</ele>
        <time>2020-03-15T10:43:29Z</time>
      </trkpt>
      <trkpt lat="45.7918" lon="3.24389">
        <ele>350.7435</ele>
        <time>2020-03-15T10:43:32Z</time>
      </trkpt>
      <trkpt lat="45.79183" lon="3.24376">
        <ele>354.1953</ele>
        <time>2020-03-15T10:43:35Z</time>
      </trkpt>
      <trkpt lat="45.79185" lon="3.24357">
        <ele>353.0819</ele>
        <time>2020-03-15T10:43:38Z</time>
      </trkpt>
      <trkpt lat="45.79184" lon="3.2434">
        <ele>352.98196</ele>
        <time>2020-03-15T10:43:41Z</time>
      </trkpt>
      <trkpt lat="45.79177" lon="3.24329">
        <ele>353.43423</ele>
        <time>2020-03-15T10:43:44Z</time>
      </trkpt>
      <trkpt lat="45.79171" lon="3.24316">
        <ele>354.23465</ele>
        <time>2020-03-15T10:43:47Z</time>
      </trkpt>
      <trkpt lat="45.79172" lon="3.24301">
        <ele>354.64713</ele>
        <time>2020-03-15T10:43:50Z</time>
      </trkpt>
      <trkpt lat="45.79179" lon="3.24293">
        <ele>355.2078</ele>
        <time>2020-03-15T10:43:53Z</time>
      </trkpt>
      <trkpt lat="45.79185" lon="3.24282">
        <ele>357.5016</ele>
        <time>2020-03-15T10:43:59Z</time>
      </trkpt>
      <trkpt lat="45.79185" lon="3.24281">
        <ele>357.92294</ele>
        <time>2020-03-15T10:44:00Z</time>
      </trkpt>
      <trkpt lat="45.79185" lon="3.24281">
        <ele>357.92294</ele>
        <time>2020-03-15T10:44:00Z</time>
      </trkpt>
      <trkpt lat="45.79158" lon="3.24267">
        <ele>358.7896</ele>
        <time>2020-03-15T10:44:27Z</time>
      </trkpt>
      <trkpt lat="45.79147" lon="3.24265">
        <ele>359.3571</ele>
        <time>2020-03-15T10:44:31Z</time>
      </trkpt>
      <trkpt lat="45.79137" lon="3.24262">
        <ele>360.35764</ele>
        <time>2020-03-15T10:44:34Z</time>
      </trkpt>
      <trkpt lat="45.79125" lon="3.24259">
        <ele>360.33615</ele>
        <time>2020-03-15T10:44:38Z</time>
      </trkpt>
      <trkpt lat="45.79113" lon="3.24257">
        <ele>360.77292</ele>
        <time>2020-03-15T10:44:42Z</time>
      </trkpt>
      <trkpt lat="45.79103" lon="3.24255">
        <ele>360.73444</ele>
        <time>2020-03-15T10:44:46Z</time>
      </trkpt>
      <trkpt lat="45.79092" lon="3.24252">
        <ele>360.51</ele>
        <time>2020-03-15T10:44:50Z</time>
      </trkpt>
      <trkpt lat="45.7908" lon="3.24249">
        <ele>360.8615</ele>
        <time>2020-03-15T10:44:54Z</time>
      </trkpt>
      <trkpt lat="45.79071" lon="3.24247">
        <ele>361.42487</ele>
        <time>2020-03-15T10:44:57Z</time>
      </trkpt>
      <trkpt lat="45.7906" lon="3.24245">
        <ele>361.65018</ele>
        <time>2020-03-15T10:45:01Z</time>
      </trkpt>
      <trkpt lat="45.79051" lon="3.24245">
        <ele>362.4375</ele>
        <time>2020-03-15T10:45:04Z</time>
      </trkpt>
      <trkpt lat="45.7904" lon="3.24243">
        <ele>363.22916</ele>
        <time>2020-03-15T10:45:08Z</time>
      </trkpt>
      <trkpt lat="45.79028" lon="3.24242">
        <ele>363.58698</ele>
        <time>2020-03-15T10:45:12Z</time>
      </trkpt>
      <trkpt lat="45.79017" lon="3.24239">
        <ele>364.39893</ele>
        <time>2020-03-15T10:45:16Z</time>
      </trkpt>
      <trkpt lat="45.79007" lon="3.24237">
        <ele>364.7007</ele>
        <time>2020-03-15T10:45:20Z</time>
      </trkpt>
      <trkpt lat="45.78997" lon="3.24235">
        <ele>364.59213</ele>
        <time>2020-03-15T10:45:23Z</time>
      </trkpt>
      <trkpt lat="45.78988" lon="3.24233">
        <ele>364.7753</ele>
        <time>2020-03-15T10:45:26Z</time>
      </trkpt>
      <trkpt lat="45.78976" lon="3.24231">
        <ele>364.5945</ele>
        <time>2020-03-15T10:45:30Z</time>
      </trkpt>
      <trkpt lat="45.78966" lon="3.24231">
        <ele>364.5141</ele>
        <time>2020-03-15T10:45:33Z</time>
      </trkpt>
      <trkpt lat="45.78956" lon="3.24231">
        <ele>364.85184</ele>
        <time>2020-03-15T10:45:36Z</time>
      </trkpt>
      <trkpt lat="45.78944" lon="3.24231">
        <ele>365.26303</ele>
        <time>2020-03-15T10:45:40Z</time>
      </trkpt>
      <trkpt lat="45.78935" lon="3.2423">
        <ele>365.59174</ele>
        <time>2020-03-15T10:45:43Z</time>
      </trkpt>
      <trkpt lat="45.78923" lon="3.2423">
        <ele>365.59174</ele>
        <time>2020-03-15T10:45:46Z</time>
      </trkpt>
      <trkpt lat="45.78911" lon="3.24231">
        <ele>365.59174</ele>
        <time>2020-03-15T10:45:49Z</time>
      </trkpt>
      <trkpt lat="45.789" lon="3.24231">
        <ele>366.34012</ele>
        <time>2020-03-15T10:45:52Z</time>
      </trkpt>
      <trkpt lat="45.78888" lon="3.24232">
        <ele>366.12845</ele>
        <time>2020-03-15T10:45:55Z</time>
      </trkpt>
      <trkpt lat="45.78876" lon="3.24232">
        <ele>365.8499</ele>
        <time>2020-03-15T10:45:58Z</time>
      </trkpt>
      <trkpt lat="45.78864" lon="3.24234">
        <ele>366.1966</ele>
        <time>2020-03-15T10:46:01Z</time>
      </trkpt>
      <trkpt lat="45.78852" lon="3.24234">
        <ele>366.97913</ele>
        <time>2020-03-15T10:46:04Z</time>
      </trkpt>
      <trkpt lat="45.7884" lon="3.24232">
        <ele>367.67242</ele>
        <time>2020-03-15T10:46:07Z</time>
      </trkpt>
      <trkpt lat="45.7883" lon="3.24229">
        <ele>368.53333</ele>
        <time>2020-03-15T10:46:13Z</time>
      </trkpt>
      <trkpt lat="45.78817" lon="3.24227">
        <ele>369.84152</ele>
        <time>2020-03-15T10:46:15Z</time>
      </trkpt>
      <trkpt lat="45.78806" lon="3.24227">
        <ele>370.44754</ele>
        <time>2020-03-15T10:46:20Z</time>
      </trkpt>
      <trkpt lat="45.78795" lon="3.24226">
        <ele>370.15125</ele>
        <time>2020-03-15T10:46:24Z</time>
      </trkpt>
      <trkpt lat="45.78784" lon="3.24224">
        <ele>369.55588</ele>
        <time>2020-03-15T10:46:27Z</time>
      </trkpt>
      <trkpt lat="45.78773" lon="3.2422">
        <ele>369.23273</ele>
        <time>2020-03-15T10:46:30Z</time>
      </trkpt>
      <trkpt lat="45.78763" lon="3.24217">
        <ele>369.13202</ele>
        <time>2020-03-15T10:46:33Z</time>
      </trkpt>
      <trkpt lat="45.78752" lon="3.24213">
        <ele>368.67807</ele>
        <time>2020-03-15T10:46:36Z</time>
      </trkpt>
      <trkpt lat="45.78741" lon="3.24209">
        <ele>368.66736</ele>
        <time>2020-03-15T10:46:39Z</time>
      </trkpt>
      <trkpt lat="45.78729" lon="3.24204">
        <ele>367.9698</ele>
        <time>2020-03-15T10:46:42Z</time>
      </trkpt>
      <trkpt lat="45.78718" lon="3.24201">
        <ele>367.60336</ele>
        <time>2020-03-15T10:46:45Z</time>
      </trkpt>
      <trkpt lat="45.78706" lon="3.24197">
        <ele>367.7353</ele>
        <time>2020-03-15T10:46:48Z</time>
      </trkpt>
      <trkpt lat="45.78694" lon="3.24192">
        <ele>368.17</ele>
        <time>2020-03-15T10:46:51Z</time>
      </trkpt>
      <trkpt lat="45.78682" lon="3.24189">
        <ele>368.51123</ele>
        <time>2020-03-15T10:46:54Z</time>
      </trkpt>
      <trkpt lat="45.7867" lon="3.24185">
        <ele>368.82657</ele>
        <time>2020-03-15T10:46:57Z</time>
      </trkpt>
      <trkpt lat="45.78658" lon="3.2418">
        <ele>368.9532</ele>
        <time>2020-03-15T10:47:00Z</time>
      </trkpt>
      <trkpt lat="45.78646" lon="3.24176">
        <ele>368.83395</ele>
        <time>2020-03-15T10:47:03Z</time>
      </trkpt>
      <trkpt lat="45.78634" lon="3.2417">
        <ele>369.02298</ele>
        <time>2020-03-15T10:47:06Z</time>
      </trkpt>
      <trkpt lat="45.78624" lon="3.24167">
        <ele>369.3071</ele>
        <time>2020-03-15T10:47:08Z</time>
      </trkpt>
      <trkpt lat="45.78612" lon="3.2416">
        <ele>368.8431</ele>
        <time>2020-03-15T10:47:11Z</time>
      </trkpt>
      <trkpt lat="45.78601" lon="3.24153">
        <ele>368.35233</ele>
        <time>2020-03-15T10:47:14Z</time>
      </trkpt>
      <trkpt lat="45.7859" lon="3.24145">
        <ele>368.56757</ele>
        <time>2020-03-15T10:47:17Z</time>
      </trkpt>
      <trkpt lat="45.78579" lon="3.2414">
        <ele>368.74915</ele>
        <time>2020-03-15T10:47:20Z</time>
      </trkpt>
      <trkpt lat="45.78566" lon="3.2414">
        <ele>368.75446</ele>
        <time>2020-03-15T10:47:23Z</time>
      </trkpt>
      <trkpt lat="45.78553" lon="3.24141">
        <ele>368.84613</ele>
        <time>2020-03-15T10:47:26Z</time>
      </trkpt>
      <trkpt lat="45.78542" lon="3.24143">
        <ele>369.62585</ele>
        <time>2020-03-15T10:47:29Z</time>
      </trkpt>
      <trkpt lat="45.78531" lon="3.24146">
        <ele>370.31067</ele>
        <time>2020-03-15T10:47:32Z</time>
      </trkpt>
      <trkpt lat="45.7852" lon="3.24148">
        <ele>370.73343</ele>
        <time>2020-03-15T10:47:35Z</time>
      </trkpt>
      <trkpt lat="45.78509" lon="3.2415">
        <ele>370.61584</ele>
        <time>2020-03-15T10:47:38Z</time>
      </trkpt>
      <trkpt lat="45.78499" lon="3.24153">
        <ele>370.6211</ele>
        <time>2020-03-15T10:47:41Z</time>
      </trkpt>
      <trkpt lat="45.78489" lon="3.24155">
        <ele>370.5545</ele>
        <time>2020-03-15T10:47:44Z</time>
      </trkpt>
      <trkpt lat="45.7848" lon="3.2416">
        <ele>370.48004</ele>
        <time>2020-03-15T10:47:47Z</time>
      </trkpt>
      <trkpt lat="45.78471" lon="3.24166">
        <ele>371.23553</ele>
        <time>2020-03-15T10:47:50Z</time>
      </trkpt>
      <trkpt lat="45.78463" lon="3.24172">
        <ele>371.33755</ele>
        <time>2020-03-15T10:47:53Z</time>
      </trkpt>
      <trkpt lat="45.78454" lon="3.24176">
        <ele>371.78796</ele>
        <time>2020-03-15T10:47:56Z</time>
      </trkpt>
      <trkpt lat="45.78444" lon="3.24179">
        <ele>372.07816</ele>
        <time>2020-03-15T10:47:59Z</time>
      </trkpt>
      <trkpt lat="45.78434" lon="3.24184">
        <ele>372.13126</ele>
        <time>2020-03-15T10:48:02Z</time>
      </trkpt>
      <trkpt lat="45.78425" lon="3.2419">
        <ele>372.21716</ele>
        <time>2020-03-15T10:48:05Z</time>
      </trkpt>
      <trkpt lat="45.78416" lon="3.24197">
        <ele>372.4315</ele>
        <time>2020-03-15T10:48:08Z</time>
      </trkpt>
      <trkpt lat="45.78407" lon="3.24203">
        <ele>372.0725</ele>
        <time>2020-03-15T10:48:11Z</time>
      </trkpt>
      <trkpt lat="45.78397" lon="3.24207">
        <ele>371.40564</ele>
        <time>2020-03-15T10:48:14Z</time>
      </trkpt>
      <trkpt lat="45.78387" lon="3.24213">
        <ele>370.57916</ele>
        <time>2020-03-15T10:48:17Z</time>
      </trkpt>
      <trkpt lat="45.78376" lon="3.24218">
        <ele>369.59473</ele>
        <time>2020-03-15T10:48:20Z</time>
      </trkpt>
      <trkpt lat="45.78366" lon="3.24221">
        <ele>370.39865</ele>
        <time>2020-03-15T10:48:22Z</time>
      </trkpt>
      <trkpt lat="45.78354" lon="3.24226">
        <ele>370.49057</ele>
        <time>2020-03-15T10:48:25Z</time>
      </trkpt>
      <trkpt lat="45.78345" lon="3.2423">
        <ele>370.68747</ele>
        <time>2020-03-15T10:48:27Z</time>
      </trkpt>
      <trkpt lat="45.78334" lon="3.24237">
        <ele>370.0098</ele>
        <time>2020-03-15T10:48:30Z</time>
      </trkpt>
      <trkpt lat="45.78323" lon="3.24245">
        <ele>369.80008</ele>
        <time>2020-03-15T10:48:33Z</time>
      </trkpt>
      <trkpt lat="45.78315" lon="3.24252">
        <ele>369.952</ele>
        <time>2020-03-15T10:48:35Z</time>
      </trkpt>
      <trkpt lat="45.78304" lon="3.24262">
        <ele>369.88596</ele>
        <time>2020-03-15T10:48:38Z</time>
      </trkpt>
      <trkpt lat="45.78293" lon="3.24273">
        <ele>369.60983</ele>
        <time>2020-03-15T10:48:41Z</time>
      </trkpt>
      <trkpt lat="45.78285" lon="3.24281">
        <ele>369.6811</ele>
        <time>2020-03-15T10:48:43Z</time>
      </trkpt>
      <trkpt lat="45.78276" lon="3.24288">
        <ele>369.6507</ele>
        <time>2020-03-15T10:48:45Z</time>
      </trkpt>
      <trkpt lat="45.78268" lon="3.24297">
        <ele>369.26474</ele>
        <time>2020-03-15T10:48:47Z</time>
      </trkpt>
      <trkpt lat="45.78258" lon="3.24305">
        <ele>369.2424</ele>
        <time>2020-03-15T10:48:49Z</time>
      </trkpt>
      <trkpt lat="45.78247" lon="3.24313">
        <ele>368.42203</ele>
        <time>2020-03-15T10:48:51Z</time>
      </trkpt>
      <trkpt lat="45.78235" lon="3.24319">
        <ele>368.31107</ele>
        <time>2020-03-15T10:48:53Z</time>
      </trkpt>
      <trkpt lat="45.78223" lon="3.24323">
        <ele>368.76224</ele>
        <time>2020-03-15T10:48:55Z</time>
      </trkpt>
      <trkpt lat="45.78212" lon="3.24326">
        <ele>368.65234</ele>
        <time>2020-03-15T10:48:57Z</time>
      </trkpt>
      <trkpt lat="45.78201" lon="3.2433">
        <ele>368.0197</ele>
        <time>2020-03-15T10:48:59Z</time>
      </trkpt>
      <trkpt lat="45.78191" lon="3.24332">
        <ele>366.961</ele>
        <time>2020-03-15T10:49:01Z</time>
      </trkpt>
      <trkpt lat="45.78178" lon="3.24336">
        <ele>365.9503</ele>
        <time>2020-03-15T10:49:04Z</time>
      </trkpt>
      <trkpt lat="45.78167" lon="3.2434">
        <ele>365.76028</ele>
        <time>2020-03-15T10:49:07Z</time>
      </trkpt>
      <trkpt lat="45.78156" lon="3.24344">
        <ele>365.39938</ele>
        <time>2020-03-15T10:49:10Z</time>
      </trkpt>
      <trkpt lat="45.78145" lon="3.24345">
        <ele>364.54004</ele>
        <time>2020-03-15T10:49:14Z</time>
      </trkpt>
      <trkpt lat="45.78139" lon="3.24357">
        <ele>362.91684</ele>
        <time>2020-03-15T10:49:21Z</time>
      </trkpt>
      <trkpt lat="45.7814" lon="3.2437">
        <ele>361.7427</ele>
        <time>2020-03-15T10:49:26Z</time>
      </trkpt>
      <trkpt lat="45.7815" lon="3.24382">
        <ele>360.87637</ele>
        <time>2020-03-15T10:49:29Z</time>
      </trkpt>
      <trkpt lat="45.7816" lon="3.24393">
        <ele>360.87637</ele>
        <time>2020-03-15T10:49:32Z</time>
      </trkpt>
      <trkpt lat="45.78168" lon="3.24405">
        <ele>360.76785</ele>
        <time>2020-03-15T10:49:35Z</time>
      </trkpt>
      <trkpt lat="45.78175" lon="3.24416">
        <ele>360.76785</ele>
        <time>2020-03-15T10:49:38Z</time>
      </trkpt>
      <trkpt lat="45.78179" lon="3.24422">
        <ele>360.56046</ele>
        <time>2020-03-15T10:49:40Z</time>
      </trkpt>
      <trkpt lat="45.78179" lon="3.24422">
        <ele>360.56046</ele>
        <time>2020-03-15T10:49:40Z</time>
      </trkpt>
      <trkpt lat="45.78197" lon="3.24471">
        <ele>362.4231</ele>
        <time>2020-03-15T10:49:49Z</time>
      </trkpt>
      <trkpt lat="45.78197" lon="3.24485">
        <ele>363.65677</ele>
        <time>2020-03-15T10:49:53Z</time>
      </trkpt>
      <trkpt lat="45.78196" lon="3.245">
        <ele>363.02115</ele>
        <time>2020-03-15T10:49:57Z</time>
      </trkpt>
      <trkpt lat="45.78191" lon="3.24513">
        <ele>362.46378</ele>
        <time>2020-03-15T10:50:00Z</time>
      </trkpt>
      <trkpt lat="45.78188" lon="3.2453">
        <ele>361.18314</ele>
        <time>2020-03-15T10:50:04Z</time>
      </trkpt>
      <trkpt lat="45.78188" lon="3.24544">
        <ele>359.52652</ele>
        <time>2020-03-15T10:50:07Z</time>
      </trkpt>
      <trkpt lat="45.78189" lon="3.2456">
        <ele>359.05774</ele>
        <time>2020-03-15T10:50:10Z</time>
      </trkpt>
      <trkpt lat="45.7819" lon="3.24578">
        <ele>358.85464</ele>
        <time>2020-03-15T10:50:14Z</time>
      </trkpt>
      <trkpt lat="45.78194" lon="3.24593">
        <ele>357.34357</ele>
        <time>2020-03-15T10:50:18Z</time>
      </trkpt>
      <trkpt lat="45.78187" lon="3.24604">
        <ele>357.4797</ele>
        <time>2020-03-15T10:50:27Z</time>
      </trkpt>
      <trkpt lat="45.78179" lon="3.24614">
        <ele>357.745</ele>
        <time>2020-03-15T10:50:31Z</time>
      </trkpt>
      <trkpt lat="45.78171" lon="3.24623">
        <ele>356.16815</ele>
        <time>2020-03-15T10:50:34Z</time>
      </trkpt>
      <trkpt lat="45.78162" lon="3.24632">
        <ele>355.0824</ele>
        <time>2020-03-15T10:50:37Z</time>
      </trkpt>
      <trkpt lat="45.78152" lon="3.24643">
        <ele>353.97015</ele>
        <time>2020-03-15T10:50:40Z</time>
      </trkpt>
      <trkpt lat="45.7814" lon="3.24651">
        <ele>352.30923</ele>
        <time>2020-03-15T10:50:43Z</time>
      </trkpt>
      <trkpt lat="45.78131" lon="3.24661">
        <ele>350.87778</ele>
        <time>2020-03-15T10:50:46Z</time>
      </trkpt>
      <trkpt lat="45.7812" lon="3.24671">
        <ele>349.31616</ele>
        <time>2020-03-15T10:50:49Z</time>
      </trkpt>
      <trkpt lat="45.78112" lon="3.24678">
        <ele>348.88342</ele>
        <time>2020-03-15T10:50:52Z</time>
      </trkpt>
      <trkpt lat="45.78102" lon="3.24683">
        <ele>348.7792</ele>
        <time>2020-03-15T10:50:55Z</time>
      </trkpt>
      <trkpt lat="45.78091" lon="3.24688">
        <ele>347.0517</ele>
        <time>2020-03-15T10:50:58Z</time>
      </trkpt>
      <trkpt lat="45.78083" lon="3.24696">
        <ele>346.68402</ele>
        <time>2020-03-15T10:51:01Z</time>
      </trkpt>
      <trkpt lat="45.78074" lon="3.24696">
        <ele>346.59937</ele>
        <time>2020-03-15T10:51:04Z</time>
      </trkpt>
      <trkpt lat="45.78065" lon="3.24693">
        <ele>347.04373</ele>
        <time>2020-03-15T10:51:06Z</time>
      </trkpt>
      <trkpt lat="45.78054" lon="3.24693">
        <ele>347.49768</ele>
        <time>2020-03-15T10:51:08Z</time>
      </trkpt>
      <trkpt lat="45.78043" lon="3.24694">
        <ele>343.83148</ele>
        <time>2020-03-15T10:51:13Z</time>
      </trkpt>
      <trkpt lat="45.78033" lon="3.24694">
        <ele>343.40347</ele>
        <time>2020-03-15T10:51:16Z</time>
      </trkpt>
      <trkpt lat="45.78019" lon="3.24692">
        <ele>343.68707</ele>
        <time>2020-03-15T10:51:19Z</time>
      </trkpt>
      <trkpt lat="45.78009" lon="3.24693">
        <ele>343.68796</ele>
        <time>2020-03-15T10:51:21Z</time>
      </trkpt>
      <trkpt lat="45.78" lon="3.24696">
        <ele>343.13303</ele>
        <time>2020-03-15T10:51:23Z</time>
      </trkpt>
      <trkpt lat="45.77987" lon="3.24695">
        <ele>343.18262</ele>
        <time>2020-03-15T10:51:26Z</time>
      </trkpt>
      <trkpt lat="45.77978" lon="3.24685">
        <ele>343.0089</ele>
        <time>2020-03-15T10:51:29Z</time>
      </trkpt>
      <trkpt lat="45.77974" lon="3.24667">
        <ele>342.3742</ele>
        <time>2020-03-15T10:51:32Z</time>
      </trkpt>
      <trkpt lat="45.77975" lon="3.2465">
        <ele>342.20126</ele>
        <time>2020-03-15T10:51:35Z</time>
      </trkpt>
      <trkpt lat="45.77972" lon="3.24635">
        <ele>343.0077</ele>
        <time>2020-03-15T10:51:38Z</time>
      </trkpt>
      <trkpt lat="45.77974" lon="3.24619">
        <ele>344.06262</ele>
        <time>2020-03-15T10:51:42Z</time>
      </trkpt>
      <trkpt lat="45.77977" lon="3.24605">
        <ele>345.21777</ele>
        <time>2020-03-15T10:51:46Z</time>
      </trkpt>
      <trkpt lat="45.77978" lon="3.24589">
        <ele>347.98007</ele>
        <time>2020-03-15T10:51:50Z</time>
      </trkpt>
      <trkpt lat="45.77981" lon="3.24572">
        <ele>350.52875</ele>
        <time>2020-03-15T10:51:54Z</time>
      </trkpt>
      <trkpt lat="45.77983" lon="3.24559">
        <ele>351.54114</ele>
        <time>2020-03-15T10:51:57Z</time>
      </trkpt>
      <trkpt lat="45.77985" lon="3.24544">
        <ele>352.8079</ele>
        <time>2020-03-15T10:52:01Z</time>
      </trkpt>
      <trkpt lat="45.77988" lon="3.24529">
        <ele>353.53903</ele>
        <time>2020-03-15T10:52:05Z</time>
      </trkpt>
      <trkpt lat="45.7799" lon="3.2451">
        <ele>358.65588</ele>
        <time>2020-03-15T10:52:09Z</time>
      </trkpt>
      <trkpt lat="45.77993" lon="3.24496">
        <ele>360.1887</ele>
        <time>2020-03-15T10:52:12Z</time>
      </trkpt>
      <trkpt lat="45.77994" lon="3.2448">
        <ele>361.2708</ele>
        <time>2020-03-15T10:52:16Z</time>
      </trkpt>
      <trkpt lat="45.77995" lon="3.24467">
        <ele>361.83612</ele>
        <time>2020-03-15T10:52:20Z</time>
      </trkpt>
      <trkpt lat="45.77996" lon="3.24452">
        <ele>361.36078</ele>
        <time>2020-03-15T10:52:27Z</time>
      </trkpt>
      <trkpt lat="45.77995" lon="3.24447">
        <ele>360.8951</ele>
        <time>2020-03-15T10:52:34Z</time>
      </trkpt>
      <trkpt lat="45.77995" lon="3.24447">
        <ele>360.8951</ele>
        <time>2020-03-15T10:52:34Z</time>
      </trkpt>
      <trkpt lat="45.77967" lon="3.24455">
        <ele>361.95694</ele>
        <time>2020-03-15T10:56:16Z</time>
      </trkpt>
      <trkpt lat="45.77957" lon="3.24458">
        <ele>362.33646</ele>
        <time>2020-03-15T10:56:20Z</time>
      </trkpt>
      <trkpt lat="45.77948" lon="3.2446">
        <ele>362.38446</ele>
        <time>2020-03-15T10:56:23Z</time>
      </trkpt>
      <trkpt lat="45.77938" lon="3.24462">
        <ele>362.4397</ele>
        <time>2020-03-15T10:56:27Z</time>
      </trkpt>
      <trkpt lat="45.77929" lon="3.24464">
        <ele>363.0949</ele>
        <time>2020-03-15T10:56:30Z</time>
      </trkpt>
      <trkpt lat="45.77918" lon="3.24466">
        <ele>363.80353</ele>
        <time>2020-03-15T10:56:33Z</time>
      </trkpt>
      <trkpt lat="45.77908" lon="3.24466">
        <ele>364.14337</ele>
        <time>2020-03-15T10:56:36Z</time>
      </trkpt>
      <trkpt lat="45.77898" lon="3.24464">
        <ele>364.35602</ele>
        <time>2020-03-15T10:56:39Z</time>
      </trkpt>
      <trkpt lat="45.77887" lon="3.24461">
        <ele>364.6801</ele>
        <time>2020-03-15T10:56:42Z</time>
      </trkpt>
      <trkpt lat="45.77877" lon="3.24457">
        <ele>364.87094</ele>
        <time>2020-03-15T10:56:45Z</time>
      </trkpt>
      <trkpt lat="45.77868" lon="3.24453">
        <ele>365.2347</ele>
        <time>2020-03-15T10:56:48Z</time>
      </trkpt>
      <trkpt lat="45.77859" lon="3.24448">
        <ele>365.23474</ele>
        <time>2020-03-15T10:56:51Z</time>
      </trkpt>
      <trkpt lat="45.77849" lon="3.24442">
        <ele>364.99533</ele>
        <time>2020-03-15T10:56:54Z</time>
      </trkpt>
      <trkpt lat="45.77839" lon="3.24434">
        <ele>365.07227</ele>
        <time>2020-03-15T10:56:57Z</time>
      </trkpt>
      <trkpt lat="45.77831" lon="3.24425">
        <ele>365.1405</ele>
        <time>2020-03-15T10:57:00Z</time>
      </trkpt>
      <trkpt lat="45.77822" lon="3.24417">
        <ele>365.51825</ele>
        <time>2020-03-15T10:57:03Z</time>
      </trkpt>
      <trkpt lat="45.77813" lon="3.2441">
        <ele>365.74155</ele>
        <time>2020-03-15T10:57:06Z</time>
      </trkpt>
      <trkpt lat="45.77807" lon="3.244">
        <ele>366.03796</ele>
        <time>2020-03-15T10:57:09Z</time>
      </trkpt>
      <trkpt lat="45.778" lon="3.24391">
        <ele>366.16733</ele>
        <time>2020-03-15T10:57:12Z</time>
      </trkpt>
      <trkpt lat="45.77793" lon="3.24382">
        <ele>366.16733</ele>
        <time>2020-03-15T10:57:15Z</time>
      </trkpt>
      <trkpt lat="45.77786" lon="3.24371">
        <ele>367.15033</ele>
        <time>2020-03-15T10:57:18Z</time>
      </trkpt>
      <trkpt lat="45.77781" lon="3.24361">
        <ele>367.1457</ele>
        <time>2020-03-15T10:57:21Z</time>
      </trkpt>
      <trkpt lat="45.77774" lon="3.24347">
        <ele>367.7119</ele>
        <time>2020-03-15T10:57:25Z</time>
      </trkpt>
      <trkpt lat="45.77771" lon="3.24332">
        <ele>369.03293</ele>
        <time>2020-03-15T10:57:29Z</time>
      </trkpt>
      <trkpt lat="45.77767" lon="3.24317">
        <ele>370.2689</ele>
        <time>2020-03-15T10:57:33Z</time>
      </trkpt>
      <trkpt lat="45.77763" lon="3.24301">
        <ele>371.06558</ele>
        <time>2020-03-15T10:57:37Z</time>
      </trkpt>
      <trkpt lat="45.77762" lon="3.24288">
        <ele>371.64496</ele>
        <time>2020-03-15T10:57:40Z</time>
      </trkpt>
      <trkpt lat="45.77758" lon="3.24273">
        <ele>372.31952</ele>
        <time>2020-03-15T10:57:44Z</time>
      </trkpt>
      <trkpt lat="45.77756" lon="3.2426">
        <ele>372.45465</ele>
        <time>2020-03-15T10:57:47Z</time>
      </trkpt>
      <trkpt lat="45.77755" lon="3.24245">
        <ele>372.3992</ele>
        <time>2020-03-15T10:57:50Z</time>
      </trkpt>
      <trkpt lat="45.77755" lon="3.2423">
        <ele>372.47296</ele>
        <time>2020-03-15T10:57:53Z</time>
      </trkpt>
      <trkpt lat="45.77757" lon="3.24214">
        <ele>372.29343</ele>
        <time>2020-03-15T10:57:56Z</time>
      </trkpt>
      <trkpt lat="45.77761" lon="3.24199">
        <ele>372.03796</ele>
        <time>2020-03-15T10:57:59Z</time>
      </trkpt>
      <trkpt lat="45.77766" lon="3.24184">
        <ele>371.75946</ele>
        <time>2020-03-15T10:58:02Z</time>
      </trkpt>
      <trkpt lat="45.77771" lon="3.24167">
        <ele>371.33765</ele>
        <time>2020-03-15T10:58:05Z</time>
      </trkpt>
      <trkpt lat="45.77774" lon="3.24154">
        <ele>371.0831</ele>
        <time>2020-03-15T10:58:07Z</time>
      </trkpt>
      <trkpt lat="45.77779" lon="3.24139">
        <ele>370.378</ele>
        <time>2020-03-15T10:58:09Z</time>
      </trkpt>
      <trkpt lat="45.77785" lon="3.24122">
        <ele>369.43604</ele>
        <time>2020-03-15T10:58:11Z</time>
      </trkpt>
      <trkpt lat="45.77793" lon="3.24106">
        <ele>368.28693</ele>
        <time>2020-03-15T10:58:13Z</time>
      </trkpt>
      <trkpt lat="45.77802" lon="3.24091">
        <ele>367.37772</ele>
        <time>2020-03-15T10:58:15Z</time>
      </trkpt>
      <trkpt lat="45.77811" lon="3.24078">
        <ele>366.7974</ele>
        <time>2020-03-15T10:58:17Z</time>
      </trkpt>
      <trkpt lat="45.77818" lon="3.24066">
        <ele>366.29688</ele>
        <time>2020-03-15T10:58:19Z</time>
      </trkpt>
      <trkpt lat="45.77824" lon="3.24055">
        <ele>365.98227</ele>
        <time>2020-03-15T10:58:21Z</time>
      </trkpt>
      <trkpt lat="45.77831" lon="3.2404">
        <ele>366.20694</ele>
        <time>2020-03-15T10:58:24Z</time>
      </trkpt>
      <trkpt lat="45.77836" lon="3.24027">
        <ele>365.77252</ele>
        <time>2020-03-15T10:58:26Z</time>
      </trkpt>
      <trkpt lat="45.77842" lon="3.24015">
        <ele>365.06592</ele>
        <time>2020-03-15T10:58:28Z</time>
      </trkpt>
      <trkpt lat="45.77845" lon="3.24003">
        <ele>364.37204</ele>
        <time>2020-03-15T10:58:30Z</time>
      </trkpt>
      <trkpt lat="45.77848" lon="3.23986">
        <ele>364.20288</ele>
        <time>2020-03-15T10:58:33Z</time>
      </trkpt>
      <trkpt lat="45.77852" lon="3.23969">
        <ele>363.90686</ele>
        <time>2020-03-15T10:58:36Z</time>
      </trkpt>
      <trkpt lat="45.77854" lon="3.23951">
        <ele>364.11685</ele>
        <time>2020-03-15T10:58:39Z</time>
      </trkpt>
      <trkpt lat="45.77855" lon="3.23934">
        <ele>364.1165</ele>
        <time>2020-03-15T10:58:42Z</time>
      </trkpt>
      <trkpt lat="45.77856" lon="3.23916">
        <ele>363.4374</ele>
        <time>2020-03-15T10:58:45Z</time>
      </trkpt>
      <trkpt lat="45.7786" lon="3.23902">
        <ele>363.24872</ele>
        <time>2020-03-15T10:58:48Z</time>
      </trkpt>
      <trkpt lat="45.77869" lon="3.23894">
        <ele>362.69254</ele>
        <time>2020-03-15T10:58:51Z</time>
      </trkpt>
      <trkpt lat="45.77877" lon="3.23884">
        <ele>362.58478</ele>
        <time>2020-03-15T10:58:54Z</time>
      </trkpt>
      <trkpt lat="45.77883" lon="3.2387">
        <ele>362.55444</ele>
        <time>2020-03-15T10:58:57Z</time>
      </trkpt>
      <trkpt lat="45.77888" lon="3.23855">
        <ele>361.8867</ele>
        <time>2020-03-15T10:59:00Z</time>
      </trkpt>
      <trkpt lat="45.77889" lon="3.23841">
        <ele>362.2427</ele>
        <time>2020-03-15T10:59:03Z</time>
      </trkpt>
      <trkpt lat="45.77889" lon="3.23825">
        <ele>362.55496</ele>
        <time>2020-03-15T10:59:06Z</time>
      </trkpt>
      <trkpt lat="45.77887" lon="3.23809">
        <ele>362.6915</ele>
        <time>2020-03-15T10:59:09Z</time>
      </trkpt>
      <trkpt lat="45.77887" lon="3.23795">
        <ele>363.3082</ele>
        <time>2020-03-15T10:59:12Z</time>
      </trkpt>
      <trkpt lat="45.77886" lon="3.23782">
        <ele>364.11304</ele>
        <time>2020-03-15T10:59:15Z</time>
      </trkpt>
      <trkpt lat="45.77887" lon="3.23769">
        <ele>364.11304</ele>
        <time>2020-03-15T10:59:18Z</time>
      </trkpt>
      <trkpt lat="45.77888" lon="3.23754">
        <ele>363.74722</ele>
        <time>2020-03-15T10:59:21Z</time>
      </trkpt>
      <trkpt lat="45.7789" lon="3.23741">
        <ele>365.52505</ele>
        <time>2020-03-15T10:59:24Z</time>
      </trkpt>
      <trkpt lat="45.77893" lon="3.23725">
        <ele>365.46713</ele>
        <time>2020-03-15T10:59:28Z</time>
      </trkpt>
      <trkpt lat="45.77897" lon="3.23711">
        <ele>365.40552</ele>
        <time>2020-03-15T10:59:32Z</time>
      </trkpt>
      <trkpt lat="45.779" lon="3.23697">
        <ele>364.5738</ele>
        <time>2020-03-15T10:59:37Z</time>
      </trkpt>
      <trkpt lat="45.77903" lon="3.23684">
        <ele>363.66293</ele>
        <time>2020-03-15T10:59:43Z</time>
      </trkpt>
      <trkpt lat="45.77908" lon="3.23672">
        <ele>363.83017</ele>
        <time>2020-03-15T10:59:50Z</time>
      </trkpt>
      <trkpt lat="45.77913" lon="3.23659">
        <ele>364.6358</ele>
        <time>2020-03-15T10:59:57Z</time>
      </trkpt>
      <trkpt lat="45.77914" lon="3.23658">
        <ele>364.9673</ele>
        <time>2020-03-15T11:00:01Z</time>
      </trkpt>
      <trkpt lat="45.77914" lon="3.23658">
        <ele>364.9673</ele>
        <time>2020-03-15T11:00:01Z</time>
      </trkpt>
      <trkpt lat="45.77988" lon="3.23675">
        <ele>368.51898</ele>
        <time>2020-03-15T11:00:37Z</time>
      </trkpt>
      <trkpt lat="45.77996" lon="3.23667">
        <ele>369.34085</ele>
        <time>2020-03-15T11:00:44Z</time>
      </trkpt>
      <trkpt lat="45.77997" lon="3.2365">
        <ele>369.55405</ele>
        <time>2020-03-15T11:00:48Z</time>
      </trkpt>
      <trkpt lat="45.77999" lon="3.23635">
        <ele>369.84952</ele>
        <time>2020-03-15T11:00:52Z</time>
      </trkpt>
      <trkpt lat="45.78" lon="3.23622">
        <ele>369.838</ele>
        <time>2020-03-15T11:00:55Z</time>
      </trkpt>
      <trkpt lat="45.78001" lon="3.23608">
        <ele>369.74716</ele>
        <time>2020-03-15T11:00:58Z</time>
      </trkpt>
      <trkpt lat="45.78002" lon="3.23594">
        <ele>369.89908</ele>
        <time>2020-03-15T11:01:01Z</time>
      </trkpt>
      <trkpt lat="45.78004" lon="3.23581">
        <ele>370.30334</ele>
        <time>2020-03-15T11:01:04Z</time>
      </trkpt>
      <trkpt lat="45.78005" lon="3.23567">
        <ele>370.67142</ele>
        <time>2020-03-15T11:01:07Z</time>
      </trkpt>
      <trkpt lat="45.78006" lon="3.2355">
        <ele>371.24512</ele>
        <time>2020-03-15T11:01:11Z</time>
      </trkpt>
      <trkpt lat="45.78007" lon="3.23534">
        <ele>372.24982</ele>
        <time>2020-03-15T11:01:15Z</time>
      </trkpt>
      <trkpt lat="45.78007" lon="3.23519">
        <ele>373.42307</ele>
        <time>2020-03-15T11:01:19Z</time>
      </trkpt>
      <trkpt lat="45.78008" lon="3.23504">
        <ele>374.33243</ele>
        <time>2020-03-15T11:01:23Z</time>
      </trkpt>
      <trkpt lat="45.78009" lon="3.23488">
        <ele>375.4396</ele>
        <time>2020-03-15T11:01:27Z</time>
      </trkpt>
      <trkpt lat="45.7801" lon="3.23474">
        <ele>376.1925</ele>
        <time>2020-03-15T11:01:31Z</time>
      </trkpt>
      <trkpt lat="45.78006" lon="3.23462">
        <ele>377.2197</ele>
        <time>2020-03-15T11:01:36Z</time>
      </trkpt>
      <trkpt lat="45.77996" lon="3.23454">
        <ele>378.32474</ele>
        <time>2020-03-15T11:01:41Z</time>
      </trkpt>
      <trkpt lat="45.77987" lon="3.23446">
        <ele>378.80612</ele>
        <time>2020-03-15T11:01:46Z</time>
      </trkpt>
      <trkpt lat="45.77977" lon="3.23438">
        <ele>379.78687</ele>
        <time>2020-03-15T11:01:51Z</time>
      </trkpt>
      <trkpt lat="45.7797" lon="3.23431">
        <ele>380.45752</ele>
        <time>2020-03-15T11:01:56Z</time>
      </trkpt>
      <trkpt lat="45.77962" lon="3.23422">
        <ele>380.6945</ele>
        <time>2020-03-15T11:02:01Z</time>
      </trkpt>
      <trkpt lat="45.77953" lon="3.23416">
        <ele>380.98987</ele>
        <time>2020-03-15T11:02:06Z</time>
      </trkpt>
      <trkpt lat="45.77944" lon="3.23408">
        <ele>381.87204</ele>
        <time>2020-03-15T11:02:12Z</time>
      </trkpt>
      <trkpt lat="45.77936" lon="3.23398">
        <ele>381.6369</ele>
        <time>2020-03-15T11:02:18Z</time>
      </trkpt>
      <trkpt lat="45.77927" lon="3.23389">
        <ele>381.95438</ele>
        <time>2020-03-15T11:02:24Z</time>
      </trkpt>
      <trkpt lat="45.77919" lon="3.23381">
        <ele>382.41678</ele>
        <time>2020-03-15T11:02:29Z</time>
      </trkpt>
      <trkpt lat="45.77912" lon="3.23372">
        <ele>382.99075</ele>
        <time>2020-03-15T11:02:34Z</time>
      </trkpt>
      <trkpt lat="45.77904" lon="3.23363">
        <ele>383.12265</ele>
        <time>2020-03-15T11:02:40Z</time>
      </trkpt>
      <trkpt lat="45.77897" lon="3.23355">
        <ele>383.627</ele>
        <time>2020-03-15T11:02:46Z</time>
      </trkpt>
      <trkpt lat="45.77889" lon="3.23347">
        <ele>384.79233</ele>
        <time>2020-03-15T11:02:53Z</time>
      </trkpt>
      <trkpt lat="45.77881" lon="3.2334">
        <ele>385.9475</ele>
        <time>2020-03-15T11:03:00Z</time>
      </trkpt>
      <trkpt lat="45.77879" lon="3.23337">
        <ele>386.292</ele>
        <time>2020-03-15T11:03:02Z</time>
      </trkpt>
      <trkpt lat="45.77879" lon="3.23337">
        <ele>386.292</ele>
        <time>2020-03-15T11:03:02Z</time>
      </trkpt>
      <trkpt lat="45.77865" lon="3.23327">
        <ele>389.24823</ele>
        <time>2020-03-15T11:03:15Z</time>
      </trkpt>
      <trkpt lat="45.77856" lon="3.23319">
        <ele>389.94943</ele>
        <time>2020-03-15T11:03:23Z</time>
      </trkpt>
      <trkpt lat="45.77849" lon="3.23311">
        <ele>391.63965</ele>
        <time>2020-03-15T11:03:31Z</time>
      </trkpt>
      <trkpt lat="45.77841" lon="3.23304">
        <ele>392.941</ele>
        <time>2020-03-15T11:03:38Z</time>
      </trkpt>
      <trkpt lat="45.77833" lon="3.23295">
        <ele>394.123</ele>
        <time>2020-03-15T11:03:45Z</time>
      </trkpt>
      <trkpt lat="45.77825" lon="3.23288">
        <ele>394.7458</ele>
        <time>2020-03-15T11:03:52Z</time>
      </trkpt>
      <trkpt lat="45.77817" lon="3.23281">
        <ele>395.83514</ele>
        <time>2020-03-15T11:03:58Z</time>
      </trkpt>
      <trkpt lat="45.77816" lon="3.2328">
        <ele>396.00735</ele>
        <time>2020-03-15T11:03:59Z</time>
      </trkpt>
      <trkpt lat="45.77815" lon="3.23279">
        <ele>396.2681</ele>
        <time>2020-03-15T11:04:00Z</time>
      </trkpt>
      <trkpt lat="45.77813" lon="3.23278">
        <ele>396.449</ele>
        <time>2020-03-15T11:04:01Z</time>
      </trkpt>
      <trkpt lat="45.77812" lon="3.23276">
        <ele>396.77798</ele>
        <time>2020-03-15T11:04:02Z</time>
      </trkpt>
      <trkpt lat="45.77811" lon="3.23275">
        <ele>397.006</ele>
        <time>2020-03-15T11:04:03Z</time>
      </trkpt>
      <trkpt lat="45.7781" lon="3.23274">
        <ele>397.2158</ele>
        <time>2020-03-15T11:04:04Z</time>
      </trkpt>
      <trkpt lat="45.77809" lon="3.23273">
        <ele>397.48178</ele>
        <time>2020-03-15T11:04:05Z</time>
      </trkpt>
      <trkpt lat="45.77808" lon="3.23271">
        <ele>397.7662</ele>
        <time>2020-03-15T11:04:06Z</time>
      </trkpt>
      <trkpt lat="45.77807" lon="3.2327">
        <ele>398.17374</ele>
        <time>2020-03-15T11:04:07Z</time>
      </trkpt>
      <trkpt lat="45.77806" lon="3.23268">
        <ele>398.36215</ele>
        <time>2020-03-15T11:04:08Z</time>
      </trkpt>
      <trkpt lat="45.77805" lon="3.23266">
        <ele>398.3678</ele>
        <time>2020-03-15T11:04:09Z</time>
      </trkpt>
      <trkpt lat="45.77805" lon="3.23263">
        <ele>398.3294</ele>
        <time>2020-03-15T11:04:10Z</time>
      </trkpt>
      <trkpt lat="45.77804" lon="3.2325">
        <ele>397.55963</ele>
        <time>2020-03-15T11:04:17Z</time>
      </trkpt>
      <trkpt lat="45.77805" lon="3.23235">
        <ele>397.11923</ele>
        <time>2020-03-15T11:04:23Z</time>
      </trkpt>
      <trkpt lat="45.77806" lon="3.23219">
        <ele>397.53665</ele>
        <time>2020-03-15T11:04:28Z</time>
      </trkpt>
      <trkpt lat="45.77807" lon="3.23203">
        <ele>397.713</ele>
        <time>2020-03-15T11:04:32Z</time>
      </trkpt>
      <trkpt lat="45.77807" lon="3.23188">
        <ele>397.68268</ele>
        <time>2020-03-15T11:04:36Z</time>
      </trkpt>
      <trkpt lat="45.77807" lon="3.23174">
        <ele>400.06717</ele>
        <time>2020-03-15T11:04:42Z</time>
      </trkpt>
      <trkpt lat="45.77807" lon="3.23171">
        <ele>400.2303</ele>
        <time>2020-03-15T11:04:43Z</time>
      </trkpt>
      <trkpt lat="45.77807" lon="3.23169">
        <ele>400.3036</ele>
        <time>2020-03-15T11:04:44Z</time>
      </trkpt>
      <trkpt lat="45.77807" lon="3.23166">
        <ele>400.36276</ele>
        <time>2020-03-15T11:04:45Z</time>
      </trkpt>
      <trkpt lat="45.77807" lon="3.23163">
        <ele>400.37808</ele>
        <time>2020-03-15T11:04:46Z</time>
      </trkpt>
      <trkpt lat="45.77807" lon="3.2316">
        <ele>400.43372</ele>
        <time>2020-03-15T11:04:47Z</time>
      </trkpt>
      <trkpt lat="45.77807" lon="3.23157">
        <ele>400.48245</ele>
        <time>2020-03-15T11:04:48Z</time>
      </trkpt>
      <trkpt lat="45.77807" lon="3.23153">
        <ele>400.61197</ele>
        <time>2020-03-15T11:04:49Z</time>
      </trkpt>
      <trkpt lat="45.77807" lon="3.2315">
        <ele>400.67905</ele>
        <time>2020-03-15T11:04:50Z</time>
      </trkpt>
      <trkpt lat="45.77808" lon="3.23147">
        <ele>400.7305</ele>
        <time>2020-03-15T11:04:51Z</time>
      </trkpt>
      <trkpt lat="45.77809" lon="3.23144">
        <ele>400.7209</ele>
        <time>2020-03-15T11:04:52Z</time>
      </trkpt>
      <trkpt lat="45.77812" lon="3.23131">
        <ele>400.76913</ele>
        <time>2020-03-15T11:04:56Z</time>
      </trkpt>
      <trkpt lat="45.77813" lon="3.23128">
        <ele>400.72586</ele>
        <time>2020-03-15T11:04:57Z</time>
      </trkpt>
      <trkpt lat="45.77815" lon="3.23115">
        <ele>400.68362</ele>
        <time>2020-03-15T11:05:01Z</time>
      </trkpt>
      <trkpt lat="45.77816" lon="3.23112">
        <ele>400.65887</ele>
        <time>2020-03-15T11:05:02Z</time>
      </trkpt>
      <trkpt lat="45.77818" lon="3.23096">
        <ele>400.70505</ele>
        <time>2020-03-15T11:05:07Z</time>
      </trkpt>
      <trkpt lat="45.77821" lon="3.23084">
        <ele>401.2675</ele>
        <time>2020-03-15T11:05:11Z</time>
      </trkpt>
      <trkpt lat="45.77821" lon="3.23081">
        <ele>401.31277</ele>
        <time>2020-03-15T11:05:12Z</time>
      </trkpt>
      <trkpt lat="45.77822" lon="3.23078">
        <ele>401.43243</ele>
        <time>2020-03-15T11:05:13Z</time>
      </trkpt>
      <trkpt lat="45.77823" lon="3.23074">
        <ele>401.34442</ele>
        <time>2020-03-15T11:05:14Z</time>
      </trkpt>
      <trkpt lat="45.77825" lon="3.23061">
        <ele>401.13168</ele>
        <time>2020-03-15T11:05:18Z</time>
      </trkpt>
      <trkpt lat="45.77829" lon="3.23046">
        <ele>400.6568</ele>
        <time>2020-03-15T11:05:22Z</time>
      </trkpt>
      <trkpt lat="45.77832" lon="3.23031">
        <ele>400.55005</ele>
        <time>2020-03-15T11:05:26Z</time>
      </trkpt>
      <trkpt lat="45.77834" lon="3.23017">
        <ele>400.93848</ele>
        <time>2020-03-15T11:05:30Z</time>
      </trkpt>
      <trkpt lat="45.77838" lon="3.23002">
        <ele>401.0932</ele>
        <time>2020-03-15T11:05:34Z</time>
      </trkpt>
      <trkpt lat="45.77841" lon="3.22987">
        <ele>401.3567</ele>
        <time>2020-03-15T11:05:38Z</time>
      </trkpt>
      <trkpt lat="45.77845" lon="3.22973">
        <ele>401.51703</ele>
        <time>2020-03-15T11:05:42Z</time>
      </trkpt>
      <trkpt lat="45.77845" lon="3.2297">
        <ele>401.70187</ele>
        <time>2020-03-15T11:05:43Z</time>
      </trkpt>
      <trkpt lat="45.77846" lon="3.22966">
        <ele>401.8676</ele>
        <time>2020-03-15T11:05:44Z</time>
      </trkpt>
      <trkpt lat="45.77847" lon="3.22963">
        <ele>401.98447</ele>
        <time>2020-03-15T11:05:45Z</time>
      </trkpt>
      <trkpt lat="45.77848" lon="3.22959">
        <ele>402.13214</ele>
        <time>2020-03-15T11:05:46Z</time>
      </trkpt>
      <trkpt lat="45.77848" lon="3.22956">
        <ele>402.2376</ele>
        <time>2020-03-15T11:05:47Z</time>
      </trkpt>
      <trkpt lat="45.7785" lon="3.22952">
        <ele>402.2586</ele>
        <time>2020-03-15T11:05:48Z</time>
      </trkpt>
      <trkpt lat="45.7785" lon="3.22948">
        <ele>402.45502</ele>
        <time>2020-03-15T11:05:49Z</time>
      </trkpt>
      <trkpt lat="45.77852" lon="3.22945">
        <ele>402.53</ele>
        <time>2020-03-15T11:05:50Z</time>
      </trkpt>
      <trkpt lat="45.77852" lon="3.22941">
        <ele>402.6789</ele>
        <time>2020-03-15T11:05:51Z</time>
      </trkpt>
      <trkpt lat="45.77853" lon="3.22938">
        <ele>402.7703</ele>
        <time>2020-03-15T11:05:52Z</time>
      </trkpt>
      <trkpt lat="45.77854" lon="3.22935">
        <ele>402.78204</ele>
        <time>2020-03-15T11:05:53Z</time>
      </trkpt>
      <trkpt lat="45.77855" lon="3.22931">
        <ele>402.8443</ele>
        <time>2020-03-15T11:05:54Z</time>
      </trkpt>
      <trkpt lat="45.77856" lon="3.22928">
        <ele>402.8734</ele>
        <time>2020-03-15T11:05:55Z</time>
      </trkpt>
      <trkpt lat="45.77857" lon="3.22924">
        <ele>402.92932</ele>
        <time>2020-03-15T11:05:56Z</time>
      </trkpt>
      <trkpt lat="45.77858" lon="3.2292">
        <ele>403.07947</ele>
        <time>2020-03-15T11:05:57Z</time>
      </trkpt>
      <trkpt lat="45.77858" lon="3.22917">
        <ele>403.23065</ele>
        <time>2020-03-15T11:05:58Z</time>
      </trkpt>
      <trkpt lat="45.7786" lon="3.22913">
        <ele>403.36496</ele>
        <time>2020-03-15T11:05:59Z</time>
      </trkpt>
      <trkpt lat="45.77861" lon="3.22909">
        <ele>403.4762</ele>
        <time>2020-03-15T11:06:00Z</time>
      </trkpt>
      <trkpt lat="45.77861" lon="3.22906">
        <ele>403.56308</ele>
        <time>2020-03-15T11:06:01Z</time>
      </trkpt>
      <trkpt lat="45.77862" lon="3.22902">
        <ele>403.69006</ele>
        <time>2020-03-15T11:06:02Z</time>
      </trkpt>
      <trkpt lat="45.77863" lon="3.22899">
        <ele>403.89328</ele>
        <time>2020-03-15T11:06:03Z</time>
      </trkpt>
      <trkpt lat="45.77864" lon="3.22896">
        <ele>404.1202</ele>
        <time>2020-03-15T11:06:04Z</time>
      </trkpt>
      <trkpt lat="45.77865" lon="3.22892">
        <ele>404.31073</ele>
        <time>2020-03-15T11:06:05Z</time>
      </trkpt>
      <trkpt lat="45.77866" lon="3.22889">
        <ele>404.49902</ele>
        <time>2020-03-15T11:06:06Z</time>
      </trkpt>
      <trkpt lat="45.77866" lon="3.22886">
        <ele>404.7064</ele>
        <time>2020-03-15T11:06:07Z</time>
      </trkpt>
      <trkpt lat="45.77867" lon="3.22883">
        <ele>404.81284</ele>
        <time>2020-03-15T11:06:08Z</time>
      </trkpt>
      <trkpt lat="45.77868" lon="3.2288">
        <ele>404.98105</ele>
        <time>2020-03-15T11:06:09Z</time>
      </trkpt>
      <trkpt lat="45.77869" lon="3.22876">
        <ele>405.12186</ele>
        <time>2020-03-15T11:06:10Z</time>
      </trkpt>
      <trkpt lat="45.7787" lon="3.22873">
        <ele>405.26035</ele>
        <time>2020-03-15T11:06:11Z</time>
      </trkpt>
      <trkpt lat="45.77871" lon="3.22871">
        <ele>405.46964</ele>
        <time>2020-03-15T11:06:12Z</time>
      </trkpt>
      <trkpt lat="45.77871" lon="3.22867">
        <ele>405.6367</ele>
        <time>2020-03-15T11:06:13Z</time>
      </trkpt>
      <trkpt lat="45.77872" lon="3.22864">
        <ele>405.82224</ele>
        <time>2020-03-15T11:06:14Z</time>
      </trkpt>
      <trkpt lat="45.77873" lon="3.22861">
        <ele>406.01422</ele>
        <time>2020-03-15T11:06:15Z</time>
      </trkpt>
      <trkpt lat="45.77874" lon="3.22858">
        <ele>406.19824</ele>
        <time>2020-03-15T11:06:16Z</time>
      </trkpt>
      <trkpt lat="45.77874" lon="3.22855">
        <ele>406.4377</ele>
        <time>2020-03-15T11:06:17Z</time>
      </trkpt>
      <trkpt lat="45.77875" lon="3.22852">
        <ele>406.53268</ele>
        <time>2020-03-15T11:06:18Z</time>
      </trkpt>
      <trkpt lat="45.77876" lon="3.22849">
        <ele>406.67096</ele>
        <time>2020-03-15T11:06:19Z</time>
      </trkpt>
      <trkpt lat="45.77877" lon="3.22846">
        <ele>406.85382</ele>
        <time>2020-03-15T11:06:20Z</time>
      </trkpt>
      <trkpt lat="45.77878" lon="3.22843">
        <ele>406.91296</ele>
        <time>2020-03-15T11:06:21Z</time>
      </trkpt>
      <trkpt lat="45.77879" lon="3.2284">
        <ele>407.05975</ele>
        <time>2020-03-15T11:06:22Z</time>
      </trkpt>
      <trkpt lat="45.77879" lon="3.22837">
        <ele>407.24722</ele>
        <time>2020-03-15T11:06:23Z</time>
      </trkpt>
      <trkpt lat="45.7788" lon="3.22833">
        <ele>407.23022</ele>
        <time>2020-03-15T11:06:24Z</time>
      </trkpt>
      <trkpt lat="45.77883" lon="3.2282">
        <ele>407.61703</ele>
        <time>2020-03-15T11:06:28Z</time>
      </trkpt>
      <trkpt lat="45.77884" lon="3.22817">
        <ele>407.74448</ele>
        <time>2020-03-15T11:06:29Z</time>
      </trkpt>
      <trkpt lat="45.77885" lon="3.22814">
        <ele>407.91254</ele>
        <time>2020-03-15T11:06:30Z</time>
      </trkpt>
      <trkpt lat="45.77886" lon="3.22811">
        <ele>408.0105</ele>
        <time>2020-03-15T11:06:31Z</time>
      </trkpt>
      <trkpt lat="45.77887" lon="3.22808">
        <ele>408.21262</ele>
        <time>2020-03-15T11:06:32Z</time>
      </trkpt>
      <trkpt lat="45.77887" lon="3.22805">
        <ele>408.33167</ele>
        <time>2020-03-15T11:06:33Z</time>
      </trkpt>
      <trkpt lat="45.77888" lon="3.22802">
        <ele>408.46454</ele>
        <time>2020-03-15T11:06:34Z</time>
      </trkpt>
      <trkpt lat="45.77889" lon="3.22798">
        <ele>408.54004</ele>
        <time>2020-03-15T11:06:35Z</time>
      </trkpt>
      <trkpt lat="45.7789" lon="3.22795">
        <ele>408.68124</ele>
        <time>2020-03-15T11:06:36Z</time>
      </trkpt>
      <trkpt lat="45.7789" lon="3.22792">
        <ele>408.88947</ele>
        <time>2020-03-15T11:06:37Z</time>
      </trkpt>
      <trkpt lat="45.77891" lon="3.22789">
        <ele>409.0537</ele>
        <time>2020-03-15T11:06:38Z</time>
      </trkpt>
      <trkpt lat="45.77892" lon="3.22786">
        <ele>409.18674</ele>
        <time>2020-03-15T11:06:39Z</time>
      </trkpt>
      <trkpt lat="45.77893" lon="3.22783">
        <ele>409.3579</ele>
        <time>2020-03-15T11:06:40Z</time>
      </trkpt>
      <trkpt lat="45.77894" lon="3.2278">
        <ele>409.51205</ele>
        <time>2020-03-15T11:06:41Z</time>
      </trkpt>
      <trkpt lat="45.77895" lon="3.22777">
        <ele>409.68527</ele>
        <time>2020-03-15T11:06:42Z</time>
      </trkpt>
      <trkpt lat="45.77896" lon="3.22773">
        <ele>409.74777</ele>
        <time>2020-03-15T11:06:43Z</time>
      </trkpt>
      <trkpt lat="45.77897" lon="3.2277">
        <ele>409.76276</ele>
        <time>2020-03-15T11:06:44Z</time>
      </trkpt>
      <trkpt lat="45.77898" lon="3.22767">
        <ele>409.90945</ele>
        <time>2020-03-15T11:06:45Z</time>
      </trkpt>
      <trkpt lat="45.77898" lon="3.22764">
        <ele>410.16135</ele>
        <time>2020-03-15T11:06:46Z</time>
      </trkpt>
      <trkpt lat="45.77899" lon="3.2276">
        <ele>410.33536</ele>
        <time>2020-03-15T11:06:47Z</time>
      </trkpt>
      <trkpt lat="45.779" lon="3.22757">
        <ele>410.5202</ele>
        <time>2020-03-15T11:06:48Z</time>
      </trkpt>
      <trkpt lat="45.77901" lon="3.22754">
        <ele>410.72885</ele>
        <time>2020-03-15T11:06:49Z</time>
      </trkpt>
      <trkpt lat="45.77902" lon="3.2275">
        <ele>410.8574</ele>
        <time>2020-03-15T11:06:50Z</time>
      </trkpt>
      <trkpt lat="45.77903" lon="3.22747">
        <ele>410.97818</ele>
        <time>2020-03-15T11:06:51Z</time>
      </trkpt>
      <trkpt lat="45.77904" lon="3.22743">
        <ele>411.103</ele>
        <time>2020-03-15T11:06:52Z</time>
      </trkpt>
      <trkpt lat="45.77905" lon="3.2274">
        <ele>411.03937</ele>
        <time>2020-03-15T11:06:53Z</time>
      </trkpt>
      <trkpt lat="45.77908" lon="3.22727">
        <ele>411.15454</ele>
        <time>2020-03-15T11:06:57Z</time>
      </trkpt>
      <trkpt lat="45.77908" lon="3.22724">
        <ele>411.2068</ele>
        <time>2020-03-15T11:06:58Z</time>
      </trkpt>
      <trkpt lat="45.77908" lon="3.22721">
        <ele>411.34656</ele>
        <time>2020-03-15T11:06:59Z</time>
      </trkpt>
      <trkpt lat="45.77909" lon="3.22718">
        <ele>411.5031</ele>
        <time>2020-03-15T11:07:00Z</time>
      </trkpt>
      <trkpt lat="45.7791" lon="3.22715">
        <ele>411.61786</ele>
        <time>2020-03-15T11:07:01Z</time>
      </trkpt>
      <trkpt lat="45.77911" lon="3.22713">
        <ele>411.71436</ele>
        <time>2020-03-15T11:07:02Z</time>
      </trkpt>
      <trkpt lat="45.77911" lon="3.2271">
        <ele>411.7223</ele>
        <time>2020-03-15T11:07:03Z</time>
      </trkpt>
      <trkpt lat="45.77912" lon="3.22707">
        <ele>411.764</ele>
        <time>2020-03-15T11:07:04Z</time>
      </trkpt>
      <trkpt lat="45.77913" lon="3.22704">
        <ele>411.89597</ele>
        <time>2020-03-15T11:07:05Z</time>
      </trkpt>
      <trkpt lat="45.77914" lon="3.22701">
        <ele>411.99277</ele>
        <time>2020-03-15T11:07:06Z</time>
      </trkpt>
      <trkpt lat="45.77914" lon="3.22698">
        <ele>412.01175</ele>
        <time>2020-03-15T11:07:07Z</time>
      </trkpt>
      <trkpt lat="45.77915" lon="3.22694">
        <ele>412.0573</ele>
        <time>2020-03-15T11:07:08Z</time>
      </trkpt>
      <trkpt lat="45.77916" lon="3.22691">
        <ele>412.1317</ele>
        <time>2020-03-15T11:07:09Z</time>
      </trkpt>
      <trkpt lat="45.77916" lon="3.22688">
        <ele>412.20914</ele>
        <time>2020-03-15T11:07:10Z</time>
      </trkpt>
      <trkpt lat="45.77918" lon="3.22685">
        <ele>412.1883</ele>
        <time>2020-03-15T11:07:11Z</time>
      </trkpt>
      <trkpt lat="45.77921" lon="3.22672">
        <ele>412.18857</ele>
        <time>2020-03-15T11:07:15Z</time>
      </trkpt>
      <trkpt lat="45.77922" lon="3.22669">
        <ele>412.23828</ele>
        <time>2020-03-15T11:07:16Z</time>
      </trkpt>
      <trkpt lat="45.77925" lon="3.22657">
        <ele>412.94626</ele>
        <time>2020-03-15T11:07:20Z</time>
      </trkpt>
      <trkpt lat="45.77926" lon="3.22653">
        <ele>413.26413</ele>
        <time>2020-03-15T11:07:21Z</time>
      </trkpt>
      <trkpt lat="45.77926" lon="3.2265">
        <ele>413.45728</ele>
        <time>2020-03-15T11:07:22Z</time>
      </trkpt>
      <trkpt lat="45.77927" lon="3.22648">
        <ele>413.63208</ele>
        <time>2020-03-15T11:07:23Z</time>
      </trkpt>
      <trkpt lat="45.77928" lon="3.22645">
        <ele>413.73575</ele>
        <time>2020-03-15T11:07:24Z</time>
      </trkpt>
      <trkpt lat="45.77929" lon="3.22643">
        <ele>413.88858</ele>
        <time>2020-03-15T11:07:25Z</time>
      </trkpt>
      <trkpt lat="45.7793" lon="3.22641">
        <ele>414.03558</ele>
        <time>2020-03-15T11:07:26Z</time>
      </trkpt>
      <trkpt lat="45.77931" lon="3.22638">
        <ele>414.18137</ele>
        <time>2020-03-15T11:07:27Z</time>
      </trkpt>
      <trkpt lat="45.77931" lon="3.22635">
        <ele>414.26846</ele>
        <time>2020-03-15T11:07:28Z</time>
      </trkpt>
      <trkpt lat="45.77932" lon="3.22632">
        <ele>414.33002</ele>
        <time>2020-03-15T11:07:29Z</time>
      </trkpt>
      <trkpt lat="45.77933" lon="3.22629">
        <ele>414.44504</ele>
        <time>2020-03-15T11:07:30Z</time>
      </trkpt>
      <trkpt lat="45.77934" lon="3.22626">
        <ele>414.5342</ele>
        <time>2020-03-15T11:07:31Z</time>
      </trkpt>
      <trkpt lat="45.77934" lon="3.22623">
        <ele>414.62167</ele>
        <time>2020-03-15T11:07:32Z</time>
      </trkpt>
      <trkpt lat="45.77935" lon="3.2262">
        <ele>414.62378</ele>
        <time>2020-03-15T11:07:33Z</time>
      </trkpt>
      <trkpt lat="45.77936" lon="3.22617">
        <ele>414.66708</ele>
        <time>2020-03-15T11:07:34Z</time>
      </trkpt>
      <trkpt lat="45.77937" lon="3.22614">
        <ele>414.7019</ele>
        <time>2020-03-15T11:07:35Z</time>
      </trkpt>
      <trkpt lat="45.77937" lon="3.22611">
        <ele>414.62</ele>
        <time>2020-03-15T11:07:36Z</time>
      </trkpt>
      <trkpt lat="45.7794" lon="3.22599">
        <ele>414.57574</ele>
        <time>2020-03-15T11:07:40Z</time>
      </trkpt>
      <trkpt lat="45.77943" lon="3.22587">
        <ele>414.96194</ele>
        <time>2020-03-15T11:07:44Z</time>
      </trkpt>
      <trkpt lat="45.77944" lon="3.22583">
        <ele>414.88428</ele>
        <time>2020-03-15T11:07:45Z</time>
      </trkpt>
      <trkpt lat="45.77947" lon="3.22571">
        <ele>414.8859</ele>
        <time>2020-03-15T11:07:49Z</time>
      </trkpt>
      <trkpt lat="45.7795" lon="3.22558">
        <ele>415.05667</ele>
        <time>2020-03-15T11:07:53Z</time>
      </trkpt>
      <trkpt lat="45.77951" lon="3.22555">
        <ele>414.9691</ele>
        <time>2020-03-15T11:07:54Z</time>
      </trkpt>
      <trkpt lat="45.77954" lon="3.2254">
        <ele>414.94998</ele>
        <time>2020-03-15T11:07:59Z</time>
      </trkpt>
      <trkpt lat="45.77958" lon="3.22525">
        <ele>414.98138</ele>
        <time>2020-03-15T11:08:03Z</time>
      </trkpt>
      <trkpt lat="45.77961" lon="3.22512">
        <ele>415.29678</ele>
        <time>2020-03-15T11:08:07Z</time>
      </trkpt>
      <trkpt lat="45.77962" lon="3.22509">
        <ele>415.27625</ele>
        <time>2020-03-15T11:08:08Z</time>
      </trkpt>
      <trkpt lat="45.77967" lon="3.22495">
        <ele>415.08243</ele>
        <time>2020-03-15T11:08:12Z</time>
      </trkpt>
      <trkpt lat="45.77968" lon="3.22491">
        <ele>415.02246</ele>
        <time>2020-03-15T11:08:13Z</time>
      </trkpt>
      <trkpt lat="45.77971" lon="3.22477">
        <ele>414.66522</ele>
        <time>2020-03-15T11:08:17Z</time>
      </trkpt>
      <trkpt lat="45.77974" lon="3.22464">
        <ele>414.42972</ele>
        <time>2020-03-15T11:08:21Z</time>
      </trkpt>
      <trkpt lat="45.77982" lon="3.22457">
        <ele>414.2945</ele>
        <time>2020-03-15T11:08:25Z</time>
      </trkpt>
      <trkpt lat="45.77993" lon="3.22464">
        <ele>414.24307</ele>
        <time>2020-03-15T11:08:29Z</time>
      </trkpt>
      <trkpt lat="45.78004" lon="3.22468">
        <ele>413.9487</ele>
        <time>2020-03-15T11:08:33Z</time>
      </trkpt>
      <trkpt lat="45.78015" lon="3.22471">
        <ele>413.97656</ele>
        <time>2020-03-15T11:08:37Z</time>
      </trkpt>
      <trkpt lat="45.78024" lon="3.22475">
        <ele>413.92786</ele>
        <time>2020-03-15T11:08:40Z</time>
      </trkpt>
      <trkpt lat="45.78033" lon="3.22479">
        <ele>413.8887</ele>
        <time>2020-03-15T11:08:43Z</time>
      </trkpt>
      <trkpt lat="45.78042" lon="3.22483">
        <ele>413.9411</ele>
        <time>2020-03-15T11:08:46Z</time>
      </trkpt>
      <trkpt lat="45.78051" lon="3.22487">
        <ele>414.0937</ele>
        <time>2020-03-15T11:08:49Z</time>
      </trkpt>
      <trkpt lat="45.78061" lon="3.22492">
        <ele>414.53018</ele>
        <time>2020-03-15T11:08:53Z</time>
      </trkpt>
      <trkpt lat="45.78072" lon="3.22497">
        <ele>414.87918</ele>
        <time>2020-03-15T11:08:57Z</time>
      </trkpt>
      <trkpt lat="45.78083" lon="3.22502">
        <ele>415.27686</ele>
        <time>2020-03-15T11:09:01Z</time>
      </trkpt>
      <trkpt lat="45.78095" lon="3.22508">
        <ele>415.61606</ele>
        <time>2020-03-15T11:09:05Z</time>
      </trkpt>
      <trkpt lat="45.78098" lon="3.22509">
        <ele>415.7207</ele>
        <time>2020-03-15T11:09:06Z</time>
      </trkpt>
      <trkpt lat="45.78101" lon="3.2251">
        <ele>415.82867</ele>
        <time>2020-03-15T11:09:07Z</time>
      </trkpt>
      <trkpt lat="45.78104" lon="3.22512">
        <ele>415.93155</ele>
        <time>2020-03-15T11:09:08Z</time>
      </trkpt>
      <trkpt lat="45.78107" lon="3.22513">
        <ele>416.13568</ele>
        <time>2020-03-15T11:09:09Z</time>
      </trkpt>
      <trkpt lat="45.78109" lon="3.22514">
        <ele>416.18823</ele>
        <time>2020-03-15T11:09:10Z</time>
      </trkpt>
      <trkpt lat="45.78112" lon="3.22515">
        <ele>416.2543</ele>
        <time>2020-03-15T11:09:11Z</time>
      </trkpt>
      <trkpt lat="45.78115" lon="3.22517">
        <ele>416.28577</ele>
        <time>2020-03-15T11:09:12Z</time>
      </trkpt>
      <trkpt lat="45.78117" lon="3.22518">
        <ele>416.44385</ele>
        <time>2020-03-15T11:09:13Z</time>
      </trkpt>
      <trkpt lat="45.7812" lon="3.2252">
        <ele>416.5327</ele>
        <time>2020-03-15T11:09:14Z</time>
      </trkpt>
      <trkpt lat="45.78123" lon="3.22521">
        <ele>416.62933</ele>
        <time>2020-03-15T11:09:15Z</time>
      </trkpt>
      <trkpt lat="45.78126" lon="3.22523">
        <ele>416.88297</ele>
        <time>2020-03-15T11:09:16Z</time>
      </trkpt>
      <trkpt lat="45.78128" lon="3.22524">
        <ele>417.19104</ele>
        <time>2020-03-15T11:09:17Z</time>
      </trkpt>
      <trkpt lat="45.78131" lon="3.22526">
        <ele>417.39584</ele>
        <time>2020-03-15T11:09:18Z</time>
      </trkpt>
      <trkpt lat="45.78133" lon="3.22527">
        <ele>417.55914</ele>
        <time>2020-03-15T11:09:19Z</time>
      </trkpt>
      <trkpt lat="45.78136" lon="3.22529">
        <ele>417.7769</ele>
        <time>2020-03-15T11:09:20Z</time>
      </trkpt>
      <trkpt lat="45.78139" lon="3.2253">
        <ele>417.97888</ele>
        <time>2020-03-15T11:09:21Z</time>
      </trkpt>
      <trkpt lat="45.78141" lon="3.22532">
        <ele>418.0942</ele>
        <time>2020-03-15T11:09:22Z</time>
      </trkpt>
      <trkpt lat="45.78145" lon="3.22533">
        <ele>418.30814</ele>
        <time>2020-03-15T11:09:23Z</time>
      </trkpt>
      <trkpt lat="45.78147" lon="3.22534">
        <ele>418.4832</ele>
        <time>2020-03-15T11:09:24Z</time>
      </trkpt>
      <trkpt lat="45.7815" lon="3.22536">
        <ele>418.68234</ele>
        <time>2020-03-15T11:09:25Z</time>
      </trkpt>
      <trkpt lat="45.78153" lon="3.22537">
        <ele>418.92294</ele>
        <time>2020-03-15T11:09:26Z</time>
      </trkpt>
      <trkpt lat="45.78155" lon="3.22538">
        <ele>419.21747</ele>
        <time>2020-03-15T11:09:27Z</time>
      </trkpt>
      <trkpt lat="45.78158" lon="3.22539">
        <ele>419.50427</ele>
        <time>2020-03-15T11:09:28Z</time>
      </trkpt>
      <trkpt lat="45.78161" lon="3.2254">
        <ele>419.75522</ele>
        <time>2020-03-15T11:09:29Z</time>
      </trkpt>
      <trkpt lat="45.78162" lon="3.22541">
        <ele>420.16577</ele>
        <time>2020-03-15T11:09:30Z</time>
      </trkpt>
      <trkpt lat="45.78165" lon="3.22542">
        <ele>420.5556</ele>
        <time>2020-03-15T11:09:31Z</time>
      </trkpt>
      <trkpt lat="45.78168" lon="3.22543">
        <ele>420.895</ele>
        <time>2020-03-15T11:09:32Z</time>
      </trkpt>
      <trkpt lat="45.7817" lon="3.22544">
        <ele>421.17212</ele>
        <time>2020-03-15T11:09:33Z</time>
      </trkpt>
      <trkpt lat="45.78173" lon="3.22545">
        <ele>421.421</ele>
        <time>2020-03-15T11:09:34Z</time>
      </trkpt>
      <trkpt lat="45.78175" lon="3.22546">
        <ele>421.68524</ele>
        <time>2020-03-15T11:09:35Z</time>
      </trkpt>
      <trkpt lat="45.78178" lon="3.22547">
        <ele>421.91553</ele>
        <time>2020-03-15T11:09:36Z</time>
      </trkpt>
      <trkpt lat="45.78181" lon="3.22548">
        <ele>422.0929</ele>
        <time>2020-03-15T11:09:37Z</time>
      </trkpt>
      <trkpt lat="45.78183" lon="3.22549">
        <ele>422.2692</ele>
        <time>2020-03-15T11:09:38Z</time>
      </trkpt>
      <trkpt lat="45.78186" lon="3.22551">
        <ele>422.46628</ele>
        <time>2020-03-15T11:09:39Z</time>
      </trkpt>
      <trkpt lat="45.78188" lon="3.22552">
        <ele>422.68246</ele>
        <time>2020-03-15T11:09:40Z</time>
      </trkpt>
      <trkpt lat="45.7819" lon="3.22553">
        <ele>422.94507</ele>
        <time>2020-03-15T11:09:41Z</time>
      </trkpt>
      <trkpt lat="45.78193" lon="3.22554">
        <ele>423.20743</ele>
        <time>2020-03-15T11:09:42Z</time>
      </trkpt>
      <trkpt lat="45.78195" lon="3.22555">
        <ele>423.43762</ele>
        <time>2020-03-15T11:09:43Z</time>
      </trkpt>
      <trkpt lat="45.78197" lon="3.22556">
        <ele>423.78464</ele>
        <time>2020-03-15T11:09:44Z</time>
      </trkpt>
      <trkpt lat="45.78199" lon="3.22557">
        <ele>424.12933</ele>
        <time>2020-03-15T11:09:45Z</time>
      </trkpt>
      <trkpt lat="45.78202" lon="3.22559">
        <ele>424.37283</ele>
        <time>2020-03-15T11:09:46Z</time>
      </trkpt>
      <trkpt lat="45.78204" lon="3.2256">
        <ele>424.55835</ele>
        <time>2020-03-15T11:09:47Z</time>
      </trkpt>
      <trkpt lat="45.78206" lon="3.22561">
        <ele>424.82672</ele>
        <time>2020-03-15T11:09:48Z</time>
      </trkpt>
      <trkpt lat="45.78209" lon="3.22562">
        <ele>425.05722</ele>
        <time>2020-03-15T11:09:49Z</time>
      </trkpt>
      <trkpt lat="45.78211" lon="3.22563">
        <ele>425.3823</ele>
        <time>2020-03-15T11:09:50Z</time>
      </trkpt>
      <trkpt lat="45.78213" lon="3.22564">
        <ele>425.71112</ele>
        <time>2020-03-15T11:09:51Z</time>
      </trkpt>
      <trkpt lat="45.78215" lon="3.22566">
        <ele>425.9412</ele>
        <time>2020-03-15T11:09:52Z</time>
      </trkpt>
      <trkpt lat="45.78217" lon="3.22567">
        <ele>426.29285</ele>
        <time>2020-03-15T11:09:53Z</time>
      </trkpt>
      <trkpt lat="45.7822" lon="3.22568">
        <ele>426.55057</ele>
        <time>2020-03-15T11:09:54Z</time>
      </trkpt>
      <trkpt lat="45.78222" lon="3.22569">
        <ele>426.8773</ele>
        <time>2020-03-15T11:09:55Z</time>
      </trkpt>
      <trkpt lat="45.78224" lon="3.2257">
        <ele>427.1126</ele>
        <time>2020-03-15T11:09:56Z</time>
      </trkpt>
      <trkpt lat="45.78227" lon="3.22571">
        <ele>427.37476</ele>
        <time>2020-03-15T11:09:57Z</time>
      </trkpt>
      <trkpt lat="45.78229" lon="3.22572">
        <ele>427.5842</ele>
        <time>2020-03-15T11:09:58Z</time>
      </trkpt>
      <trkpt lat="45.78231" lon="3.22573">
        <ele>427.74332</ele>
        <time>2020-03-15T11:09:59Z</time>
      </trkpt>
      <trkpt lat="45.78234" lon="3.22574">
        <ele>427.91873</ele>
        <time>2020-03-15T11:10:00Z</time>
      </trkpt>
      <trkpt lat="45.78236" lon="3.22575">
        <ele>428.027</ele>
        <time>2020-03-15T11:10:01Z</time>
      </trkpt>
      <trkpt lat="45.78239" lon="3.22576">
        <ele>428.1678</ele>
        <time>2020-03-15T11:10:02Z</time>
      </trkpt>
      <trkpt lat="45.78241" lon="3.22577">
        <ele>428.2759</ele>
        <time>2020-03-15T11:10:03Z</time>
      </trkpt>
      <trkpt lat="45.78243" lon="3.22577">
        <ele>428.48196</ele>
        <time>2020-03-15T11:10:04Z</time>
      </trkpt>
      <trkpt lat="45.78245" lon="3.22578">
        <ele>428.755</ele>
        <time>2020-03-15T11:10:05Z</time>
      </trkpt>
      <trkpt lat="45.78248" lon="3.22579">
        <ele>428.8766</ele>
        <time>2020-03-15T11:10:06Z</time>
      </trkpt>
      <trkpt lat="45.7825" lon="3.22579">
        <ele>429.01822</ele>
        <time>2020-03-15T11:10:07Z</time>
      </trkpt>
      <trkpt lat="45.78252" lon="3.2258">
        <ele>429.0509</ele>
        <time>2020-03-15T11:10:08Z</time>
      </trkpt>
      <trkpt lat="45.78254" lon="3.22581">
        <ele>429.22192</ele>
        <time>2020-03-15T11:10:09Z</time>
      </trkpt>
      <trkpt lat="45.78257" lon="3.22582">
        <ele>429.37283</ele>
        <time>2020-03-15T11:10:10Z</time>
      </trkpt>
      <trkpt lat="45.78259" lon="3.22583">
        <ele>429.56888</ele>
        <time>2020-03-15T11:10:11Z</time>
      </trkpt>
      <trkpt lat="45.78261" lon="3.22584">
        <ele>429.7536</ele>
        <time>2020-03-15T11:10:12Z</time>
      </trkpt>
      <trkpt lat="45.78264" lon="3.22585">
        <ele>429.87424</ele>
        <time>2020-03-15T11:10:13Z</time>
      </trkpt>
      <trkpt lat="45.78266" lon="3.22585">
        <ele>429.98523</ele>
        <time>2020-03-15T11:10:14Z</time>
      </trkpt>
      <trkpt lat="45.78268" lon="3.22587">
        <ele>430.01523</ele>
        <time>2020-03-15T11:10:15Z</time>
      </trkpt>
      <trkpt lat="45.78271" lon="3.22588">
        <ele>430.02066</ele>
        <time>2020-03-15T11:10:16Z</time>
      </trkpt>
      <trkpt lat="45.78274" lon="3.22589">
        <ele>430.14627</ele>
        <time>2020-03-15T11:10:17Z</time>
      </trkpt>
      <trkpt lat="45.78276" lon="3.2259">
        <ele>430.18085</ele>
        <time>2020-03-15T11:10:18Z</time>
      </trkpt>
      <trkpt lat="45.78279" lon="3.22592">
        <ele>430.1595</ele>
        <time>2020-03-15T11:10:19Z</time>
      </trkpt>
      <trkpt lat="45.78288" lon="3.22597">
        <ele>430.0761</ele>
        <time>2020-03-15T11:10:23Z</time>
      </trkpt>
      <trkpt lat="45.78298" lon="3.22605">
        <ele>430.42148</ele>
        <time>2020-03-15T11:10:27Z</time>
      </trkpt>
      <trkpt lat="45.78301" lon="3.22608">
        <ele>430.49225</ele>
        <time>2020-03-15T11:10:28Z</time>
      </trkpt>
      <trkpt lat="45.78303" lon="3.2261">
        <ele>430.46603</ele>
        <time>2020-03-15T11:10:29Z</time>
      </trkpt>
      <trkpt lat="45.78312" lon="3.22618">
        <ele>430.70792</ele>
        <time>2020-03-15T11:10:33Z</time>
      </trkpt>
      <trkpt lat="45.78314" lon="3.2262">
        <ele>430.7476</ele>
        <time>2020-03-15T11:10:34Z</time>
      </trkpt>
      <trkpt lat="45.78317" lon="3.22623">
        <ele>430.80533</ele>
        <time>2020-03-15T11:10:35Z</time>
      </trkpt>
      <trkpt lat="45.78319" lon="3.22625">
        <ele>430.76175</ele>
        <time>2020-03-15T11:10:36Z</time>
      </trkpt>
      <trkpt lat="45.78329" lon="3.22634">
        <ele>430.4936</ele>
        <time>2020-03-15T11:10:40Z</time>
      </trkpt>
      <trkpt lat="45.78336" lon="3.22643">
        <ele>430.09857</ele>
        <time>2020-03-15T11:10:43Z</time>
      </trkpt>
      <trkpt lat="45.78344" lon="3.22653">
        <ele>429.86157</ele>
        <time>2020-03-15T11:10:46Z</time>
      </trkpt>
      <trkpt lat="45.78354" lon="3.22668">
        <ele>429.43048</ele>
        <time>2020-03-15T11:10:49Z</time>
      </trkpt>
      <trkpt lat="45.7836" lon="3.22678">
        <ele>429.1327</ele>
        <time>2020-03-15T11:10:51Z</time>
      </trkpt>
      <trkpt lat="45.78368" lon="3.22689">
        <ele>428.67496</ele>
        <time>2020-03-15T11:10:53Z</time>
      </trkpt>
      <trkpt lat="45.78375" lon="3.22701">
        <ele>428.218</ele>
        <time>2020-03-15T11:10:55Z</time>
      </trkpt>
      <trkpt lat="45.78383" lon="3.22713">
        <ele>427.73843</ele>
        <time>2020-03-15T11:10:57Z</time>
      </trkpt>
      <trkpt lat="45.78391" lon="3.22725">
        <ele>427.2861</ele>
        <time>2020-03-15T11:10:59Z</time>
      </trkpt>
      <trkpt lat="45.78399" lon="3.22737">
        <ele>426.73148</ele>
        <time>2020-03-15T11:11:01Z</time>
      </trkpt>
      <trkpt lat="45.78407" lon="3.22749">
        <ele>426.3426</ele>
        <time>2020-03-15T11:11:03Z</time>
      </trkpt>
      <trkpt lat="45.78416" lon="3.22761">
        <ele>425.78827</ele>
        <time>2020-03-15T11:11:05Z</time>
      </trkpt>
      <trkpt lat="45.78425" lon="3.22774">
        <ele>425.18774</ele>
        <time>2020-03-15T11:11:07Z</time>
      </trkpt>
      <trkpt lat="45.78436" lon="3.22787">
        <ele>424.403</ele>
        <time>2020-03-15T11:11:09Z</time>
      </trkpt>
      <trkpt lat="45.78446" lon="3.22801">
        <ele>423.31992</ele>
        <time>2020-03-15T11:11:11Z</time>
      </trkpt>
      <trkpt lat="45.78455" lon="3.22814">
        <ele>422.3805</ele>
        <time>2020-03-15T11:11:13Z</time>
      </trkpt>
      <trkpt lat="45.78465" lon="3.22828">
        <ele>421.4994</ele>
        <time>2020-03-15T11:11:15Z</time>
      </trkpt>
      <trkpt lat="45.78475" lon="3.2284">
        <ele>420.42978</ele>
        <time>2020-03-15T11:11:17Z</time>
      </trkpt>
      <trkpt lat="45.78486" lon="3.22851">
        <ele>419.40192</ele>
        <time>2020-03-15T11:11:19Z</time>
      </trkpt>
      <trkpt lat="45.78497" lon="3.22861">
        <ele>418.47748</ele>
        <time>2020-03-15T11:11:21Z</time>
      </trkpt>
      <trkpt lat="45.7851" lon="3.2287">
        <ele>417.6347</ele>
        <time>2020-03-15T11:11:23Z</time>
      </trkpt>
      <trkpt lat="45.78521" lon="3.22879">
        <ele>416.83795</ele>
        <time>2020-03-15T11:11:25Z</time>
      </trkpt>
      <trkpt lat="45.78533" lon="3.22886">
        <ele>415.9639</ele>
        <time>2020-03-15T11:11:27Z</time>
      </trkpt>
      <trkpt lat="45.78544" lon="3.22894">
        <ele>415.10867</ele>
        <time>2020-03-15T11:11:29Z</time>
      </trkpt>
      <trkpt lat="45.78554" lon="3.229">
        <ele>414.41217</ele>
        <time>2020-03-15T11:11:31Z</time>
      </trkpt>
      <trkpt lat="45.78565" lon="3.22908">
        <ele>413.577</ele>
        <time>2020-03-15T11:11:33Z</time>
      </trkpt>
      <trkpt lat="45.78577" lon="3.22915">
        <ele>412.64734</ele>
        <time>2020-03-15T11:11:35Z</time>
      </trkpt>
      <trkpt lat="45.7859" lon="3.22922">
        <ele>411.44418</ele>
        <time>2020-03-15T11:11:37Z</time>
      </trkpt>
      <trkpt lat="45.78606" lon="3.22929">
        <ele>410.332</ele>
        <time>2020-03-15T11:11:39Z</time>
      </trkpt>
      <trkpt lat="45.78623" lon="3.22936">
        <ele>409.2541</ele>
        <time>2020-03-15T11:11:41Z</time>
      </trkpt>
      <trkpt lat="45.78632" lon="3.2294">
        <ele>408.57022</ele>
        <time>2020-03-15T11:11:42Z</time>
      </trkpt>
      <trkpt lat="45.78641" lon="3.22944">
        <ele>407.91367</ele>
        <time>2020-03-15T11:11:43Z</time>
      </trkpt>
      <trkpt lat="45.78651" lon="3.22949">
        <ele>407.2081</ele>
        <time>2020-03-15T11:11:44Z</time>
      </trkpt>
      <trkpt lat="45.7866" lon="3.22953">
        <ele>406.51834</ele>
        <time>2020-03-15T11:11:45Z</time>
      </trkpt>
      <trkpt lat="45.7867" lon="3.22957">
        <ele>405.88306</ele>
        <time>2020-03-15T11:11:46Z</time>
      </trkpt>
      <trkpt lat="45.7868" lon="3.22962">
        <ele>405.21405</ele>
        <time>2020-03-15T11:11:47Z</time>
      </trkpt>
      <trkpt lat="45.78691" lon="3.22966">
        <ele>404.59964</ele>
        <time>2020-03-15T11:11:48Z</time>
      </trkpt>
      <trkpt lat="45.78701" lon="3.2297">
        <ele>404.0705</ele>
        <time>2020-03-15T11:11:49Z</time>
      </trkpt>
      <trkpt lat="45.78711" lon="3.22975">
        <ele>403.53018</ele>
        <time>2020-03-15T11:11:50Z</time>
      </trkpt>
      <trkpt lat="45.78722" lon="3.2298">
        <ele>402.96774</ele>
        <time>2020-03-15T11:11:51Z</time>
      </trkpt>
      <trkpt lat="45.78732" lon="3.22985">
        <ele>402.32974</ele>
        <time>2020-03-15T11:11:52Z</time>
      </trkpt>
      <trkpt lat="45.78742" lon="3.2299">
        <ele>401.78992</ele>
        <time>2020-03-15T11:11:53Z</time>
      </trkpt>
      <trkpt lat="45.78753" lon="3.22994">
        <ele>401.306</ele>
        <time>2020-03-15T11:11:54Z</time>
      </trkpt>
      <trkpt lat="45.78762" lon="3.22999">
        <ele>400.87985</ele>
        <time>2020-03-15T11:11:55Z</time>
      </trkpt>
      <trkpt lat="45.78772" lon="3.23004">
        <ele>400.40012</ele>
        <time>2020-03-15T11:11:56Z</time>
      </trkpt>
      <trkpt lat="45.78782" lon="3.23008">
        <ele>400.00656</ele>
        <time>2020-03-15T11:11:57Z</time>
      </trkpt>
      <trkpt lat="45.78792" lon="3.23013">
        <ele>399.58835</ele>
        <time>2020-03-15T11:11:58Z</time>
      </trkpt>
      <trkpt lat="45.78801" lon="3.23017">
        <ele>399.1668</ele>
        <time>2020-03-15T11:11:59Z</time>
      </trkpt>
      <trkpt lat="45.78811" lon="3.23022">
        <ele>398.7741</ele>
        <time>2020-03-15T11:12:00Z</time>
      </trkpt>
      <trkpt lat="45.78819" lon="3.23027">
        <ele>398.35797</ele>
        <time>2020-03-15T11:12:01Z</time>
      </trkpt>
      <trkpt lat="45.78835" lon="3.23035">
        <ele>397.5565</ele>
        <time>2020-03-15T11:12:03Z</time>
      </trkpt>
      <trkpt lat="45.78847" lon="3.23045">
        <ele>396.81122</ele>
        <time>2020-03-15T11:12:05Z</time>
      </trkpt>
      <trkpt lat="45.7886" lon="3.23056">
        <ele>395.7086</ele>
        <time>2020-03-15T11:12:07Z</time>
      </trkpt>
      <trkpt lat="45.78876" lon="3.23061">
        <ele>394.24908</ele>
        <time>2020-03-15T11:12:09Z</time>
      </trkpt>
      <trkpt lat="45.78892" lon="3.23063">
        <ele>392.9677</ele>
        <time>2020-03-15T11:12:11Z</time>
      </trkpt>
      <trkpt lat="45.78907" lon="3.23064">
        <ele>392.20502</ele>
        <time>2020-03-15T11:12:13Z</time>
      </trkpt>
      <trkpt lat="45.78919" lon="3.23069">
        <ele>391.78436</ele>
        <time>2020-03-15T11:12:15Z</time>
      </trkpt>
      <trkpt lat="45.78929" lon="3.23079">
        <ele>390.96326</ele>
        <time>2020-03-15T11:12:17Z</time>
      </trkpt>
      <trkpt lat="45.78938" lon="3.23088">
        <ele>390.14047</ele>
        <time>2020-03-15T11:12:19Z</time>
      </trkpt>
      <trkpt lat="45.78946" lon="3.23098">
        <ele>389.82474</ele>
        <time>2020-03-15T11:12:21Z</time>
      </trkpt>
      <trkpt lat="45.78955" lon="3.23106">
        <ele>389.15778</ele>
        <time>2020-03-15T11:12:24Z</time>
      </trkpt>
      <trkpt lat="45.78959" lon="3.23093">
        <ele>388.61777</ele>
        <time>2020-03-15T11:12:28Z</time>
      </trkpt>
      <trkpt lat="45.78959" lon="3.23073">
        <ele>388.25876</ele>
        <time>2020-03-15T11:12:31Z</time>
      </trkpt>
      <trkpt lat="45.78958" lon="3.23054">
        <ele>387.8526</ele>
        <time>2020-03-15T11:12:33Z</time>
      </trkpt>
      <trkpt lat="45.78957" lon="3.23034">
        <ele>387.0882</ele>
        <time>2020-03-15T11:12:35Z</time>
      </trkpt>
      <trkpt lat="45.78957" lon="3.23012">
        <ele>386.27887</ele>
        <time>2020-03-15T11:12:37Z</time>
      </trkpt>
      <trkpt lat="45.78955" lon="3.2299">
        <ele>385.78577</ele>
        <time>2020-03-15T11:12:39Z</time>
      </trkpt>
      <trkpt lat="45.78954" lon="3.22967">
        <ele>385.0408</ele>
        <time>2020-03-15T11:12:41Z</time>
      </trkpt>
      <trkpt lat="45.78953" lon="3.22943">
        <ele>384.10382</ele>
        <time>2020-03-15T11:12:43Z</time>
      </trkpt>
      <trkpt lat="45.78952" lon="3.22919">
        <ele>383.36627</ele>
        <time>2020-03-15T11:12:45Z</time>
      </trkpt>
      <trkpt lat="45.78951" lon="3.22895">
        <ele>382.78122</ele>
        <time>2020-03-15T11:12:47Z</time>
      </trkpt>
      <trkpt lat="45.7895" lon="3.22872">
        <ele>382.33075</ele>
        <time>2020-03-15T11:12:49Z</time>
      </trkpt>
      <trkpt lat="45.78947" lon="3.22849">
        <ele>381.79517</ele>
        <time>2020-03-15T11:12:51Z</time>
      </trkpt>
      <trkpt lat="45.78946" lon="3.22827">
        <ele>381.46198</ele>
        <time>2020-03-15T11:12:53Z</time>
      </trkpt>
      <trkpt lat="45.78945" lon="3.22806">
        <ele>381.19324</ele>
        <time>2020-03-15T11:12:55Z</time>
      </trkpt>
      <trkpt lat="45.78944" lon="3.22786">
        <ele>380.04324</ele>
        <time>2020-03-15T11:12:57Z</time>
      </trkpt>
      <trkpt lat="45.78943" lon="3.22764">
        <ele>379.65002</ele>
        <time>2020-03-15T11:12:59Z</time>
      </trkpt>
      <trkpt lat="45.78941" lon="3.22742">
        <ele>379.01706</ele>
        <time>2020-03-15T11:13:01Z</time>
      </trkpt>
      <trkpt lat="45.78939" lon="3.22719">
        <ele>378.548</ele>
        <time>2020-03-15T11:13:03Z</time>
      </trkpt>
      <trkpt lat="45.7894" lon="3.22697">
        <ele>377.8282</ele>
        <time>2020-03-15T11:13:05Z</time>
      </trkpt>
      <trkpt lat="45.7894" lon="3.22676">
        <ele>377.40735</ele>
        <time>2020-03-15T11:13:07Z</time>
      </trkpt>
      <trkpt lat="45.78941" lon="3.22654">
        <ele>376.92114</ele>
        <time>2020-03-15T11:13:09Z</time>
      </trkpt>
      <trkpt lat="45.78944" lon="3.22632">
        <ele>376.4604</ele>
        <time>2020-03-15T11:13:11Z</time>
      </trkpt>
      <trkpt lat="45.78947" lon="3.2261">
        <ele>375.6799</ele>
        <time>2020-03-15T11:13:13Z</time>
      </trkpt>
      <trkpt lat="45.78951" lon="3.22588">
        <ele>375.08008</ele>
        <time>2020-03-15T11:13:15Z</time>
      </trkpt>
      <trkpt lat="45.78954" lon="3.22568">
        <ele>374.30466</ele>
        <time>2020-03-15T11:13:17Z</time>
      </trkpt>
      <trkpt lat="45.78956" lon="3.22547">
        <ele>373.59177</ele>
        <time>2020-03-15T11:13:19Z</time>
      </trkpt>
      <trkpt lat="45.78951" lon="3.22533">
        <ele>384.35907</ele>
        <time>2020-03-15T11:13:21Z</time>
      </trkpt>
      <trkpt lat="45.78957" lon="3.22513">
        <ele>385.11893</ele>
        <time>2020-03-15T11:13:23Z</time>
      </trkpt>
      <trkpt lat="45.78967" lon="3.22498">
        <ele>385.1513</ele>
        <time>2020-03-15T11:13:25Z</time>
      </trkpt>
      <trkpt lat="45.78981" lon="3.22493">
        <ele>383.99088</ele>
        <time>2020-03-15T11:13:27Z</time>
      </trkpt>
      <trkpt lat="45.78996" lon="3.22493">
        <ele>382.66977</ele>
        <time>2020-03-15T11:13:29Z</time>
      </trkpt>
      <trkpt lat="45.79012" lon="3.22496">
        <ele>371.31088</ele>
        <time>2020-03-15T11:13:30Z</time>
      </trkpt>
      <trkpt lat="45.79024" lon="3.22508">
        <ele>371.49817</ele>
        <time>2020-03-15T11:13:32Z</time>
      </trkpt>
      <trkpt lat="45.79034" lon="3.22521">
        <ele>371.9243</ele>
        <time>2020-03-15T11:13:34Z</time>
      </trkpt>
      <trkpt lat="45.79043" lon="3.22534">
        <ele>372.27762</ele>
        <time>2020-03-15T11:13:36Z</time>
      </trkpt>
      <trkpt lat="45.79053" lon="3.22546">
        <ele>372.5635</ele>
        <time>2020-03-15T11:13:38Z</time>
      </trkpt>
      <trkpt lat="45.79063" lon="3.22558">
        <ele>372.8795</ele>
        <time>2020-03-15T11:13:40Z</time>
      </trkpt>
      <trkpt lat="45.79072" lon="3.22568">
        <ele>373.08844</ele>
        <time>2020-03-15T11:13:42Z</time>
      </trkpt>
      <trkpt lat="45.79081" lon="3.22578">
        <ele>373.43887</ele>
        <time>2020-03-15T11:13:44Z</time>
      </trkpt>
      <trkpt lat="45.7909" lon="3.22588">
        <ele>373.67978</ele>
        <time>2020-03-15T11:13:46Z</time>
      </trkpt>
      <trkpt lat="45.79099" lon="3.22597">
        <ele>374.18295</ele>
        <time>2020-03-15T11:13:48Z</time>
      </trkpt>
      <trkpt lat="45.79107" lon="3.22607">
        <ele>374.51324</ele>
        <time>2020-03-15T11:13:50Z</time>
      </trkpt>
      <trkpt lat="45.79116" lon="3.22617">
        <ele>374.6238</ele>
        <time>2020-03-15T11:13:52Z</time>
      </trkpt>
      <trkpt lat="45.79125" lon="3.22628">
        <ele>374.82025</ele>
        <time>2020-03-15T11:13:54Z</time>
      </trkpt>
      <trkpt lat="45.79133" lon="3.22638">
        <ele>374.92914</ele>
        <time>2020-03-15T11:13:56Z</time>
      </trkpt>
      <trkpt lat="45.79142" lon="3.22647">
        <ele>375.22433</ele>
        <time>2020-03-15T11:13:58Z</time>
      </trkpt>
      <trkpt lat="45.7915" lon="3.22656">
        <ele>375.58627</ele>
        <time>2020-03-15T11:14:00Z</time>
      </trkpt>
      <trkpt lat="45.79158" lon="3.22666">
        <ele>376.06146</ele>
        <time>2020-03-15T11:14:02Z</time>
      </trkpt>
      <trkpt lat="45.79166" lon="3.22676">
        <ele>376.46033</ele>
        <time>2020-03-15T11:14:04Z</time>
      </trkpt>
      <trkpt lat="45.79174" lon="3.22685">
        <ele>376.62653</ele>
        <time>2020-03-15T11:14:06Z</time>
      </trkpt>
      <trkpt lat="45.79182" lon="3.22694">
        <ele>376.81485</ele>
        <time>2020-03-15T11:14:08Z</time>
      </trkpt>
      <trkpt lat="45.7919" lon="3.22704">
        <ele>377.10663</ele>
        <time>2020-03-15T11:14:10Z</time>
      </trkpt>
      <trkpt lat="45.79199" lon="3.22713">
        <ele>377.49942</ele>
        <time>2020-03-15T11:14:12Z</time>
      </trkpt>
      <trkpt lat="45.79207" lon="3.22722">
        <ele>377.71832</ele>
        <time>2020-03-15T11:14:14Z</time>
      </trkpt>
      <trkpt lat="45.79214" lon="3.22733">
        <ele>377.96127</ele>
        <time>2020-03-15T11:14:16Z</time>
      </trkpt>
      <trkpt lat="45.79222" lon="3.22744">
        <ele>378.1012</ele>
        <time>2020-03-15T11:14:18Z</time>
      </trkpt>
      <trkpt lat="45.79232" lon="3.22755">
        <ele>378.17032</ele>
        <time>2020-03-15T11:14:20Z</time>
      </trkpt>
      <trkpt lat="45.7924" lon="3.22766">
        <ele>378.4678</ele>
        <time>2020-03-15T11:14:22Z</time>
      </trkpt>
      <trkpt lat="45.79249" lon="3.22773">
        <ele>378.68466</ele>
        <time>2020-03-15T11:14:24Z</time>
      </trkpt>
      <trkpt lat="45.7926" lon="3.22773">
        <ele>378.95245</ele>
        <time>2020-03-15T11:14:26Z</time>
      </trkpt>
      <trkpt lat="45.79268" lon="3.22765">
        <ele>379.53986</ele>
        <time>2020-03-15T11:14:28Z</time>
      </trkpt>
      <trkpt lat="45.79277" lon="3.22764">
        <ele>379.89142</ele>
        <time>2020-03-15T11:14:30Z</time>
      </trkpt>
      <trkpt lat="45.79286" lon="3.22767">
        <ele>380.03735</ele>
        <time>2020-03-15T11:14:32Z</time>
      </trkpt>
      <trkpt lat="45.79295" lon="3.22767">
        <ele>380.4695</ele>
        <time>2020-03-15T11:14:34Z</time>
      </trkpt>
      <trkpt lat="45.79305" lon="3.22761">
        <ele>380.9937</ele>
        <time>2020-03-15T11:14:36Z</time>
      </trkpt>
      <trkpt lat="45.79313" lon="3.22749">
        <ele>381.2229</ele>
        <time>2020-03-15T11:14:38Z</time>
      </trkpt>
      <trkpt lat="45.79316" lon="3.22734">
        <ele>381.31833</ele>
        <time>2020-03-15T11:14:40Z</time>
      </trkpt>
      <trkpt lat="45.79315" lon="3.22717">
        <ele>381.3514</ele>
        <time>2020-03-15T11:14:42Z</time>
      </trkpt>
      <trkpt lat="45.79313" lon="3.22701">
        <ele>381.29086</ele>
        <time>2020-03-15T11:14:44Z</time>
      </trkpt>
      <trkpt lat="45.79312" lon="3.22685">
        <ele>380.66846</ele>
        <time>2020-03-15T11:14:46Z</time>
      </trkpt>
      <trkpt lat="45.79314" lon="3.22668">
        <ele>380.48734</ele>
        <time>2020-03-15T11:14:48Z</time>
      </trkpt>
      <trkpt lat="45.79321" lon="3.2265">
        <ele>380.32693</ele>
        <time>2020-03-15T11:14:50Z</time>
      </trkpt>
      <trkpt lat="45.79329" lon="3.22635">
        <ele>380.36966</ele>
        <time>2020-03-15T11:14:52Z</time>
      </trkpt>
      <trkpt lat="45.79335" lon="3.22619">
        <ele>380.3121</ele>
        <time>2020-03-15T11:14:54Z</time>
      </trkpt>
      <trkpt lat="45.79335" lon="3.226">
        <ele>380.36966</ele>
        <time>2020-03-15T11:14:56Z</time>
      </trkpt>
      <trkpt lat="45.79335" lon="3.22581">
        <ele>380.2217</ele>
        <time>2020-03-15T11:14:58Z</time>
      </trkpt>
      <trkpt lat="45.79338" lon="3.22562">
        <ele>380.03494</ele>
        <time>2020-03-15T11:15:00Z</time>
      </trkpt>
      <trkpt lat="45.7934" lon="3.22543">
        <ele>379.78473</ele>
        <time>2020-03-15T11:15:02Z</time>
      </trkpt>
      <trkpt lat="45.79342" lon="3.22526">
        <ele>379.2366</ele>
        <time>2020-03-15T11:15:04Z</time>
      </trkpt>
      <trkpt lat="45.79346" lon="3.22509">
        <ele>378.98886</ele>
        <time>2020-03-15T11:15:06Z</time>
      </trkpt>
      <trkpt lat="45.79349" lon="3.2249">
        <ele>378.65704</ele>
        <time>2020-03-15T11:15:08Z</time>
      </trkpt>
      <trkpt lat="45.79353" lon="3.2247">
        <ele>378.2206</ele>
        <time>2020-03-15T11:15:10Z</time>
      </trkpt>
      <trkpt lat="45.79358" lon="3.22451">
        <ele>378.0167</ele>
        <time>2020-03-15T11:15:12Z</time>
      </trkpt>
      <trkpt lat="45.79361" lon="3.22432">
        <ele>377.7073</ele>
        <time>2020-03-15T11:15:14Z</time>
      </trkpt>
      <trkpt lat="45.79363" lon="3.22414">
        <ele>377.11707</ele>
        <time>2020-03-15T11:15:16Z</time>
      </trkpt>
      <trkpt lat="45.79369" lon="3.224">
        <ele>376.86792</ele>
        <time>2020-03-15T11:15:18Z</time>
      </trkpt>
      <trkpt lat="45.79382" lon="3.22398">
        <ele>376.4766</ele>
        <time>2020-03-15T11:15:20Z</time>
      </trkpt>
      <trkpt lat="45.79394" lon="3.22403">
        <ele>376.28534</ele>
        <time>2020-03-15T11:15:22Z</time>
      </trkpt>
      <trkpt lat="45.79405" lon="3.22408">
        <ele>376.24432</ele>
        <time>2020-03-15T11:15:24Z</time>
      </trkpt>
      <trkpt lat="45.79416" lon="3.22412">
        <ele>376.1077</ele>
        <time>2020-03-15T11:15:26Z</time>
      </trkpt>
      <trkpt lat="45.79426" lon="3.22417">
        <ele>375.81284</ele>
        <time>2020-03-15T11:15:28Z</time>
      </trkpt>
      <trkpt lat="45.79437" lon="3.22422">
        <ele>375.66266</ele>
        <time>2020-03-15T11:15:30Z</time>
      </trkpt>
      <trkpt lat="45.79449" lon="3.22427">
        <ele>375.47617</ele>
        <time>2020-03-15T11:15:32Z</time>
      </trkpt>
      <trkpt lat="45.79461" lon="3.22431">
        <ele>375.63577</ele>
        <time>2020-03-15T11:15:34Z</time>
      </trkpt>
      <trkpt lat="45.79473" lon="3.22435">
        <ele>375.45563</ele>
        <time>2020-03-15T11:15:36Z</time>
      </trkpt>
      <trkpt lat="45.79484" lon="3.22439">
        <ele>375.1598</ele>
        <time>2020-03-15T11:15:38Z</time>
      </trkpt>
      <trkpt lat="45.79495" lon="3.22443">
        <ele>374.84305</ele>
        <time>2020-03-15T11:15:40Z</time>
      </trkpt>
      <trkpt lat="45.79506" lon="3.22447">
        <ele>374.36115</ele>
        <time>2020-03-15T11:15:42Z</time>
      </trkpt>
      <trkpt lat="45.79517" lon="3.22452">
        <ele>374.35483</ele>
        <time>2020-03-15T11:15:44Z</time>
      </trkpt>
      <trkpt lat="45.79527" lon="3.22456">
        <ele>374.41788</ele>
        <time>2020-03-15T11:15:46Z</time>
      </trkpt>
      <trkpt lat="45.79536" lon="3.2246">
        <ele>374.52136</ele>
        <time>2020-03-15T11:15:48Z</time>
      </trkpt>
      <trkpt lat="45.79546" lon="3.22464">
        <ele>374.53345</ele>
        <time>2020-03-15T11:15:50Z</time>
      </trkpt>
      <trkpt lat="45.79557" lon="3.22466">
        <ele>374.6834</ele>
        <time>2020-03-15T11:15:52Z</time>
      </trkpt>
      <trkpt lat="45.79568" lon="3.2247">
        <ele>374.77002</ele>
        <time>2020-03-15T11:15:54Z</time>
      </trkpt>
      <trkpt lat="45.79578" lon="3.22474">
        <ele>374.69156</ele>
        <time>2020-03-15T11:15:56Z</time>
      </trkpt>
      <trkpt lat="45.79589" lon="3.22477">
        <ele>374.78387</ele>
        <time>2020-03-15T11:15:58Z</time>
      </trkpt>
      <trkpt lat="45.79601" lon="3.22481">
        <ele>375.09634</ele>
        <time>2020-03-15T11:16:00Z</time>
      </trkpt>
      <trkpt lat="45.79611" lon="3.22485">
        <ele>375.14264</ele>
        <time>2020-03-15T11:16:02Z</time>
      </trkpt>
      <trkpt lat="45.79622" lon="3.22488">
        <ele>374.88916</ele>
        <time>2020-03-15T11:16:04Z</time>
      </trkpt>
      <trkpt lat="45.79632" lon="3.22491">
        <ele>374.62378</ele>
        <time>2020-03-15T11:16:06Z</time>
      </trkpt>
      <trkpt lat="45.79643" lon="3.22494">
        <ele>374.52078</ele>
        <time>2020-03-15T11:16:08Z</time>
      </trkpt>
      <trkpt lat="45.79654" lon="3.22497">
        <ele>374.21503</ele>
        <time>2020-03-15T11:16:10Z</time>
      </trkpt>
      <trkpt lat="45.79663" lon="3.22499">
        <ele>373.84213</ele>
        <time>2020-03-15T11:16:12Z</time>
      </trkpt>
      <trkpt lat="45.79672" lon="3.22498">
        <ele>373.67172</ele>
        <time>2020-03-15T11:16:14Z</time>
      </trkpt>
      <trkpt lat="45.79683" lon="3.225">
        <ele>373.62735</ele>
        <time>2020-03-15T11:16:16Z</time>
      </trkpt>
      <trkpt lat="45.79694" lon="3.225">
        <ele>373.2062</ele>
        <time>2020-03-15T11:16:18Z</time>
      </trkpt>
      <trkpt lat="45.79706" lon="3.22496">
        <ele>372.68634</ele>
        <time>2020-03-15T11:16:20Z</time>
      </trkpt>
      <trkpt lat="45.79719" lon="3.22493">
        <ele>372.34625</ele>
        <time>2020-03-15T11:16:22Z</time>
      </trkpt>
      <trkpt lat="45.79732" lon="3.22487">
        <ele>372.13086</ele>
        <time>2020-03-15T11:16:24Z</time>
      </trkpt>
      <trkpt lat="45.79745" lon="3.22479">
        <ele>372.15817</ele>
        <time>2020-03-15T11:16:26Z</time>
      </trkpt>
      <trkpt lat="45.79758" lon="3.2247">
        <ele>372.2704</ele>
        <time>2020-03-15T11:16:28Z</time>
      </trkpt>
      <trkpt lat="45.79771" lon="3.22463">
        <ele>372.37485</ele>
        <time>2020-03-15T11:16:30Z</time>
      </trkpt>
      <trkpt lat="45.79784" lon="3.22457">
        <ele>372.51746</ele>
        <time>2020-03-15T11:16:32Z</time>
      </trkpt>
      <trkpt lat="45.79798" lon="3.22452">
        <ele>372.37625</ele>
        <time>2020-03-15T11:16:34Z</time>
      </trkpt>
      <trkpt lat="45.79811" lon="3.22448">
        <ele>372.18472</ele>
        <time>2020-03-15T11:16:36Z</time>
      </trkpt>
      <trkpt lat="45.79825" lon="3.22443">
        <ele>372.08466</ele>
        <time>2020-03-15T11:16:38Z</time>
      </trkpt>
      <trkpt lat="45.79839" lon="3.22439">
        <ele>372.01538</ele>
        <time>2020-03-15T11:16:40Z</time>
      </trkpt>
      <trkpt lat="45.79853" lon="3.22435">
        <ele>371.9192</ele>
        <time>2020-03-15T11:16:42Z</time>
      </trkpt>
      <trkpt lat="45.79867" lon="3.22431">
        <ele>371.85083</ele>
        <time>2020-03-15T11:16:44Z</time>
      </trkpt>
      <trkpt lat="45.79882" lon="3.22427">
        <ele>371.6544</ele>
        <time>2020-03-15T11:16:46Z</time>
      </trkpt>
      <trkpt lat="45.79896" lon="3.22425">
        <ele>371.76572</ele>
        <time>2020-03-15T11:16:48Z</time>
      </trkpt>
      <trkpt lat="45.7991" lon="3.22423">
        <ele>371.8956</ele>
        <time>2020-03-15T11:16:50Z</time>
      </trkpt>
      <trkpt lat="45.79923" lon="3.22422">
        <ele>371.88254</ele>
        <time>2020-03-15T11:16:52Z</time>
      </trkpt>
      <trkpt lat="45.79936" lon="3.22421">
        <ele>371.95398</ele>
        <time>2020-03-15T11:16:54Z</time>
      </trkpt>
      <trkpt lat="45.79948" lon="3.22422">
        <ele>372.01892</ele>
        <time>2020-03-15T11:16:56Z</time>
      </trkpt>
      <trkpt lat="45.7996" lon="3.22423">
        <ele>372.17203</ele>
        <time>2020-03-15T11:16:58Z</time>
      </trkpt>
      <trkpt lat="45.79973" lon="3.22424">
        <ele>372.1846</ele>
        <time>2020-03-15T11:17:00Z</time>
      </trkpt>
      <trkpt lat="45.79985" lon="3.22425">
        <ele>372.22064</ele>
        <time>2020-03-15T11:17:02Z</time>
      </trkpt>
      <trkpt lat="45.79997" lon="3.22426">
        <ele>372.32507</ele>
        <time>2020-03-15T11:17:04Z</time>
      </trkpt>
      <trkpt lat="45.80009" lon="3.22428">
        <ele>372.22977</ele>
        <time>2020-03-15T11:17:06Z</time>
      </trkpt>
      <trkpt lat="45.80021" lon="3.22428">
        <ele>372.17435</ele>
        <time>2020-03-15T11:17:08Z</time>
      </trkpt>
      <trkpt lat="45.80034" lon="3.22429">
        <ele>372.08627</ele>
        <time>2020-03-15T11:17:10Z</time>
      </trkpt>
      <trkpt lat="45.80046" lon="3.22431">
        <ele>372.02173</ele>
        <time>2020-03-15T11:17:12Z</time>
      </trkpt>
      <trkpt lat="45.80058" lon="3.22433">
        <ele>372.08838</ele>
        <time>2020-03-15T11:17:14Z</time>
      </trkpt>
      <trkpt lat="45.80069" lon="3.22435">
        <ele>372.1293</ele>
        <time>2020-03-15T11:17:16Z</time>
      </trkpt>
      <trkpt lat="45.80081" lon="3.22437">
        <ele>372.20917</ele>
        <time>2020-03-15T11:17:18Z</time>
      </trkpt>
      <trkpt lat="45.80093" lon="3.2244">
        <ele>372.1913</ele>
        <time>2020-03-15T11:17:20Z</time>
      </trkpt>
      <trkpt lat="45.80104" lon="3.22443">
        <ele>372.27457</ele>
        <time>2020-03-15T11:17:22Z</time>
      </trkpt>
      <trkpt lat="45.80116" lon="3.22447">
        <ele>372.17743</ele>
        <time>2020-03-15T11:17:24Z</time>
      </trkpt>
      <trkpt lat="45.80127" lon="3.22451">
        <ele>372.2142</ele>
        <time>2020-03-15T11:17:26Z</time>
      </trkpt>
      <trkpt lat="45.80138" lon="3.22454">
        <ele>372.75662</ele>
        <time>2020-03-15T11:17:28Z</time>
      </trkpt>
      <trkpt lat="45.8015" lon="3.22458">
        <ele>373.49417</ele>
        <time>2020-03-15T11:17:30Z</time>
      </trkpt>
      <trkpt lat="45.80161" lon="3.22462">
        <ele>374.27408</ele>
        <time>2020-03-15T11:17:32Z</time>
      </trkpt>
      <trkpt lat="45.80172" lon="3.22466">
        <ele>374.7007</ele>
        <time>2020-03-15T11:17:34Z</time>
      </trkpt>
      <trkpt lat="45.80183" lon="3.22469">
        <ele>375.17212</ele>
        <time>2020-03-15T11:17:36Z</time>
      </trkpt>
      <trkpt lat="45.80193" lon="3.22473">
        <ele>375.851</ele>
        <time>2020-03-15T11:17:38Z</time>
      </trkpt>
      <trkpt lat="45.80204" lon="3.22478">
        <ele>376.5625</ele>
        <time>2020-03-15T11:17:40Z</time>
      </trkpt>
      <trkpt lat="45.80214" lon="3.22483">
        <ele>377.15552</ele>
        <time>2020-03-15T11:17:42Z</time>
      </trkpt>
      <trkpt lat="45.80225" lon="3.22487">
        <ele>377.6312</ele>
        <time>2020-03-15T11:17:44Z</time>
      </trkpt>
      <trkpt lat="45.80235" lon="3.22491">
        <ele>378.1285</ele>
        <time>2020-03-15T11:17:46Z</time>
      </trkpt>
      <trkpt lat="45.80245" lon="3.22494">
        <ele>378.4137</ele>
        <time>2020-03-15T11:17:48Z</time>
      </trkpt>
      <trkpt lat="45.80254" lon="3.22497">
        <ele>378.60132</ele>
        <time>2020-03-15T11:17:50Z</time>
      </trkpt>
      <trkpt lat="45.80264" lon="3.225">
        <ele>378.79233</ele>
        <time>2020-03-15T11:17:52Z</time>
      </trkpt>
      <trkpt lat="45.80273" lon="3.22502">
        <ele>378.8244</ele>
        <time>2020-03-15T11:17:54Z</time>
      </trkpt>
      <trkpt lat="45.80283" lon="3.22505">
        <ele>379.01062</ele>
        <time>2020-03-15T11:17:56Z</time>
      </trkpt>
      <trkpt lat="45.80293" lon="3.22507">
        <ele>379.21408</ele>
        <time>2020-03-15T11:17:58Z</time>
      </trkpt>
      <trkpt lat="45.80304" lon="3.22509">
        <ele>379.6168</ele>
        <time>2020-03-15T11:18:00Z</time>
      </trkpt>
      <trkpt lat="45.80314" lon="3.22513">
        <ele>379.6918</ele>
        <time>2020-03-15T11:18:02Z</time>
      </trkpt>
      <trkpt lat="45.80325" lon="3.22517">
        <ele>379.78183</ele>
        <time>2020-03-15T11:18:04Z</time>
      </trkpt>
      <trkpt lat="45.80336" lon="3.2252">
        <ele>380.35968</ele>
        <time>2020-03-15T11:18:06Z</time>
      </trkpt>
      <trkpt lat="45.80348" lon="3.22523">
        <ele>380.8177</ele>
        <time>2020-03-15T11:18:08Z</time>
      </trkpt>
      <trkpt lat="45.8036" lon="3.22527">
        <ele>380.9512</ele>
        <time>2020-03-15T11:18:10Z</time>
      </trkpt>
      <trkpt lat="45.8037" lon="3.22531">
        <ele>380.87878</ele>
        <time>2020-03-15T11:18:12Z</time>
      </trkpt>
      <trkpt lat="45.80381" lon="3.22534">
        <ele>381.0303</ele>
        <time>2020-03-15T11:18:14Z</time>
      </trkpt>
      <trkpt lat="45.80392" lon="3.22536">
        <ele>381.15793</ele>
        <time>2020-03-15T11:18:16Z</time>
      </trkpt>
      <trkpt lat="45.80403" lon="3.2254">
        <ele>381.4566</ele>
        <time>2020-03-15T11:18:18Z</time>
      </trkpt>
      <trkpt lat="45.80414" lon="3.22544">
        <ele>381.50674</ele>
        <time>2020-03-15T11:18:20Z</time>
      </trkpt>
      <trkpt lat="45.80426" lon="3.22548">
        <ele>381.4982</ele>
        <time>2020-03-15T11:18:22Z</time>
      </trkpt>
      <trkpt lat="45.80438" lon="3.22553">
        <ele>381.68024</ele>
        <time>2020-03-15T11:18:24Z</time>
      </trkpt>
      <trkpt lat="45.8045" lon="3.22558">
        <ele>381.61578</ele>
        <time>2020-03-15T11:18:26Z</time>
      </trkpt>
      <trkpt lat="45.80463" lon="3.22563">
        <ele>381.46085</ele>
        <time>2020-03-15T11:18:28Z</time>
      </trkpt>
      <trkpt lat="45.80474" lon="3.22567">
        <ele>381.66226</ele>
        <time>2020-03-15T11:18:30Z</time>
      </trkpt>
      <trkpt lat="45.80485" lon="3.22573">
        <ele>381.88174</ele>
        <time>2020-03-15T11:18:32Z</time>
      </trkpt>
      <trkpt lat="45.80496" lon="3.22579">
        <ele>381.98352</ele>
        <time>2020-03-15T11:18:34Z</time>
      </trkpt>
      <trkpt lat="45.80507" lon="3.22584">
        <ele>382.08896</ele>
        <time>2020-03-15T11:18:36Z</time>
      </trkpt>
      <trkpt lat="45.80518" lon="3.2259">
        <ele>382.15497</ele>
        <time>2020-03-15T11:18:38Z</time>
      </trkpt>
      <trkpt lat="45.80529" lon="3.22598">
        <ele>381.84943</ele>
        <time>2020-03-15T11:18:40Z</time>
      </trkpt>
      <trkpt lat="45.80541" lon="3.22604">
        <ele>381.56683</ele>
        <time>2020-03-15T11:18:42Z</time>
      </trkpt>
      <trkpt lat="45.80552" lon="3.22611">
        <ele>381.4689</ele>
        <time>2020-03-15T11:18:44Z</time>
      </trkpt>
      <trkpt lat="45.80563" lon="3.2262">
        <ele>381.3364</ele>
        <time>2020-03-15T11:18:46Z</time>
      </trkpt>
      <trkpt lat="45.80574" lon="3.22629">
        <ele>381.18787</ele>
        <time>2020-03-15T11:18:48Z</time>
      </trkpt>
      <trkpt lat="45.80584" lon="3.22638">
        <ele>381.19174</ele>
        <time>2020-03-15T11:18:50Z</time>
      </trkpt>
      <trkpt lat="45.80594" lon="3.22646">
        <ele>381.1091</ele>
        <time>2020-03-15T11:18:52Z</time>
      </trkpt>
      <trkpt lat="45.80605" lon="3.22652">
        <ele>381.12314</ele>
        <time>2020-03-15T11:18:54Z</time>
      </trkpt>
      <trkpt lat="45.80616" lon="3.22658">
        <ele>381.17224</ele>
        <time>2020-03-15T11:18:56Z</time>
      </trkpt>
      <trkpt lat="45.80628" lon="3.22662">
        <ele>381.411</ele>
        <time>2020-03-15T11:18:58Z</time>
      </trkpt>
      <trkpt lat="45.8064" lon="3.22665">
        <ele>381.38156</ele>
        <time>2020-03-15T11:19:00Z</time>
      </trkpt>
      <trkpt lat="45.80654" lon="3.22668">
        <ele>381.46014</ele>
        <time>2020-03-15T11:19:02Z</time>
      </trkpt>
      <trkpt lat="45.80667" lon="3.22671">
        <ele>381.42117</ele>
        <time>2020-03-15T11:19:04Z</time>
      </trkpt>
      <trkpt lat="45.8068" lon="3.22673">
        <ele>381.20462</ele>
        <time>2020-03-15T11:19:06Z</time>
      </trkpt>
      <trkpt lat="45.80693" lon="3.22677">
        <ele>380.88263</ele>
        <time>2020-03-15T11:19:08Z</time>
      </trkpt>
      <trkpt lat="45.80706" lon="3.2268">
        <ele>380.6944</ele>
        <time>2020-03-15T11:19:10Z</time>
      </trkpt>
      <trkpt lat="45.80719" lon="3.22683">
        <ele>380.36154</ele>
        <time>2020-03-15T11:19:12Z</time>
      </trkpt>
      <trkpt lat="45.80732" lon="3.22688">
        <ele>380.09808</ele>
        <time>2020-03-15T11:19:14Z</time>
      </trkpt>
      <trkpt lat="45.80745" lon="3.22693">
        <ele>379.75366</ele>
        <time>2020-03-15T11:19:16Z</time>
      </trkpt>
      <trkpt lat="45.80758" lon="3.22699">
        <ele>379.3616</ele>
        <time>2020-03-15T11:19:18Z</time>
      </trkpt>
      <trkpt lat="45.80771" lon="3.22704">
        <ele>379.10175</ele>
        <time>2020-03-15T11:19:20Z</time>
      </trkpt>
      <trkpt lat="45.80783" lon="3.22709">
        <ele>378.70816</ele>
        <time>2020-03-15T11:19:22Z</time>
      </trkpt>
      <trkpt lat="45.80795" lon="3.22715">
        <ele>378.4002</ele>
        <time>2020-03-15T11:19:24Z</time>
      </trkpt>
      <trkpt lat="45.80808" lon="3.22722">
        <ele>377.8879</ele>
        <time>2020-03-15T11:19:26Z</time>
      </trkpt>
      <trkpt lat="45.80821" lon="3.22728">
        <ele>377.507</ele>
        <time>2020-03-15T11:19:28Z</time>
      </trkpt>
      <trkpt lat="45.80833" lon="3.22734">
        <ele>377.4449</ele>
        <time>2020-03-15T11:19:30Z</time>
      </trkpt>
      <trkpt lat="45.80846" lon="3.2274">
        <ele>377.24408</ele>
        <time>2020-03-15T11:19:32Z</time>
      </trkpt>
      <trkpt lat="45.80859" lon="3.22747">
        <ele>376.8218</ele>
        <time>2020-03-15T11:19:34Z</time>
      </trkpt>
      <trkpt lat="45.8087" lon="3.22755">
        <ele>376.49036</ele>
        <time>2020-03-15T11:19:36Z</time>
      </trkpt>
      <trkpt lat="45.80883" lon="3.22763">
        <ele>376.13028</ele>
        <time>2020-03-15T11:19:38Z</time>
      </trkpt>
      <trkpt lat="45.80895" lon="3.22772">
        <ele>375.7</ele>
        <time>2020-03-15T11:19:40Z</time>
      </trkpt>
      <trkpt lat="45.80905" lon="3.22783">
        <ele>375.23663</ele>
        <time>2020-03-15T11:19:42Z</time>
      </trkpt>
      <trkpt lat="45.80916" lon="3.22793">
        <ele>374.76108</ele>
        <time>2020-03-15T11:19:44Z</time>
      </trkpt>
      <trkpt lat="45.80926" lon="3.22803">
        <ele>374.5084</ele>
        <time>2020-03-15T11:19:46Z</time>
      </trkpt>
      <trkpt lat="45.80936" lon="3.22814">
        <ele>374.20636</ele>
        <time>2020-03-15T11:19:48Z</time>
      </trkpt>
      <trkpt lat="45.80946" lon="3.22825">
        <ele>374.0354</ele>
        <time>2020-03-15T11:19:50Z</time>
      </trkpt>
      <trkpt lat="45.80956" lon="3.22836">
        <ele>374.04095</ele>
        <time>2020-03-15T11:19:52Z</time>
      </trkpt>
      <trkpt lat="45.80966" lon="3.22847">
        <ele>374.03812</ele>
        <time>2020-03-15T11:19:54Z</time>
      </trkpt>
      <trkpt lat="45.80977" lon="3.22857">
        <ele>374.08597</ele>
        <time>2020-03-15T11:19:56Z</time>
      </trkpt>
      <trkpt lat="45.80986" lon="3.22867">
        <ele>374.12946</ele>
        <time>2020-03-15T11:19:58Z</time>
      </trkpt>
      <trkpt lat="45.80996" lon="3.22876">
        <ele>374.2281</ele>
        <time>2020-03-15T11:20:00Z</time>
      </trkpt>
      <trkpt lat="45.81007" lon="3.22887">
        <ele>374.28467</ele>
        <time>2020-03-15T11:20:02Z</time>
      </trkpt>
      <trkpt lat="45.81017" lon="3.22897">
        <ele>374.31827</ele>
        <time>2020-03-15T11:20:04Z</time>
      </trkpt>
      <trkpt lat="45.81027" lon="3.22908">
        <ele>374.30124</ele>
        <time>2020-03-15T11:20:06Z</time>
      </trkpt>
      <trkpt lat="45.81037" lon="3.22918">
        <ele>374.09528</ele>
        <time>2020-03-15T11:20:08Z</time>
      </trkpt>
      <trkpt lat="45.81047" lon="3.2293">
        <ele>373.8811</ele>
        <time>2020-03-15T11:20:10Z</time>
      </trkpt>
      <trkpt lat="45.81057" lon="3.22942">
        <ele>373.5645</ele>
        <time>2020-03-15T11:20:12Z</time>
      </trkpt>
      <trkpt lat="45.81067" lon="3.22954">
        <ele>373.39038</ele>
        <time>2020-03-15T11:20:14Z</time>
      </trkpt>
      <trkpt lat="45.81076" lon="3.22966">
        <ele>373.27878</ele>
        <time>2020-03-15T11:20:16Z</time>
      </trkpt>
      <trkpt lat="45.81087" lon="3.22978">
        <ele>373.11905</ele>
        <time>2020-03-15T11:20:18Z</time>
      </trkpt>
      <trkpt lat="45.81098" lon="3.22989">
        <ele>372.82205</ele>
        <time>2020-03-15T11:20:20Z</time>
      </trkpt>
      <trkpt lat="45.81109" lon="3.23001">
        <ele>372.54285</ele>
        <time>2020-03-15T11:20:22Z</time>
      </trkpt>
      <trkpt lat="45.8112" lon="3.2301">
        <ele>372.29544</ele>
        <time>2020-03-15T11:20:24Z</time>
      </trkpt>
      <trkpt lat="45.81132" lon="3.23017">
        <ele>371.83408</ele>
        <time>2020-03-15T11:20:26Z</time>
      </trkpt>
      <trkpt lat="45.81145" lon="3.2302">
        <ele>371.52472</ele>
        <time>2020-03-15T11:20:28Z</time>
      </trkpt>
      <trkpt lat="45.81158" lon="3.2302">
        <ele>371.40417</ele>
        <time>2020-03-15T11:20:30Z</time>
      </trkpt>
      <trkpt lat="45.81172" lon="3.23018">
        <ele>371.3157</ele>
        <time>2020-03-15T11:20:32Z</time>
      </trkpt>
      <trkpt lat="45.81186" lon="3.23017">
        <ele>371.07584</ele>
        <time>2020-03-15T11:20:34Z</time>
      </trkpt>
      <trkpt lat="45.812" lon="3.23021">
        <ele>370.54092</ele>
        <time>2020-03-15T11:20:36Z</time>
      </trkpt>
      <trkpt lat="45.81212" lon="3.23028">
        <ele>370.18863</ele>
        <time>2020-03-15T11:20:38Z</time>
      </trkpt>
      <trkpt lat="45.81224" lon="3.23038">
        <ele>369.87552</ele>
        <time>2020-03-15T11:20:40Z</time>
      </trkpt>
      <trkpt lat="45.81236" lon="3.23049">
        <ele>369.59656</ele>
        <time>2020-03-15T11:20:42Z</time>
      </trkpt>
      <trkpt lat="45.81249" lon="3.23059">
        <ele>369.30984</ele>
        <time>2020-03-15T11:20:44Z</time>
      </trkpt>
      <trkpt lat="45.8126" lon="3.23068">
        <ele>368.8594</ele>
        <time>2020-03-15T11:20:46Z</time>
      </trkpt>
      <trkpt lat="45.81272" lon="3.23076">
        <ele>368.5109</ele>
        <time>2020-03-15T11:20:48Z</time>
      </trkpt>
      <trkpt lat="45.81284" lon="3.23084">
        <ele>368.40582</ele>
        <time>2020-03-15T11:20:50Z</time>
      </trkpt>
      <trkpt lat="45.81296" lon="3.23091">
        <ele>368.24417</ele>
        <time>2020-03-15T11:20:52Z</time>
      </trkpt>
      <trkpt lat="45.81308" lon="3.23097">
        <ele>368.03604</ele>
        <time>2020-03-15T11:20:54Z</time>
      </trkpt>
      <trkpt lat="45.81321" lon="3.23104">
        <ele>367.67245</ele>
        <time>2020-03-15T11:20:56Z</time>
      </trkpt>
      <trkpt lat="45.81334" lon="3.23111">
        <ele>367.5688</ele>
        <time>2020-03-15T11:20:58Z</time>
      </trkpt>
      <trkpt lat="45.81347" lon="3.23118">
        <ele>367.24316</ele>
        <time>2020-03-15T11:21:00Z</time>
      </trkpt>
      <trkpt lat="45.8136" lon="3.23124">
        <ele>367.03516</ele>
        <time>2020-03-15T11:21:02Z</time>
      </trkpt>
      <trkpt lat="45.81373" lon="3.2313">
        <ele>366.91837</ele>
        <time>2020-03-15T11:21:04Z</time>
      </trkpt>
      <trkpt lat="45.81387" lon="3.23137">
        <ele>366.96216</ele>
        <time>2020-03-15T11:21:06Z</time>
      </trkpt>
      <trkpt lat="45.81398" lon="3.23144">
        <ele>367.03036</ele>
        <time>2020-03-15T11:21:08Z</time>
      </trkpt>
      <trkpt lat="45.81411" lon="3.23153">
        <ele>366.94427</ele>
        <time>2020-03-15T11:21:10Z</time>
      </trkpt>
      <trkpt lat="45.81423" lon="3.23161">
        <ele>367.01077</ele>
        <time>2020-03-15T11:21:12Z</time>
      </trkpt>
      <trkpt lat="45.81435" lon="3.2317">
        <ele>367.08267</ele>
        <time>2020-03-15T11:21:14Z</time>
      </trkpt>
      <trkpt lat="45.81447" lon="3.23179">
        <ele>366.91647</ele>
        <time>2020-03-15T11:21:16Z</time>
      </trkpt>
      <trkpt lat="45.81459" lon="3.23189">
        <ele>366.63806</ele>
        <time>2020-03-15T11:21:19Z</time>
      </trkpt>
      <trkpt lat="45.81471" lon="3.23198">
        <ele>366.48718</ele>
        <time>2020-03-15T11:21:21Z</time>
      </trkpt>
      <trkpt lat="45.81484" lon="3.23207">
        <ele>366.48282</ele>
        <time>2020-03-15T11:21:23Z</time>
      </trkpt>
      <trkpt lat="45.81495" lon="3.23216">
        <ele>366.53085</ele>
        <time>2020-03-15T11:21:25Z</time>
      </trkpt>
      <trkpt lat="45.81506" lon="3.23225">
        <ele>366.46115</ele>
        <time>2020-03-15T11:21:27Z</time>
      </trkpt>
      <trkpt lat="45.81516" lon="3.23233">
        <ele>366.35428</ele>
        <time>2020-03-15T11:21:29Z</time>
      </trkpt>
      <trkpt lat="45.81527" lon="3.23242">
        <ele>366.69153</ele>
        <time>2020-03-15T11:21:31Z</time>
      </trkpt>
      <trkpt lat="45.81537" lon="3.2325">
        <ele>367.10867</ele>
        <time>2020-03-15T11:21:33Z</time>
      </trkpt>
      <trkpt lat="45.81547" lon="3.23258">
        <ele>367.70538</ele>
        <time>2020-03-15T11:21:35Z</time>
      </trkpt>
      <trkpt lat="45.81557" lon="3.23267">
        <ele>368.2854</ele>
        <time>2020-03-15T11:21:37Z</time>
      </trkpt>
      <trkpt lat="45.81567" lon="3.23275">
        <ele>368.79065</ele>
        <time>2020-03-15T11:21:39Z</time>
      </trkpt>
      <trkpt lat="45.81577" lon="3.23284">
        <ele>369.31534</ele>
        <time>2020-03-15T11:21:41Z</time>
      </trkpt>
      <trkpt lat="45.81587" lon="3.23292">
        <ele>369.63345</ele>
        <time>2020-03-15T11:21:43Z</time>
      </trkpt>
      <trkpt lat="45.81597" lon="3.23301">
        <ele>369.7107</ele>
        <time>2020-03-15T11:21:45Z</time>
      </trkpt>
      <trkpt lat="45.81606" lon="3.23312">
        <ele>369.71652</ele>
        <time>2020-03-15T11:21:47Z</time>
      </trkpt>
      <trkpt lat="45.81616" lon="3.23323">
        <ele>369.83627</ele>
        <time>2020-03-15T11:21:49Z</time>
      </trkpt>
      <trkpt lat="45.81625" lon="3.23335">
        <ele>370.0029</ele>
        <time>2020-03-15T11:21:51Z</time>
      </trkpt>
      <trkpt lat="45.81634" lon="3.23348">
        <ele>370.33398</ele>
        <time>2020-03-15T11:21:53Z</time>
      </trkpt>
      <trkpt lat="45.81642" lon="3.23361">
        <ele>370.8167</ele>
        <time>2020-03-15T11:21:55Z</time>
      </trkpt>
      <trkpt lat="45.81649" lon="3.23375">
        <ele>371.1801</ele>
        <time>2020-03-15T11:21:57Z</time>
      </trkpt>
      <trkpt lat="45.81657" lon="3.23389">
        <ele>371.49167</ele>
        <time>2020-03-15T11:21:59Z</time>
      </trkpt>
      <trkpt lat="45.81664" lon="3.23402">
        <ele>371.73505</ele>
        <time>2020-03-15T11:22:01Z</time>
      </trkpt>
      <trkpt lat="45.81671" lon="3.23416">
        <ele>371.8378</ele>
        <time>2020-03-15T11:22:03Z</time>
      </trkpt>
      <trkpt lat="45.81677" lon="3.23429">
        <ele>371.983</ele>
        <time>2020-03-15T11:22:05Z</time>
      </trkpt>
      <trkpt lat="45.81683" lon="3.23441">
        <ele>372.10754</ele>
        <time>2020-03-15T11:22:07Z</time>
      </trkpt>
      <trkpt lat="45.81689" lon="3.23453">
        <ele>372.3459</ele>
        <time>2020-03-15T11:22:09Z</time>
      </trkpt>
      <trkpt lat="45.81694" lon="3.23464">
        <ele>372.60406</ele>
        <time>2020-03-15T11:22:11Z</time>
      </trkpt>
      <trkpt lat="45.817" lon="3.23476">
        <ele>372.75214</ele>
        <time>2020-03-15T11:22:13Z</time>
      </trkpt>
      <trkpt lat="45.81706" lon="3.23487">
        <ele>372.78604</ele>
        <time>2020-03-15T11:22:15Z</time>
      </trkpt>
      <trkpt lat="45.81712" lon="3.23498">
        <ele>372.81686</ele>
        <time>2020-03-15T11:22:17Z</time>
      </trkpt>
      <trkpt lat="45.81718" lon="3.23509">
        <ele>372.9503</ele>
        <time>2020-03-15T11:22:19Z</time>
      </trkpt>
      <trkpt lat="45.81723" lon="3.2352">
        <ele>373.43307</ele>
        <time>2020-03-15T11:22:21Z</time>
      </trkpt>
      <trkpt lat="45.81728" lon="3.23531">
        <ele>373.95822</ele>
        <time>2020-03-15T11:22:23Z</time>
      </trkpt>
      <trkpt lat="45.81733" lon="3.23542">
        <ele>374.27957</ele>
        <time>2020-03-15T11:22:25Z</time>
      </trkpt>
      <trkpt lat="45.81737" lon="3.23553">
        <ele>374.40823</ele>
        <time>2020-03-15T11:22:27Z</time>
      </trkpt>
      <trkpt lat="45.81743" lon="3.23564">
        <ele>374.56613</ele>
        <time>2020-03-15T11:22:29Z</time>
      </trkpt>
      <trkpt lat="45.81747" lon="3.23575">
        <ele>374.62314</ele>
        <time>2020-03-15T11:22:31Z</time>
      </trkpt>
      <trkpt lat="45.81754" lon="3.23591">
        <ele>374.76837</ele>
        <time>2020-03-15T11:22:34Z</time>
      </trkpt>
      <trkpt lat="45.81761" lon="3.23606">
        <ele>374.81268</ele>
        <time>2020-03-15T11:22:37Z</time>
      </trkpt>
      <trkpt lat="45.81768" lon="3.2362">
        <ele>374.69858</ele>
        <time>2020-03-15T11:22:40Z</time>
      </trkpt>
      <trkpt lat="45.81775" lon="3.23634">
        <ele>374.61658</ele>
        <time>2020-03-15T11:22:43Z</time>
      </trkpt>
      <trkpt lat="45.81781" lon="3.23648">
        <ele>375.12695</ele>
        <time>2020-03-15T11:22:46Z</time>
      </trkpt>
      <trkpt lat="45.81788" lon="3.23663">
        <ele>375.27213</ele>
        <time>2020-03-15T11:22:49Z</time>
      </trkpt>
      <trkpt lat="45.81794" lon="3.23677">
        <ele>375.66745</ele>
        <time>2020-03-15T11:22:52Z</time>
      </trkpt>
      <trkpt lat="45.81801" lon="3.23692">
        <ele>375.90778</ele>
        <time>2020-03-15T11:22:55Z</time>
      </trkpt>
      <trkpt lat="45.81807" lon="3.23707">
        <ele>376.1616</ele>
        <time>2020-03-15T11:22:58Z</time>
      </trkpt>
      <trkpt lat="45.81812" lon="3.23723">
        <ele>376.2358</ele>
        <time>2020-03-15T11:23:01Z</time>
      </trkpt>
      <trkpt lat="45.81817" lon="3.23734">
        <ele>376.15945</ele>
        <time>2020-03-15T11:23:03Z</time>
      </trkpt>
      <trkpt lat="45.81823" lon="3.2375">
        <ele>376.01733</ele>
        <time>2020-03-15T11:23:06Z</time>
      </trkpt>
      <trkpt lat="45.8183" lon="3.23766">
        <ele>376.21155</ele>
        <time>2020-03-15T11:23:09Z</time>
      </trkpt>
      <trkpt lat="45.81836" lon="3.23781">
        <ele>376.59598</ele>
        <time>2020-03-15T11:23:12Z</time>
      </trkpt>
      <trkpt lat="45.81844" lon="3.23796">
        <ele>377.20544</ele>
        <time>2020-03-15T11:23:15Z</time>
      </trkpt>
      <trkpt lat="45.81851" lon="3.23811">
        <ele>377.34113</ele>
        <time>2020-03-15T11:23:18Z</time>
      </trkpt>
      <trkpt lat="45.81858" lon="3.23827">
        <ele>377.41245</ele>
        <time>2020-03-15T11:23:21Z</time>
      </trkpt>
      <trkpt lat="45.81866" lon="3.2384">
        <ele>377.60876</ele>
        <time>2020-03-15T11:23:24Z</time>
      </trkpt>
      <trkpt lat="45.81872" lon="3.23853">
        <ele>377.36053</ele>
        <time>2020-03-15T11:23:27Z</time>
      </trkpt>
      <trkpt lat="45.81874" lon="3.23863">
        <ele>376.96478</ele>
        <time>2020-03-15T11:23:34Z</time>
      </trkpt>
      <trkpt lat="45.81874" lon="3.23863">
        <ele>376.96478</ele>
        <time>2020-03-15T11:23:34Z</time>
      </trkpt>
      <trkpt lat="45.81881" lon="3.23882">
        <ele>376.78137</ele>
        <time>2020-03-15T11:23:46Z</time>
      </trkpt>
      <trkpt lat="45.81886" lon="3.23894">
        <ele>376.98026</ele>
        <time>2020-03-15T11:23:49Z</time>
      </trkpt>
      <trkpt lat="45.81892" lon="3.23907">
        <ele>376.88995</ele>
        <time>2020-03-15T11:23:52Z</time>
      </trkpt>
      <trkpt lat="45.81897" lon="3.23919">
        <ele>376.8349</ele>
        <time>2020-03-15T11:23:55Z</time>
      </trkpt>
      <trkpt lat="45.81905" lon="3.23929">
        <ele>376.9898</ele>
        <time>2020-03-15T11:23:58Z</time>
      </trkpt>
      <trkpt lat="45.81913" lon="3.23937">
        <ele>377.37265</ele>
        <time>2020-03-15T11:24:01Z</time>
      </trkpt>
      <trkpt lat="45.81921" lon="3.23946">
        <ele>377.06924</ele>
        <time>2020-03-15T11:24:04Z</time>
      </trkpt>
      <trkpt lat="45.81926" lon="3.23957">
        <ele>376.80295</ele>
        <time>2020-03-15T11:24:07Z</time>
      </trkpt>
      <trkpt lat="45.81926" lon="3.23971">
        <ele>376.7387</ele>
        <time>2020-03-15T11:24:10Z</time>
      </trkpt>
      <trkpt lat="45.81922" lon="3.23985">
        <ele>377.42206</ele>
        <time>2020-03-15T11:24:14Z</time>
      </trkpt>
      <trkpt lat="45.81917" lon="3.23998">
        <ele>377.89597</ele>
        <time>2020-03-15T11:24:18Z</time>
      </trkpt>
      <trkpt lat="45.81911" lon="3.24011">
        <ele>378.75467</ele>
        <time>2020-03-15T11:24:22Z</time>
      </trkpt>
      <trkpt lat="45.81904" lon="3.24022">
        <ele>379.30478</ele>
        <time>2020-03-15T11:24:26Z</time>
      </trkpt>
      <trkpt lat="45.81898" lon="3.24036">
        <ele>379.49802</ele>
        <time>2020-03-15T11:24:30Z</time>
      </trkpt>
      <trkpt lat="45.81892" lon="3.24049">
        <ele>379.71542</ele>
        <time>2020-03-15T11:24:34Z</time>
      </trkpt>
      <trkpt lat="45.81885" lon="3.24062">
        <ele>380.29523</ele>
        <time>2020-03-15T11:24:38Z</time>
      </trkpt>
      <trkpt lat="45.81879" lon="3.24075">
        <ele>380.75577</ele>
        <time>2020-03-15T11:24:42Z</time>
      </trkpt>
      <trkpt lat="45.81872" lon="3.24088">
        <ele>380.9751</ele>
        <time>2020-03-15T11:24:46Z</time>
      </trkpt>
      <trkpt lat="45.81865" lon="3.241">
        <ele>381.75128</ele>
        <time>2020-03-15T11:24:50Z</time>
      </trkpt>
      <trkpt lat="45.81857" lon="3.24112">
        <ele>382.58496</ele>
        <time>2020-03-15T11:24:54Z</time>
      </trkpt>
      <trkpt lat="45.81852" lon="3.24125">
        <ele>383.4163</ele>
        <time>2020-03-15T11:24:58Z</time>
      </trkpt>
      <trkpt lat="45.81845" lon="3.24137">
        <ele>384.14014</ele>
        <time>2020-03-15T11:25:02Z</time>
      </trkpt>
      <trkpt lat="45.81839" lon="3.24149">
        <ele>383.59265</ele>
        <time>2020-03-15T11:25:06Z</time>
      </trkpt>
      <trkpt lat="45.81834" lon="3.24161">
        <ele>384.1026</ele>
        <time>2020-03-15T11:25:10Z</time>
      </trkpt>
      <trkpt lat="45.81828" lon="3.24175">
        <ele>385.93445</ele>
        <time>2020-03-15T11:25:14Z</time>
      </trkpt>
      <trkpt lat="45.81821" lon="3.24187">
        <ele>386.02637</ele>
        <time>2020-03-15T11:25:18Z</time>
      </trkpt>
      <trkpt lat="45.81815" lon="3.24197">
        <ele>386.4232</ele>
        <time>2020-03-15T11:25:22Z</time>
      </trkpt>
      <trkpt lat="45.81811" lon="3.24211">
        <ele>386.95496</ele>
        <time>2020-03-15T11:25:27Z</time>
      </trkpt>
      <trkpt lat="45.81805" lon="3.24223">
        <ele>387.92374</ele>
        <time>2020-03-15T11:25:32Z</time>
      </trkpt>
      <trkpt lat="45.81802" lon="3.24235">
        <ele>388.38113</ele>
        <time>2020-03-15T11:25:36Z</time>
      </trkpt>
      <trkpt lat="45.81801" lon="3.24248">
        <ele>388.72772</ele>
        <time>2020-03-15T11:25:40Z</time>
      </trkpt>
      <trkpt lat="45.81802" lon="3.24262">
        <ele>390.11993</ele>
        <time>2020-03-15T11:25:46Z</time>
      </trkpt>
      <trkpt lat="45.81801" lon="3.24265">
        <ele>390.99445</ele>
        <time>2020-03-15T11:25:53Z</time>
      </trkpt>
      <trkpt lat="45.81801" lon="3.24265">
        <ele>390.99445</ele>
        <time>2020-03-15T11:25:53Z</time>
      </trkpt>
      <trkpt lat="45.81798" lon="3.24247">
        <ele>393.2158</ele>
        <time>2020-03-15T11:26:03Z</time>
      </trkpt>
      <trkpt lat="45.81789" lon="3.24252">
        <ele>392.35077</ele>
        <time>2020-03-15T11:26:12Z</time>
      </trkpt>
      <trkpt lat="45.81783" lon="3.24264">
        <ele>392.83957</ele>
        <time>2020-03-15T11:26:17Z</time>
      </trkpt>
      <trkpt lat="45.81777" lon="3.24276">
        <ele>393.0107</ele>
        <time>2020-03-15T11:26:21Z</time>
      </trkpt>
      <trkpt lat="45.81771" lon="3.24289">
        <ele>393.25</ele>
        <time>2020-03-15T11:26:25Z</time>
      </trkpt>
      <trkpt lat="45.81764" lon="3.24302">
        <ele>393.25494</ele>
        <time>2020-03-15T11:26:29Z</time>
      </trkpt>
      <trkpt lat="45.81759" lon="3.24314">
        <ele>393.3697</ele>
        <time>2020-03-15T11:26:32Z</time>
      </trkpt>
      <trkpt lat="45.81753" lon="3.24328">
        <ele>394.3472</ele>
        <time>2020-03-15T11:26:36Z</time>
      </trkpt>
      <trkpt lat="45.81748" lon="3.24339">
        <ele>394.68668</ele>
        <time>2020-03-15T11:26:39Z</time>
      </trkpt>
      <trkpt lat="45.81743" lon="3.2435">
        <ele>394.94827</ele>
        <time>2020-03-15T11:26:42Z</time>
      </trkpt>
      <trkpt lat="45.81738" lon="3.24362">
        <ele>394.97574</ele>
        <time>2020-03-15T11:26:45Z</time>
      </trkpt>
      <trkpt lat="45.81733" lon="3.24375">
        <ele>394.97433</ele>
        <time>2020-03-15T11:26:49Z</time>
      </trkpt>
      <trkpt lat="45.81728" lon="3.24388">
        <ele>395.07864</ele>
        <time>2020-03-15T11:26:53Z</time>
      </trkpt>
      <trkpt lat="45.81725" lon="3.24401">
        <ele>395.11813</ele>
        <time>2020-03-15T11:26:57Z</time>
      </trkpt>
      <trkpt lat="45.81721" lon="3.24414">
        <ele>395.11813</ele>
        <time>2020-03-15T11:27:01Z</time>
      </trkpt>
      <trkpt lat="45.81721" lon="3.24417">
        <ele>395.11813</ele>
        <time>2020-03-15T11:27:02Z</time>
      </trkpt>
      <trkpt lat="45.81721" lon="3.24417">
        <ele>395.11813</ele>
        <time>2020-03-15T11:27:02Z</time>
      </trkpt>
      <trkpt lat="45.81722" lon="3.24453">
        <ele>395.68143</ele>
        <time>2020-03-15T11:27:16Z</time>
      </trkpt>
      <trkpt lat="45.81731" lon="3.24451">
        <ele>396.25714</ele>
        <time>2020-03-15T11:27:19Z</time>
      </trkpt>
      <trkpt lat="45.81743" lon="3.24448">
        <ele>397.0621</ele>
        <time>2020-03-15T11:27:23Z</time>
      </trkpt>
      <trkpt lat="45.81752" lon="3.24447">
        <ele>397.5774</ele>
        <time>2020-03-15T11:27:26Z</time>
      </trkpt>
      <trkpt lat="45.81757" lon="3.24436">
        <ele>397.83395</ele>
        <time>2020-03-15T11:27:30Z</time>
      </trkpt>
      <trkpt lat="45.81749" lon="3.24426">
        <ele>398.09482</ele>
        <time>2020-03-15T11:27:33Z</time>
      </trkpt>
      <trkpt lat="45.8174" lon="3.24418">
        <ele>397.78543</ele>
        <time>2020-03-15T11:27:36Z</time>
      </trkpt>
      <trkpt lat="45.81732" lon="3.24425">
        <ele>398.33026</ele>
        <time>2020-03-15T11:27:39Z</time>
      </trkpt>
      <trkpt lat="45.81729" lon="3.24438">
        <ele>398.14465</ele>
        <time>2020-03-15T11:27:42Z</time>
      </trkpt>
      <trkpt lat="45.81726" lon="3.24454">
        <ele>398.2387</ele>
        <time>2020-03-15T11:27:46Z</time>
      </trkpt>
      <trkpt lat="45.81732" lon="3.24468">
        <ele>398.09326</ele>
        <time>2020-03-15T11:27:50Z</time>
      </trkpt>
      <trkpt lat="45.81741" lon="3.24477">
        <ele>398.43365</ele>
        <time>2020-03-15T11:27:54Z</time>
      </trkpt>
      <trkpt lat="45.81744" lon="3.24467">
        <ele>398.68185</ele>
        <time>2020-03-15T11:28:04Z</time>
      </trkpt>
      <trkpt lat="45.81744" lon="3.24467">
        <ele>398.68185</ele>
        <time>2020-03-15T11:28:04Z</time>
      </trkpt>
      <trkpt lat="45.81762" lon="3.24494">
        <ele>397.57327</ele>
        <time>2020-03-15T11:28:21Z</time>
      </trkpt>
      <trkpt lat="45.8177" lon="3.24503">
        <ele>397.26584</ele>
        <time>2020-03-15T11:28:24Z</time>
      </trkpt>
      <trkpt lat="45.81778" lon="3.24515">
        <ele>397.0822</ele>
        <time>2020-03-15T11:28:27Z</time>
      </trkpt>
      <trkpt lat="45.81787" lon="3.24527">
        <ele>396.88998</ele>
        <time>2020-03-15T11:28:30Z</time>
      </trkpt>
      <trkpt lat="45.81795" lon="3.2454">
        <ele>396.878</ele>
        <time>2020-03-15T11:28:33Z</time>
      </trkpt>
      <trkpt lat="45.81805" lon="3.24553">
        <ele>396.4209</ele>
        <time>2020-03-15T11:28:36Z</time>
      </trkpt>
      <trkpt lat="45.81814" lon="3.24565">
        <ele>396.24258</ele>
        <time>2020-03-15T11:28:39Z</time>
      </trkpt>
      <trkpt lat="45.81824" lon="3.24578">
        <ele>396.34952</ele>
        <time>2020-03-15T11:28:42Z</time>
      </trkpt>
      <trkpt lat="45.81834" lon="3.2459">
        <ele>397.1209</ele>
        <time>2020-03-15T11:28:45Z</time>
      </trkpt>
      <trkpt lat="45.81843" lon="3.246">
        <ele>398.36697</ele>
        <time>2020-03-15T11:28:48Z</time>
      </trkpt>
      <trkpt lat="45.81852" lon="3.2461">
        <ele>399.4194</ele>
        <time>2020-03-15T11:28:51Z</time>
      </trkpt>
      <trkpt lat="45.8186" lon="3.24622">
        <ele>400.72327</ele>
        <time>2020-03-15T11:28:54Z</time>
      </trkpt>
      <trkpt lat="45.81867" lon="3.24635">
        <ele>402.24844</ele>
        <time>2020-03-15T11:28:57Z</time>
      </trkpt>
      <trkpt lat="45.81873" lon="3.24652">
        <ele>402.30966</ele>
        <time>2020-03-15T11:29:00Z</time>
      </trkpt>
      <trkpt lat="45.81878" lon="3.24664">
        <ele>402.16232</ele>
        <time>2020-03-15T11:29:02Z</time>
      </trkpt>
      <trkpt lat="45.81882" lon="3.24676">
        <ele>402.18484</ele>
        <time>2020-03-15T11:29:04Z</time>
      </trkpt>
      <trkpt lat="45.81886" lon="3.24689">
        <ele>402.01663</ele>
        <time>2020-03-15T11:29:06Z</time>
      </trkpt>
      <trkpt lat="45.81892" lon="3.24702">
        <ele>402.0657</ele>
        <time>2020-03-15T11:29:08Z</time>
      </trkpt>
      <trkpt lat="45.81897" lon="3.24715">
        <ele>401.98642</ele>
        <time>2020-03-15T11:29:10Z</time>
      </trkpt>
      <trkpt lat="45.81902" lon="3.24728">
        <ele>401.9547</ele>
        <time>2020-03-15T11:29:12Z</time>
      </trkpt>
      <trkpt lat="45.81907" lon="3.24739">
        <ele>401.7905</ele>
        <time>2020-03-15T11:29:14Z</time>
      </trkpt>
      <trkpt lat="45.81914" lon="3.24755">
        <ele>401.74844</ele>
        <time>2020-03-15T11:29:17Z</time>
      </trkpt>
      <trkpt lat="45.8192" lon="3.24765">
        <ele>401.74963</ele>
        <time>2020-03-15T11:29:19Z</time>
      </trkpt>
      <trkpt lat="45.81925" lon="3.24776">
        <ele>401.89862</ele>
        <time>2020-03-15T11:29:21Z</time>
      </trkpt>
      <trkpt lat="45.8193" lon="3.24787">
        <ele>402.04834</ele>
        <time>2020-03-15T11:29:23Z</time>
      </trkpt>
      <trkpt lat="45.81936" lon="3.24799">
        <ele>402.1674</ele>
        <time>2020-03-15T11:29:25Z</time>
      </trkpt>
      <trkpt lat="45.81941" lon="3.2481">
        <ele>402.46402</ele>
        <time>2020-03-15T11:29:27Z</time>
      </trkpt>
      <trkpt lat="45.81945" lon="3.24822">
        <ele>402.91672</ele>
        <time>2020-03-15T11:29:29Z</time>
      </trkpt>
      <trkpt lat="45.8195" lon="3.24834">
        <ele>403.20386</ele>
        <time>2020-03-15T11:29:31Z</time>
      </trkpt>
      <trkpt lat="45.81955" lon="3.24847">
        <ele>403.38705</ele>
        <time>2020-03-15T11:29:33Z</time>
      </trkpt>
      <trkpt lat="45.81962" lon="3.2486">
        <ele>403.52997</ele>
        <time>2020-03-15T11:29:35Z</time>
      </trkpt>
      <trkpt lat="45.8197" lon="3.24873">
        <ele>403.5072</ele>
        <time>2020-03-15T11:29:37Z</time>
      </trkpt>
      <trkpt lat="45.81978" lon="3.24884">
        <ele>403.20587</ele>
        <time>2020-03-15T11:29:39Z</time>
      </trkpt>
      <trkpt lat="45.81987" lon="3.24895">
        <ele>402.8609</ele>
        <time>2020-03-15T11:29:41Z</time>
      </trkpt>
      <trkpt lat="45.81996" lon="3.24904">
        <ele>402.718</ele>
        <time>2020-03-15T11:29:43Z</time>
      </trkpt>
      <trkpt lat="45.82005" lon="3.24915">
        <ele>402.60934</ele>
        <time>2020-03-15T11:29:45Z</time>
      </trkpt>
      <trkpt lat="45.82014" lon="3.24925">
        <ele>402.0705</ele>
        <time>2020-03-15T11:29:47Z</time>
      </trkpt>
      <trkpt lat="45.82023" lon="3.24936">
        <ele>401.7593</ele>
        <time>2020-03-15T11:29:49Z</time>
      </trkpt>
      <trkpt lat="45.82032" lon="3.24946">
        <ele>401.30502</ele>
        <time>2020-03-15T11:29:51Z</time>
      </trkpt>
      <trkpt lat="45.82041" lon="3.24956">
        <ele>401.05225</ele>
        <time>2020-03-15T11:29:53Z</time>
      </trkpt>
      <trkpt lat="45.8205" lon="3.24967">
        <ele>400.6934</ele>
        <time>2020-03-15T11:29:55Z</time>
      </trkpt>
      <trkpt lat="45.82059" lon="3.24978">
        <ele>400.52625</ele>
        <time>2020-03-15T11:29:57Z</time>
      </trkpt>
      <trkpt lat="45.82069" lon="3.24989">
        <ele>400.37927</ele>
        <time>2020-03-15T11:29:59Z</time>
      </trkpt>
      <trkpt lat="45.82079" lon="3.25">
        <ele>399.99106</ele>
        <time>2020-03-15T11:30:01Z</time>
      </trkpt>
      <trkpt lat="45.82089" lon="3.25011">
        <ele>399.6262</ele>
        <time>2020-03-15T11:30:03Z</time>
      </trkpt>
      <trkpt lat="45.821" lon="3.25021">
        <ele>399.0194</ele>
        <time>2020-03-15T11:30:05Z</time>
      </trkpt>
      <trkpt lat="45.8211" lon="3.25031">
        <ele>398.5319</ele>
        <time>2020-03-15T11:30:07Z</time>
      </trkpt>
      <trkpt lat="45.8212" lon="3.25041">
        <ele>398.32367</ele>
        <time>2020-03-15T11:30:09Z</time>
      </trkpt>
      <trkpt lat="45.8213" lon="3.2505">
        <ele>398.0675</ele>
        <time>2020-03-15T11:30:11Z</time>
      </trkpt>
      <trkpt lat="45.82141" lon="3.2506">
        <ele>397.7106</ele>
        <time>2020-03-15T11:30:13Z</time>
      </trkpt>
      <trkpt lat="45.82151" lon="3.25069">
        <ele>397.25998</ele>
        <time>2020-03-15T11:30:15Z</time>
      </trkpt>
      <trkpt lat="45.82161" lon="3.25078">
        <ele>396.87198</ele>
        <time>2020-03-15T11:30:17Z</time>
      </trkpt>
      <trkpt lat="45.82172" lon="3.25087">
        <ele>396.34332</ele>
        <time>2020-03-15T11:30:19Z</time>
      </trkpt>
      <trkpt lat="45.82183" lon="3.25097">
        <ele>395.8845</ele>
        <time>2020-03-15T11:30:21Z</time>
      </trkpt>
      <trkpt lat="45.82193" lon="3.25108">
        <ele>395.38123</ele>
        <time>2020-03-15T11:30:23Z</time>
      </trkpt>
      <trkpt lat="45.82203" lon="3.25118">
        <ele>395.10907</ele>
        <time>2020-03-15T11:30:25Z</time>
      </trkpt>
      <trkpt lat="45.82212" lon="3.25128">
        <ele>394.9222</ele>
        <time>2020-03-15T11:30:27Z</time>
      </trkpt>
      <trkpt lat="45.82221" lon="3.25138">
        <ele>394.759</ele>
        <time>2020-03-15T11:30:29Z</time>
      </trkpt>
      <trkpt lat="45.8223" lon="3.25149">
        <ele>394.4169</ele>
        <time>2020-03-15T11:30:31Z</time>
      </trkpt>
      <trkpt lat="45.82241" lon="3.25158">
        <ele>393.95807</ele>
        <time>2020-03-15T11:30:33Z</time>
      </trkpt>
      <trkpt lat="45.82252" lon="3.25166">
        <ele>393.49255</ele>
        <time>2020-03-15T11:30:35Z</time>
      </trkpt>
      <trkpt lat="45.82264" lon="3.25176">
        <ele>393.50006</ele>
        <time>2020-03-15T11:30:37Z</time>
      </trkpt>
      <trkpt lat="45.82274" lon="3.25184">
        <ele>393.4246</ele>
        <time>2020-03-15T11:30:39Z</time>
      </trkpt>
      <trkpt lat="45.82286" lon="3.25192">
        <ele>393.37387</ele>
        <time>2020-03-15T11:30:41Z</time>
      </trkpt>
      <trkpt lat="45.82298" lon="3.25203">
        <ele>393.13315</ele>
        <time>2020-03-15T11:30:43Z</time>
      </trkpt>
      <trkpt lat="45.8231" lon="3.25214">
        <ele>392.98706</ele>
        <time>2020-03-15T11:30:45Z</time>
      </trkpt>
      <trkpt lat="45.8232" lon="3.25224">
        <ele>392.89706</ele>
        <time>2020-03-15T11:30:47Z</time>
      </trkpt>
      <trkpt lat="45.82331" lon="3.25234">
        <ele>393.03104</ele>
        <time>2020-03-15T11:30:49Z</time>
      </trkpt>
      <trkpt lat="45.82341" lon="3.25245">
        <ele>392.90366</ele>
        <time>2020-03-15T11:30:51Z</time>
      </trkpt>
      <trkpt lat="45.82351" lon="3.25255">
        <ele>392.8707</ele>
        <time>2020-03-15T11:30:53Z</time>
      </trkpt>
      <trkpt lat="45.82362" lon="3.25264">
        <ele>392.85168</ele>
        <time>2020-03-15T11:30:55Z</time>
      </trkpt>
      <trkpt lat="45.82372" lon="3.25274">
        <ele>393.0353</ele>
        <time>2020-03-15T11:30:57Z</time>
      </trkpt>
      <trkpt lat="45.82383" lon="3.25283">
        <ele>393.19394</ele>
        <time>2020-03-15T11:30:59Z</time>
      </trkpt>
      <trkpt lat="45.82393" lon="3.25293">
        <ele>393.19012</ele>
        <time>2020-03-15T11:31:01Z</time>
      </trkpt>
      <trkpt lat="45.82403" lon="3.25301">
        <ele>392.96536</ele>
        <time>2020-03-15T11:31:03Z</time>
      </trkpt>
      <trkpt lat="45.82414" lon="3.2531">
        <ele>392.89374</ele>
        <time>2020-03-15T11:31:05Z</time>
      </trkpt>
      <trkpt lat="45.82425" lon="3.2532">
        <ele>392.8894</ele>
        <time>2020-03-15T11:31:07Z</time>
      </trkpt>
      <trkpt lat="45.82435" lon="3.25331">
        <ele>392.96075</ele>
        <time>2020-03-15T11:31:09Z</time>
      </trkpt>
      <trkpt lat="45.82443" lon="3.25343">
        <ele>393.05405</ele>
        <time>2020-03-15T11:31:11Z</time>
      </trkpt>
      <trkpt lat="45.82451" lon="3.25354">
        <ele>392.74454</ele>
        <time>2020-03-15T11:31:13Z</time>
      </trkpt>
      <trkpt lat="45.8246" lon="3.25367">
        <ele>392.5816</ele>
        <time>2020-03-15T11:31:15Z</time>
      </trkpt>
      <trkpt lat="45.82469" lon="3.2538">
        <ele>392.67117</ele>
        <time>2020-03-15T11:31:17Z</time>
      </trkpt>
      <trkpt lat="45.82478" lon="3.25394">
        <ele>392.7445</ele>
        <time>2020-03-15T11:31:19Z</time>
      </trkpt>
      <trkpt lat="45.82489" lon="3.25406">
        <ele>392.6179</ele>
        <time>2020-03-15T11:31:21Z</time>
      </trkpt>
      <trkpt lat="45.82499" lon="3.25417">
        <ele>392.47516</ele>
        <time>2020-03-15T11:31:23Z</time>
      </trkpt>
      <trkpt lat="45.8251" lon="3.25428">
        <ele>392.44644</ele>
        <time>2020-03-15T11:31:25Z</time>
      </trkpt>
      <trkpt lat="45.8252" lon="3.25438">
        <ele>392.7718</ele>
        <time>2020-03-15T11:31:27Z</time>
      </trkpt>
      <trkpt lat="45.82531" lon="3.25448">
        <ele>392.6172</ele>
        <time>2020-03-15T11:31:29Z</time>
      </trkpt>
      <trkpt lat="45.82541" lon="3.25458">
        <ele>392.99796</ele>
        <time>2020-03-15T11:31:31Z</time>
      </trkpt>
      <trkpt lat="45.82552" lon="3.25469">
        <ele>393.55997</ele>
        <time>2020-03-15T11:31:33Z</time>
      </trkpt>
      <trkpt lat="45.82563" lon="3.25478">
        <ele>393.83905</ele>
        <time>2020-03-15T11:31:35Z</time>
      </trkpt>
      <trkpt lat="45.82573" lon="3.25487">
        <ele>394.01443</ele>
        <time>2020-03-15T11:31:37Z</time>
      </trkpt>
      <trkpt lat="45.82584" lon="3.25495">
        <ele>393.95465</ele>
        <time>2020-03-15T11:31:39Z</time>
      </trkpt>
      <trkpt lat="45.82596" lon="3.25504">
        <ele>393.88773</ele>
        <time>2020-03-15T11:31:41Z</time>
      </trkpt>
      <trkpt lat="45.82607" lon="3.25514">
        <ele>394.07623</ele>
        <time>2020-03-15T11:31:43Z</time>
      </trkpt>
      <trkpt lat="45.82618" lon="3.25524">
        <ele>394.2845</ele>
        <time>2020-03-15T11:31:45Z</time>
      </trkpt>
      <trkpt lat="45.82629" lon="3.25534">
        <ele>394.33533</ele>
        <time>2020-03-15T11:31:47Z</time>
      </trkpt>
      <trkpt lat="45.8264" lon="3.25545">
        <ele>394.40506</ele>
        <time>2020-03-15T11:31:49Z</time>
      </trkpt>
      <trkpt lat="45.82652" lon="3.25557">
        <ele>394.37137</ele>
        <time>2020-03-15T11:31:51Z</time>
      </trkpt>
      <trkpt lat="45.82663" lon="3.25568">
        <ele>394.21634</ele>
        <time>2020-03-15T11:31:53Z</time>
      </trkpt>
      <trkpt lat="45.82673" lon="3.25578">
        <ele>394.3966</ele>
        <time>2020-03-15T11:31:55Z</time>
      </trkpt>
      <trkpt lat="45.82684" lon="3.25586">
        <ele>394.55237</ele>
        <time>2020-03-15T11:31:57Z</time>
      </trkpt>
      <trkpt lat="45.82695" lon="3.25593">
        <ele>394.73004</ele>
        <time>2020-03-15T11:31:59Z</time>
      </trkpt>
      <trkpt lat="45.82707" lon="3.25599">
        <ele>394.7159</ele>
        <time>2020-03-15T11:32:01Z</time>
      </trkpt>
      <trkpt lat="45.82718" lon="3.25602">
        <ele>394.65067</ele>
        <time>2020-03-15T11:32:03Z</time>
      </trkpt>
      <trkpt lat="45.82731" lon="3.25605">
        <ele>394.69427</ele>
        <time>2020-03-15T11:32:05Z</time>
      </trkpt>
      <trkpt lat="45.82742" lon="3.25607">
        <ele>394.68015</ele>
        <time>2020-03-15T11:32:07Z</time>
      </trkpt>
      <trkpt lat="45.82751" lon="3.25609">
        <ele>394.56702</ele>
        <time>2020-03-15T11:32:09Z</time>
      </trkpt>
      <trkpt lat="45.82761" lon="3.25606">
        <ele>394.2216</ele>
        <time>2020-03-15T11:32:12Z</time>
      </trkpt>
      <trkpt lat="45.82764" lon="3.25593">
        <ele>393.98648</ele>
        <time>2020-03-15T11:32:16Z</time>
      </trkpt>
      <trkpt lat="45.8276" lon="3.2558">
        <ele>394.31647</ele>
        <time>2020-03-15T11:32:19Z</time>
      </trkpt>
      <trkpt lat="45.82757" lon="3.25562">
        <ele>394.2741</ele>
        <time>2020-03-15T11:32:22Z</time>
      </trkpt>
      <trkpt lat="45.82756" lon="3.25549">
        <ele>394.21625</ele>
        <time>2020-03-15T11:32:24Z</time>
      </trkpt>
      <trkpt lat="45.82754" lon="3.25536">
        <ele>394.12213</ele>
        <time>2020-03-15T11:32:26Z</time>
      </trkpt>
      <trkpt lat="45.82752" lon="3.25522">
        <ele>393.92618</ele>
        <time>2020-03-15T11:32:28Z</time>
      </trkpt>
      <trkpt lat="45.82751" lon="3.25508">
        <ele>393.80545</ele>
        <time>2020-03-15T11:32:30Z</time>
      </trkpt>
      <trkpt lat="45.8275" lon="3.25495">
        <ele>393.93866</ele>
        <time>2020-03-15T11:32:31Z</time>
      </trkpt>
      <trkpt lat="45.82748" lon="3.25481">
        <ele>394.0452</ele>
        <time>2020-03-15T11:32:34Z</time>
      </trkpt>
      <trkpt lat="45.82747" lon="3.25467">
        <ele>393.84537</ele>
        <time>2020-03-15T11:32:36Z</time>
      </trkpt>
      <trkpt lat="45.82746" lon="3.25453">
        <ele>393.71487</ele>
        <time>2020-03-15T11:32:37Z</time>
      </trkpt>
      <trkpt lat="45.82745" lon="3.25438">
        <ele>393.14883</ele>
        <time>2020-03-15T11:32:39Z</time>
      </trkpt>
      <trkpt lat="45.82745" lon="3.25421">
        <ele>392.644</ele>
        <time>2020-03-15T11:32:41Z</time>
      </trkpt>
      <trkpt lat="45.82745" lon="3.25404">
        <ele>392.13745</ele>
        <time>2020-03-15T11:32:43Z</time>
      </trkpt>
      <trkpt lat="45.82744" lon="3.25386">
        <ele>391.71652</ele>
        <time>2020-03-15T11:32:45Z</time>
      </trkpt>
      <trkpt lat="45.82743" lon="3.25368">
        <ele>391.3109</ele>
        <time>2020-03-15T11:32:47Z</time>
      </trkpt>
      <trkpt lat="45.82742" lon="3.25349">
        <ele>390.6349</ele>
        <time>2020-03-15T11:32:49Z</time>
      </trkpt>
      <trkpt lat="45.82742" lon="3.25329">
        <ele>389.89392</ele>
        <time>2020-03-15T11:32:51Z</time>
      </trkpt>
      <trkpt lat="45.82742" lon="3.25311">
        <ele>389.2133</ele>
        <time>2020-03-15T11:32:53Z</time>
      </trkpt>
      <trkpt lat="45.82741" lon="3.25291">
        <ele>388.37292</ele>
        <time>2020-03-15T11:32:55Z</time>
      </trkpt>
      <trkpt lat="45.82739" lon="3.25269">
        <ele>387.6522</ele>
        <time>2020-03-15T11:32:57Z</time>
      </trkpt>
      <trkpt lat="45.82737" lon="3.25235">
        <ele>385.80542</ele>
        <time>2020-03-15T11:33:00Z</time>
      </trkpt>
      <trkpt lat="45.82736" lon="3.25212">
        <ele>384.7744</ele>
        <time>2020-03-15T11:33:02Z</time>
      </trkpt>
      <trkpt lat="45.82735" lon="3.2519">
        <ele>383.91113</ele>
        <time>2020-03-15T11:33:04Z</time>
      </trkpt>
      <trkpt lat="45.82734" lon="3.25168">
        <ele>382.82193</ele>
        <time>2020-03-15T11:33:06Z</time>
      </trkpt>
      <trkpt lat="45.82732" lon="3.25146">
        <ele>381.81628</ele>
        <time>2020-03-15T11:33:08Z</time>
      </trkpt>
      <trkpt lat="45.82732" lon="3.25125">
        <ele>380.93225</ele>
        <time>2020-03-15T11:33:10Z</time>
      </trkpt>
      <trkpt lat="45.82729" lon="3.25106">
        <ele>380.16376</ele>
        <time>2020-03-15T11:33:12Z</time>
      </trkpt>
      <trkpt lat="45.82724" lon="3.25089">
        <ele>379.76724</ele>
        <time>2020-03-15T11:33:14Z</time>
      </trkpt>
      <trkpt lat="45.82717" lon="3.25075">
        <ele>379.0165</ele>
        <time>2020-03-15T11:33:16Z</time>
      </trkpt>
      <trkpt lat="45.82712" lon="3.2506">
        <ele>378.34927</ele>
        <time>2020-03-15T11:33:18Z</time>
      </trkpt>
      <trkpt lat="45.8271" lon="3.25043">
        <ele>377.94946</ele>
        <time>2020-03-15T11:33:20Z</time>
      </trkpt>
      <trkpt lat="45.82711" lon="3.25027">
        <ele>377.57336</ele>
        <time>2020-03-15T11:33:22Z</time>
      </trkpt>
      <trkpt lat="45.82715" lon="3.2501">
        <ele>377.37762</ele>
        <time>2020-03-15T11:33:24Z</time>
      </trkpt>
      <trkpt lat="45.82716" lon="3.24994">
        <ele>377.05472</ele>
        <time>2020-03-15T11:33:26Z</time>
      </trkpt>
      <trkpt lat="45.82711" lon="3.2498">
        <ele>376.86798</ele>
        <time>2020-03-15T11:33:28Z</time>
      </trkpt>
      <trkpt lat="45.82705" lon="3.24968">
        <ele>376.51797</ele>
        <time>2020-03-15T11:33:30Z</time>
      </trkpt>
      <trkpt lat="45.82701" lon="3.24956">
        <ele>375.96683</ele>
        <time>2020-03-15T11:33:32Z</time>
      </trkpt>
      <trkpt lat="45.82695" lon="3.24944">
        <ele>375.67365</ele>
        <time>2020-03-15T11:33:34Z</time>
      </trkpt>
      <trkpt lat="45.82688" lon="3.24935">
        <ele>375.75534</ele>
        <time>2020-03-15T11:33:36Z</time>
      </trkpt>
      <trkpt lat="45.8268" lon="3.24926">
        <ele>376.10388</ele>
        <time>2020-03-15T11:33:38Z</time>
      </trkpt>
      <trkpt lat="45.82672" lon="3.24918">
        <ele>376.40353</ele>
        <time>2020-03-15T11:33:40Z</time>
      </trkpt>
      <trkpt lat="45.82663" lon="3.24911">
        <ele>376.79236</ele>
        <time>2020-03-15T11:33:42Z</time>
      </trkpt>
      <trkpt lat="45.82656" lon="3.24902">
        <ele>376.43152</ele>
        <time>2020-03-15T11:33:44Z</time>
      </trkpt>
      <trkpt lat="45.82649" lon="3.24893">
        <ele>377.7449</ele>
        <time>2020-03-15T11:33:46Z</time>
      </trkpt>
      <trkpt lat="45.82647" lon="3.24878">
        <ele>377.74118</ele>
        <time>2020-03-15T11:33:49Z</time>
      </trkpt>
      <trkpt lat="45.82657" lon="3.24873">
        <ele>377.37924</ele>
        <time>2020-03-15T11:33:52Z</time>
      </trkpt>
      <trkpt lat="45.82666" lon="3.24878">
        <ele>377.96582</ele>
        <time>2020-03-15T11:33:55Z</time>
      </trkpt>
      <trkpt lat="45.82676" lon="3.24884">
        <ele>378.61432</ele>
        <time>2020-03-15T11:33:58Z</time>
      </trkpt>
      <trkpt lat="45.82686" lon="3.24891">
        <ele>378.2962</ele>
        <time>2020-03-15T11:34:01Z</time>
      </trkpt>
      <trkpt lat="45.82697" lon="3.24899">
        <ele>378.37772</ele>
        <time>2020-03-15T11:34:04Z</time>
      </trkpt>
      <trkpt lat="45.82706" lon="3.24904">
        <ele>378.35135</ele>
        <time>2020-03-15T11:34:06Z</time>
      </trkpt>
      <trkpt lat="45.82715" lon="3.2491">
        <ele>378.38284</ele>
        <time>2020-03-15T11:34:08Z</time>
      </trkpt>
      <trkpt lat="45.82726" lon="3.24916">
        <ele>378.01035</ele>
        <time>2020-03-15T11:34:10Z</time>
      </trkpt>
      <trkpt lat="45.82736" lon="3.24923">
        <ele>377.9618</ele>
        <time>2020-03-15T11:34:12Z</time>
      </trkpt>
      <trkpt lat="45.82748" lon="3.24928">
        <ele>378.02823</ele>
        <time>2020-03-15T11:34:14Z</time>
      </trkpt>
      <trkpt lat="45.82759" lon="3.24935">
        <ele>377.8131</ele>
        <time>2020-03-15T11:34:16Z</time>
      </trkpt>
      <trkpt lat="45.8277" lon="3.24942">
        <ele>377.54736</ele>
        <time>2020-03-15T11:34:18Z</time>
      </trkpt>
      <trkpt lat="45.8278" lon="3.24948">
        <ele>377.25238</ele>
        <time>2020-03-15T11:34:20Z</time>
      </trkpt>
      <trkpt lat="45.82791" lon="3.24953">
        <ele>376.77835</ele>
        <time>2020-03-15T11:34:22Z</time>
      </trkpt>
      <trkpt lat="45.82802" lon="3.24954">
        <ele>376.5629</ele>
        <time>2020-03-15T11:34:24Z</time>
      </trkpt>
      <trkpt lat="45.82812" lon="3.24955">
        <ele>376.40405</ele>
        <time>2020-03-15T11:34:26Z</time>
      </trkpt>
      <trkpt lat="45.82823" lon="3.24961">
        <ele>375.78793</ele>
        <time>2020-03-15T11:34:28Z</time>
      </trkpt>
      <trkpt lat="45.82836" lon="3.2497">
        <ele>375.1227</ele>
        <time>2020-03-15T11:34:30Z</time>
      </trkpt>
      <trkpt lat="45.82851" lon="3.2498">
        <ele>374.33215</ele>
        <time>2020-03-15T11:34:32Z</time>
      </trkpt>
      <trkpt lat="45.8286" lon="3.24985">
        <ele>373.95963</ele>
        <time>2020-03-15T11:34:33Z</time>
      </trkpt>
      <trkpt lat="45.82869" lon="3.24989">
        <ele>373.57584</ele>
        <time>2020-03-15T11:34:34Z</time>
      </trkpt>
      <trkpt lat="45.82879" lon="3.2499">
        <ele>373.14313</ele>
        <time>2020-03-15T11:34:35Z</time>
      </trkpt>
      <trkpt lat="45.82889" lon="3.24987">
        <ele>372.65884</ele>
        <time>2020-03-15T11:34:36Z</time>
      </trkpt>
      <trkpt lat="45.82899" lon="3.24982">
        <ele>372.14178</ele>
        <time>2020-03-15T11:34:37Z</time>
      </trkpt>
      <trkpt lat="45.82908" lon="3.24977">
        <ele>371.4919</ele>
        <time>2020-03-15T11:34:38Z</time>
      </trkpt>
      <trkpt lat="45.82916" lon="3.24972">
        <ele>371.06348</ele>
        <time>2020-03-15T11:34:39Z</time>
      </trkpt>
      <trkpt lat="45.82925" lon="3.24967">
        <ele>370.70737</ele>
        <time>2020-03-15T11:34:40Z</time>
      </trkpt>
      <trkpt lat="45.82941" lon="3.24957">
        <ele>369.8748</ele>
        <time>2020-03-15T11:34:42Z</time>
      </trkpt>
      <trkpt lat="45.82958" lon="3.24948">
        <ele>369.13644</ele>
        <time>2020-03-15T11:34:44Z</time>
      </trkpt>
      <trkpt lat="45.82974" lon="3.24939">
        <ele>368.3137</ele>
        <time>2020-03-15T11:34:46Z</time>
      </trkpt>
      <trkpt lat="45.8299" lon="3.2493">
        <ele>367.69</ele>
        <time>2020-03-15T11:34:48Z</time>
      </trkpt>
      <trkpt lat="45.83007" lon="3.24921">
        <ele>367.17224</ele>
        <time>2020-03-15T11:34:50Z</time>
      </trkpt>
      <trkpt lat="45.83021" lon="3.24914">
        <ele>366.55832</ele>
        <time>2020-03-15T11:34:52Z</time>
      </trkpt>
      <trkpt lat="45.83032" lon="3.24909">
        <ele>366.01727</ele>
        <time>2020-03-15T11:34:54Z</time>
      </trkpt>
      <trkpt lat="45.83046" lon="3.24903">
        <ele>365.6484</ele>
        <time>2020-03-15T11:34:56Z</time>
      </trkpt>
      <trkpt lat="45.83061" lon="3.24896">
        <ele>365.15265</ele>
        <time>2020-03-15T11:34:58Z</time>
      </trkpt>
      <trkpt lat="45.83076" lon="3.24888">
        <ele>364.7461</ele>
        <time>2020-03-15T11:35:00Z</time>
      </trkpt>
      <trkpt lat="45.83091" lon="3.2488">
        <ele>364.28186</ele>
        <time>2020-03-15T11:35:02Z</time>
      </trkpt>
      <trkpt lat="45.83106" lon="3.24872">
        <ele>363.63596</ele>
        <time>2020-03-15T11:35:04Z</time>
      </trkpt>
      <trkpt lat="45.8312" lon="3.24864">
        <ele>363.10593</ele>
        <time>2020-03-15T11:35:06Z</time>
      </trkpt>
      <trkpt lat="45.83133" lon="3.24857">
        <ele>362.46387</ele>
        <time>2020-03-15T11:35:08Z</time>
      </trkpt>
      <trkpt lat="45.83146" lon="3.24849">
        <ele>361.87903</ele>
        <time>2020-03-15T11:35:10Z</time>
      </trkpt>
      <trkpt lat="45.83158" lon="3.24843">
        <ele>361.50674</ele>
        <time>2020-03-15T11:35:12Z</time>
      </trkpt>
      <trkpt lat="45.8317" lon="3.24836">
        <ele>361.18698</ele>
        <time>2020-03-15T11:35:14Z</time>
      </trkpt>
      <trkpt lat="45.83183" lon="3.24829">
        <ele>360.72183</ele>
        <time>2020-03-15T11:35:16Z</time>
      </trkpt>
      <trkpt lat="45.83195" lon="3.24822">
        <ele>360.4793</ele>
        <time>2020-03-15T11:35:18Z</time>
      </trkpt>
      <trkpt lat="45.83205" lon="3.24815">
        <ele>360.1777</ele>
        <time>2020-03-15T11:35:20Z</time>
      </trkpt>
      <trkpt lat="45.83214" lon="3.24811">
        <ele>359.91837</ele>
        <time>2020-03-15T11:35:22Z</time>
      </trkpt>
      <trkpt lat="45.83224" lon="3.24817">
        <ele>359.6508</ele>
        <time>2020-03-15T11:35:26Z</time>
      </trkpt>
      <trkpt lat="45.83227" lon="3.24835">
        <ele>359.81183</ele>
        <time>2020-03-15T11:35:29Z</time>
      </trkpt>
      <trkpt lat="45.83232" lon="3.24849">
        <ele>359.96353</ele>
        <time>2020-03-15T11:35:31Z</time>
      </trkpt>
      <trkpt lat="45.83235" lon="3.24864">
        <ele>360.11093</ele>
        <time>2020-03-15T11:35:33Z</time>
      </trkpt>
      <trkpt lat="45.83239" lon="3.24878">
        <ele>360.5057</ele>
        <time>2020-03-15T11:35:35Z</time>
      </trkpt>
      <trkpt lat="45.83242" lon="3.24892">
        <ele>360.28088</ele>
        <time>2020-03-15T11:35:37Z</time>
      </trkpt>
      <trkpt lat="45.83247" lon="3.24906">
        <ele>359.9764</ele>
        <time>2020-03-15T11:35:39Z</time>
      </trkpt>
      <trkpt lat="45.8325" lon="3.24919">
        <ele>360.13055</ele>
        <time>2020-03-15T11:35:41Z</time>
      </trkpt>
      <trkpt lat="45.83253" lon="3.24933">
        <ele>360.5956</ele>
        <time>2020-03-15T11:35:43Z</time>
      </trkpt>
      <trkpt lat="45.83257" lon="3.24946">
        <ele>361.04495</ele>
        <time>2020-03-15T11:35:45Z</time>
      </trkpt>
      <trkpt lat="45.8326" lon="3.2496">
        <ele>361.19138</ele>
        <time>2020-03-15T11:35:47Z</time>
      </trkpt>
      <trkpt lat="45.83263" lon="3.24973">
        <ele>361.24365</ele>
        <time>2020-03-15T11:35:49Z</time>
      </trkpt>
      <trkpt lat="45.83266" lon="3.24986">
        <ele>360.92902</ele>
        <time>2020-03-15T11:35:51Z</time>
      </trkpt>
      <trkpt lat="45.8327" lon="3.24999">
        <ele>361.8703</ele>
        <time>2020-03-15T11:35:53Z</time>
      </trkpt>
      <trkpt lat="45.83274" lon="3.25016">
        <ele>362.36017</ele>
        <time>2020-03-15T11:35:56Z</time>
      </trkpt>
      <trkpt lat="45.83278" lon="3.25034">
        <ele>362.73453</ele>
        <time>2020-03-15T11:35:59Z</time>
      </trkpt>
      <trkpt lat="45.83281" lon="3.25047">
        <ele>363.17532</ele>
        <time>2020-03-15T11:36:01Z</time>
      </trkpt>
      <trkpt lat="45.83286" lon="3.25063">
        <ele>363.95984</ele>
        <time>2020-03-15T11:36:04Z</time>
      </trkpt>
      <trkpt lat="45.83291" lon="3.25081">
        <ele>364.38287</ele>
        <time>2020-03-15T11:36:07Z</time>
      </trkpt>
      <trkpt lat="45.83295" lon="3.25099">
        <ele>364.81656</ele>
        <time>2020-03-15T11:36:10Z</time>
      </trkpt>
      <trkpt lat="45.83299" lon="3.25117">
        <ele>365.225</ele>
        <time>2020-03-15T11:36:13Z</time>
      </trkpt>
      <trkpt lat="45.83304" lon="3.25133">
        <ele>365.53915</ele>
        <time>2020-03-15T11:36:16Z</time>
      </trkpt>
      <trkpt lat="45.83307" lon="3.2515">
        <ele>365.44556</ele>
        <time>2020-03-15T11:36:19Z</time>
      </trkpt>
      <trkpt lat="45.8331" lon="3.25167">
        <ele>367.25168</ele>
        <time>2020-03-15T11:36:22Z</time>
      </trkpt>
      <trkpt lat="45.83315" lon="3.25183">
        <ele>366.45184</ele>
        <time>2020-03-15T11:36:25Z</time>
      </trkpt>
      <trkpt lat="45.8332" lon="3.252">
        <ele>365.28427</ele>
        <time>2020-03-15T11:36:28Z</time>
      </trkpt>
      <trkpt lat="45.83324" lon="3.25216">
        <ele>365.63583</ele>
        <time>2020-03-15T11:36:31Z</time>
      </trkpt>
      <trkpt lat="45.83328" lon="3.25233">
        <ele>364.1874</ele>
        <time>2020-03-15T11:36:34Z</time>
      </trkpt>
      <trkpt lat="45.83332" lon="3.25251">
        <ele>364.1089</ele>
        <time>2020-03-15T11:36:37Z</time>
      </trkpt>
      <trkpt lat="45.83337" lon="3.25269">
        <ele>363.95694</ele>
        <time>2020-03-15T11:36:40Z</time>
      </trkpt>
      <trkpt lat="45.8334" lon="3.25281">
        <ele>363.8973</ele>
        <time>2020-03-15T11:36:42Z</time>
      </trkpt>
      <trkpt lat="45.83344" lon="3.25294">
        <ele>364.22308</ele>
        <time>2020-03-15T11:36:44Z</time>
      </trkpt>
      <trkpt lat="45.83347" lon="3.25308">
        <ele>364.75336</ele>
        <time>2020-03-15T11:36:46Z</time>
      </trkpt>
      <trkpt lat="45.8335" lon="3.25323">
        <ele>367.8689</ele>
        <time>2020-03-15T11:36:48Z</time>
      </trkpt>
      <trkpt lat="45.83354" lon="3.25337">
        <ele>367.64603</ele>
        <time>2020-03-15T11:36:50Z</time>
      </trkpt>
      <trkpt lat="45.83358" lon="3.25352">
        <ele>367.37476</ele>
        <time>2020-03-15T11:36:52Z</time>
      </trkpt>
      <trkpt lat="45.83361" lon="3.25367">
        <ele>366.96222</ele>
        <time>2020-03-15T11:36:54Z</time>
      </trkpt>
      <trkpt lat="45.83365" lon="3.25382">
        <ele>366.27466</ele>
        <time>2020-03-15T11:36:56Z</time>
      </trkpt>
      <trkpt lat="45.83369" lon="3.25395">
        <ele>365.9038</ele>
        <time>2020-03-15T11:36:58Z</time>
      </trkpt>
      <trkpt lat="45.83373" lon="3.2541">
        <ele>365.52042</ele>
        <time>2020-03-15T11:37:00Z</time>
      </trkpt>
      <trkpt lat="45.83377" lon="3.25424">
        <ele>365.1429</ele>
        <time>2020-03-15T11:37:02Z</time>
      </trkpt>
      <trkpt lat="45.83381" lon="3.25439">
        <ele>364.78217</ele>
        <time>2020-03-15T11:37:04Z</time>
      </trkpt>
      <trkpt lat="45.83386" lon="3.25453">
        <ele>364.84396</ele>
        <time>2020-03-15T11:37:06Z</time>
      </trkpt>
      <trkpt lat="45.83392" lon="3.25464">
        <ele>364.9705</ele>
        <time>2020-03-15T11:37:08Z</time>
      </trkpt>
      <trkpt lat="45.83399" lon="3.25474">
        <ele>364.7753</ele>
        <time>2020-03-15T11:37:10Z</time>
      </trkpt>
      <trkpt lat="45.83409" lon="3.25487">
        <ele>364.84186</ele>
        <time>2020-03-15T11:37:13Z</time>
      </trkpt>
      <trkpt lat="45.83416" lon="3.25495">
        <ele>364.98044</ele>
        <time>2020-03-15T11:37:15Z</time>
      </trkpt>
      <trkpt lat="45.83424" lon="3.25505">
        <ele>364.96606</ele>
        <time>2020-03-15T11:37:17Z</time>
      </trkpt>
      <trkpt lat="45.83432" lon="3.25516">
        <ele>365.01685</ele>
        <time>2020-03-15T11:37:19Z</time>
      </trkpt>
      <trkpt lat="45.8344" lon="3.25527">
        <ele>364.93326</ele>
        <time>2020-03-15T11:37:21Z</time>
      </trkpt>
      <trkpt lat="45.83448" lon="3.25537">
        <ele>365.00644</ele>
        <time>2020-03-15T11:37:23Z</time>
      </trkpt>
      <trkpt lat="45.83456" lon="3.25546">
        <ele>365.10318</ele>
        <time>2020-03-15T11:37:25Z</time>
      </trkpt>
      <trkpt lat="45.83464" lon="3.25556">
        <ele>365.04224</ele>
        <time>2020-03-15T11:37:27Z</time>
      </trkpt>
      <trkpt lat="45.83472" lon="3.25566">
        <ele>365.151</ele>
        <time>2020-03-15T11:37:29Z</time>
      </trkpt>
      <trkpt lat="45.83481" lon="3.25577">
        <ele>364.90918</ele>
        <time>2020-03-15T11:37:31Z</time>
      </trkpt>
      <trkpt lat="45.8349" lon="3.25587">
        <ele>364.5161</ele>
        <time>2020-03-15T11:37:33Z</time>
      </trkpt>
      <trkpt lat="45.83498" lon="3.25599">
        <ele>364.1811</ele>
        <time>2020-03-15T11:37:35Z</time>
      </trkpt>
      <trkpt lat="45.83506" lon="3.25612">
        <ele>363.99835</ele>
        <time>2020-03-15T11:37:37Z</time>
      </trkpt>
      <trkpt lat="45.83512" lon="3.25627">
        <ele>363.85538</ele>
        <time>2020-03-15T11:37:39Z</time>
      </trkpt>
      <trkpt lat="45.83516" lon="3.25643">
        <ele>363.7017</ele>
        <time>2020-03-15T11:37:41Z</time>
      </trkpt>
      <trkpt lat="45.83518" lon="3.25659">
        <ele>363.7756</ele>
        <time>2020-03-15T11:37:43Z</time>
      </trkpt>
      <trkpt lat="45.83519" lon="3.25674">
        <ele>363.59988</ele>
        <time>2020-03-15T11:37:45Z</time>
      </trkpt>
      <trkpt lat="45.83518" lon="3.2569">
        <ele>363.45813</ele>
        <time>2020-03-15T11:37:47Z</time>
      </trkpt>
      <trkpt lat="45.83514" lon="3.25702">
        <ele>363.36426</ele>
        <time>2020-03-15T11:37:49Z</time>
      </trkpt>
      <trkpt lat="45.83505" lon="3.25715">
        <ele>363.54562</ele>
        <time>2020-03-15T11:37:52Z</time>
      </trkpt>
      <trkpt lat="45.83495" lon="3.25723">
        <ele>363.68082</ele>
        <time>2020-03-15T11:37:55Z</time>
      </trkpt>
      <trkpt lat="45.83486" lon="3.2573">
        <ele>363.6812</ele>
        <time>2020-03-15T11:37:58Z</time>
      </trkpt>
      <trkpt lat="45.83477" lon="3.25738">
        <ele>363.747</ele>
        <time>2020-03-15T11:38:01Z</time>
      </trkpt>
      <trkpt lat="45.83468" lon="3.25745">
        <ele>363.67667</ele>
        <time>2020-03-15T11:38:04Z</time>
      </trkpt>
      <trkpt lat="45.8346" lon="3.25752">
        <ele>363.85764</ele>
        <time>2020-03-15T11:38:07Z</time>
      </trkpt>
      <trkpt lat="45.83455" lon="3.25764">
        <ele>364.24176</ele>
        <time>2020-03-15T11:38:11Z</time>
      </trkpt>
      <trkpt lat="45.83463" lon="3.25775">
        <ele>364.55023</ele>
        <time>2020-03-15T11:38:14Z</time>
      </trkpt>
      <trkpt lat="45.83471" lon="3.25787">
        <ele>365.01987</ele>
        <time>2020-03-15T11:38:17Z</time>
      </trkpt>
      <trkpt lat="45.83479" lon="3.25803">
        <ele>364.99576</ele>
        <time>2020-03-15T11:38:20Z</time>
      </trkpt>
      <trkpt lat="45.83486" lon="3.25816">
        <ele>365.09573</ele>
        <time>2020-03-15T11:38:22Z</time>
      </trkpt>
      <trkpt lat="45.83493" lon="3.2583">
        <ele>365.16724</ele>
        <time>2020-03-15T11:38:24Z</time>
      </trkpt>
      <trkpt lat="45.83499" lon="3.25846">
        <ele>365.2252</ele>
        <time>2020-03-15T11:38:26Z</time>
      </trkpt>
      <trkpt lat="45.83502" lon="3.25862">
        <ele>365.16617</ele>
        <time>2020-03-15T11:38:28Z</time>
      </trkpt>
      <trkpt lat="45.83504" lon="3.25878">
        <ele>364.9959</ele>
        <time>2020-03-15T11:38:30Z</time>
      </trkpt>
      <trkpt lat="45.83506" lon="3.25892">
        <ele>364.8984</ele>
        <time>2020-03-15T11:38:32Z</time>
      </trkpt>
      <trkpt lat="45.83507" lon="3.25906">
        <ele>364.91425</ele>
        <time>2020-03-15T11:38:34Z</time>
      </trkpt>
      <trkpt lat="45.83511" lon="3.25919">
        <ele>365.2745</ele>
        <time>2020-03-15T11:38:36Z</time>
      </trkpt>
      <trkpt lat="45.83516" lon="3.25931">
        <ele>365.4901</ele>
        <time>2020-03-15T11:38:38Z</time>
      </trkpt>
      <trkpt lat="45.83522" lon="3.25941">
        <ele>365.2619</ele>
        <time>2020-03-15T11:38:40Z</time>
      </trkpt>
      <trkpt lat="45.8353" lon="3.25953">
        <ele>365.12973</ele>
        <time>2020-03-15T11:38:43Z</time>
      </trkpt>
      <trkpt lat="45.83539" lon="3.25963">
        <ele>365.51877</ele>
        <time>2020-03-15T11:38:46Z</time>
      </trkpt>
      <trkpt lat="45.83549" lon="3.25972">
        <ele>366.038</ele>
        <time>2020-03-15T11:38:49Z</time>
      </trkpt>
      <trkpt lat="45.83558" lon="3.25981">
        <ele>366.11227</ele>
        <time>2020-03-15T11:38:52Z</time>
      </trkpt>
      <trkpt lat="45.83568" lon="3.25987">
        <ele>367.01562</ele>
        <time>2020-03-15T11:38:55Z</time>
      </trkpt>
      <trkpt lat="45.8358" lon="3.25993">
        <ele>367.52057</ele>
        <time>2020-03-15T11:38:58Z</time>
      </trkpt>
      <trkpt lat="45.83589" lon="3.25998">
        <ele>367.76758</ele>
        <time>2020-03-15T11:39:00Z</time>
      </trkpt>
      <trkpt lat="45.83598" lon="3.26007">
        <ele>368.0056</ele>
        <time>2020-03-15T11:39:02Z</time>
      </trkpt>
      <trkpt lat="45.83607" lon="3.26017">
        <ele>368.49335</ele>
        <time>2020-03-15T11:39:04Z</time>
      </trkpt>
      <trkpt lat="45.83615" lon="3.2603">
        <ele>368.38275</ele>
        <time>2020-03-15T11:39:06Z</time>
      </trkpt>
      <trkpt lat="45.83624" lon="3.26043">
        <ele>367.78247</ele>
        <time>2020-03-15T11:39:08Z</time>
      </trkpt>
      <trkpt lat="45.83631" lon="3.26056">
        <ele>367.0724</ele>
        <time>2020-03-15T11:39:10Z</time>
      </trkpt>
      <trkpt lat="45.83638" lon="3.26069">
        <ele>366.2022</ele>
        <time>2020-03-15T11:39:12Z</time>
      </trkpt>
      <trkpt lat="45.83646" lon="3.2608">
        <ele>365.21036</ele>
        <time>2020-03-15T11:39:14Z</time>
      </trkpt>
      <trkpt lat="45.83653" lon="3.26093">
        <ele>364.85028</ele>
        <time>2020-03-15T11:39:16Z</time>
      </trkpt>
      <trkpt lat="45.83659" lon="3.26106">
        <ele>364.5729</ele>
        <time>2020-03-15T11:39:18Z</time>
      </trkpt>
      <trkpt lat="45.83665" lon="3.26119">
        <ele>364.36996</ele>
        <time>2020-03-15T11:39:20Z</time>
      </trkpt>
      <trkpt lat="45.83671" lon="3.26132">
        <ele>364.04822</ele>
        <time>2020-03-15T11:39:22Z</time>
      </trkpt>
      <trkpt lat="45.83675" lon="3.26145">
        <ele>363.59946</ele>
        <time>2020-03-15T11:39:24Z</time>
      </trkpt>
      <trkpt lat="45.83675" lon="3.26162">
        <ele>362.88925</ele>
        <time>2020-03-15T11:39:27Z</time>
      </trkpt>
      <trkpt lat="45.83665" lon="3.26167">
        <ele>362.8425</ele>
        <time>2020-03-15T11:39:30Z</time>
      </trkpt>
      <trkpt lat="45.83655" lon="3.26168">
        <ele>362.66766</ele>
        <time>2020-03-15T11:39:33Z</time>
      </trkpt>
      <trkpt lat="45.83644" lon="3.26171">
        <ele>362.2598</ele>
        <time>2020-03-15T11:39:37Z</time>
      </trkpt>
      <trkpt lat="45.83635" lon="3.26174">
        <ele>361.88086</ele>
        <time>2020-03-15T11:39:41Z</time>
      </trkpt>
      <trkpt lat="45.83627" lon="3.2617">
        <ele>361.8738</ele>
        <time>2020-03-15T11:39:46Z</time>
      </trkpt>
      <trkpt lat="45.83627" lon="3.26168">
        <ele>362.22443</ele>
        <time>2020-03-15T11:39:50Z</time>
      </trkpt>
      <trkpt lat="45.83627" lon="3.26168">
        <ele>362.22443</ele>
        <time>2020-03-15T11:39:50Z</time>
      </trkpt>
    </trkseg>
  </trk>
</gpx>